     2              OBSERVATION DATA    GPS                 RINEX VERSION / TYPE
teqc 1997Jul24 19970813                                     PGM / RUN BY / DATE
                                                            COMMENT
BIT 2 OF LLI FLAGS DATA COLLECTED UNDER A-S CONDITION       COMMENT
BIT 2 OF LLI FLAGS DATA COLLECTED UNDER A-S CONDITION       COMMENT
Original Marker Name: 55487.PINY                            COMMENT
Campaign Name: TREX12                                       COMMENT
4-Character Station Name: PINY                              COMMENT
6-Character Antenna Code: TI4100                            COMMENT
Vertical Measurement Point: PAE                             COMMENT
Vertical Offset to Rinex Ref. Point: 0.0000                 COMMENT
Radial Measurement Point: RRP                               COMMENT
Radial Offset to Rinex Ref. Point: 0.0000                   COMMENT
Antenna Height from Field Measurement: 1.7050 m             COMMENT
Original XYZ: -2369638.4981 -4761336.9306 3511121.0649      COMMENT
New XYZ position is based on association with SCEC monument COMMENT
E1D0K5S1+0011. Position of that monument is believed to be  COMMENT
valid to within 1 m horizontally; vertical accuracy         COMMENT
should be no worse than 3-times this value.                 COMMENT
                                                            COMMENT
Revised Rinex header created by UCSD GPS archive for        COMMENT
GSAC on 12-Apr-1999 (1999:102) 10:42:16 GMT                 COMMENT
For assistance contact dagnew@ucsd.edu or hjohnson@ucsd.edu COMMENT
                                                            COMMENT
PINYON FLAT NCMN 1981                                       MARKER NAME
5 NATIONAL GEODETIC SURVEY                                  OBSERVER / AGENCY
UT04 TI 4100 1.5                                            REC # / TYPE / VERS
108 TI 4100                                                 ANT # / TYPE
 -2369636.0000 -4761325.0000  3511116.0000                  APPROX POSITION XYZ
        1.7050        0.0000        0.0000                  ANTENNA: DELTA H/E/N
     1     1     0                                          WAVELENGTH FACT L1/2
     4    P1    P2    L1    L2                              # / TYPES OF OBSERV
    30                                                      INTERVAL
  1988     4     1     1    47   59.000000                  TIME OF FIRST OBS
  1988     4     1     7    51   59.000000                  TIME OF LAST OBS
     0                                                      # OF SATELLITES
                                                            END OF HEADER
 88  4  1  1 47 59.0800000  0  3G 6G 8G11
  22468530.877    22468536.159      693184.439 8  -1071961.265 9
  21586239.656    21586245.897      521295.400 8  -1400569.892 8
  24728517.580    24728527.768      388798.981 7  -1103211.139 8
 88  4  1  1 48 29.0800000  0  3G 6G 8G11
  22456759.860    22456766.700      631329.890 9  -1120159.562 9
  21569064.496    21569072.413      431051.706 8  -1470889.545 8
  24706800.680    24706811.537      274679.255 8  -1192135.272 7
 88  4  1  1 48 59.0800000  0  3G 6G 8G11
  22444994.482    22444998.938      569497.990 9  -1168340.240 9
  21551979.737    21551984.805      341261.969 9  -1540855.539 7
  24685087.402    24685098.355      160578.863 9  -1281044.347 8
 88  4  1  1 49 29.0800000  0  3G 6G 8G11
  22433231.359    22433238.098      507688.805 9  -1216503.180 9
  21534980.499    21534985.554      251928.974 9  -1610465.570 8
  24663377.679    24663388.909       46500.068 8  -1369936.578 8
 88  4  1  1 49 59.0800000  0  3G 6G 8G11
  22421473.249    22421478.939      445903.321 8  -1264647.662 9
  21518069.084    21518074.411      163056.294 9  -1679716.940 9
  24641674.121    24641685.633      -67554.407 7  -1458809.848 8
 88  4  1  1 50 29.0800000  0  3G 6G 8G11
  22409721.911    22409726.164      384141.797 9  -1312773.479 8
  21501244.869    21501250.971       74646.605 8  -1748607.557 8
  24619977.496    24619985.241     -181581.600 8  -1547661.873 9
 88  4  1  1 50 59.0800000  0  3G 6G 8G11
  22397973.549    22397978.526      322405.002 9  -1360880.034 8
  21484509.635    21484515.553      -13296.585 9  -1817134.640 8
  24598283.965    24598292.973     -295578.777 8  -1636490.521 8
 88  4  1  1 51 29.0800000  0  3G 6G 8G11
  22386229.090    22386235.378      260693.569 9  -1408966.848 8
  21467864.917    21467870.438     -100770.444 9  -1885296.022 8
  24576595.630    24576605.773     -409543.553 7  -1725293.927 8
 88  4  1  1 51 59.0800000  0  3G 6G 8G11
  22374492.107    22374497.030      199008.971 7  -1457032.680 9
  21451308.064    21451313.934     -187770.865 9  -1953088.493 8
  24554914.741    24554926.273     -523472.454 7  -1814069.354 7
 88  4  1  1 52 29.0800000  0  3G 6G 8G11
  22362758.931    22362764.428      137352.092 9  -1505076.910 9
  21434842.603    21434849.503     -274294.529 9  -2020509.459 8
  24533240.520    24533252.235     -637362.381 8  -1902814.446 6
 88  4  1  1 52 59.0800000  0  3G 6G 8G11
  22351030.184    22351036.866       75722.930 9  -1553099.594 9
  21418470.066    21418475.086     -360339.291 9  -2087557.274 8
  24511576.716    24511589.040     -751211.299 7  -1991527.577 7
 88  4  1  1 53 29.0800000  0  3G 6G 8G11
  22339308.723    22339315.151       14122.806 9  -1601099.638 8
  21402187.362    21402192.594     -445900.919 8  -2154228.599 8
  24489920.333    24489931.482     -865015.246 8  -2080205.707 8
 88  4  1  1 53 59.0800000  0  3G 6G 8G11
  22327592.843    22327597.182      -47447.480 8  -1649076.454 8
  21385998.806    21386003.293     -530976.300 9  -2220521.029 8
  24468274.131    24468283.709     -978771.907 8  -2168846.997 7
 88  4  1  1 54 29.0800000  0  3G 6G 8G11
  22315882.120    22315886.092     -108987.466 9  -1697029.662 8
  21369900.673    21369906.519     -615562.803 9  -2286432.510 8
  24446635.338    24446645.473    -1092478.928 7  -2257449.580 8
 88  4  1  1 54 59.0800000  0  3G 6G 8G11
  22304177.698    22304181.837     -170495.610 9  -1744958.006 8
  21353899.116    21353904.050     -699656.586 9  -2351960.055 8
  24425006.917    24425017.823    -1206132.837 6  -2346010.754 8
 88  4  1  1 55 29.0800000  0  3G 6G 8G11
  22292477.690    22292485.530     -231971.455 9  -1792861.240 7
  21337991.311    21337996.999     -783255.042 9  -2417101.646 8
  24403389.690    24403397.647    -1319730.850 7  -2434528.395 7
 88  4  1  1 55 59.0800000  0  3G 6G 8G11
  22280786.966    22280792.298     -293413.883 9  -1840738.391 8
  21322177.910    21322184.528     -866354.777 8  -2481854.608 8
  24381784.460    24381792.913    -1433269.837 8  -2523000.100 6
 88  4  1  1 56 29.0800000  0  3G 6G 8G11
  22269101.942    22269106.344     -354821.545 9  -1888588.479 8
  21306460.905    21306465.513     -948952.366 9  -2546216.295 9
  24360189.165    24360200.046    -1546746.641 7  -2611423.296 7
 88  4  1  1 56 59.0800000  0  3G 6G 8G11
  22257420.725    22257426.623     -416194.095 9  -1936411.201 9
  21290837.408    21290843.718    -1031044.816 8  -2610184.379 7
  24338608.927    24338617.403    -1660158.734 8  -2699796.075 8
 88  4  1  1 57 29.0800000  0  3G 6G 8G11
  22245749.020    22245755.145     -477529.932 9  -1984205.318 8
  21275313.167    21275318.252    -1112628.381 9  -2673755.906 9
  24317040.197    24317049.746    -1773502.218 9  -2788115.476 7
 88  4  1  1 57 59.0800000  0  3G 6G 8G11
  22234085.340    22234088.715     -538827.731 9  -2031969.796 7
  21259885.858    21259891.843    -1193699.676 9  -2736928.281 8
  24295483.519    24295494.480    -1886774.357 8  -2876379.243 8
 88  4  1  1 58 29.0800000  0  3G 6G 8G11
  22222428.019    22222433.442     -600087.333 8  -2079704.531 9
  21244555.881    21244562.483    -1274256.328 9  -2799699.627 9
  24273944.120    24273953.524    -1999972.854 8  -2964585.615 8
 88  4  1  1 58 59.0800000  0  3G 6G 8G11
  22210778.110    22210783.691     -661307.658 9  -2127408.666 8
  21229325.477    21229331.595    -1354295.295 9  -2862067.595 7
  24252418.174    24252426.502    -2113094.949 8  -3052732.485 7
 88  4  1  1 59 29.0800000  0  3G 6G 8G11
  22199135.762    22199141.483     -722488.176 9  -2175081.763 9
  21214193.038    21214198.279    -1433813.766 9  -2924029.987 8
  24230905.683    24230915.070    -2226137.984 8  -3140817.735 8
 88  4  1  1 59 59.0800000  0  3G 6G 8G11
  22187500.878    22187507.294     -783627.832 9  -2222722.977 8
  21199161.246    21199166.530    -1512808.924 9  -2985584.609 8
  24209408.981    24209419.233    -2339099.135 7  -3228839.152 8
 88  4  1  2  0 29.0800000  0  3G 6G 8G11
  22175875.083    22175879.330     -844725.401 9  -2270331.429 9
  21184228.169    21184234.859    -1591277.416 9  -3046728.837 8
  24187929.681    24187938.979    -2451975.362 7  -3316794.404 8
 88  4  1  2  0 59.0800000  0  3G 6G 8G11
  22164256.626    22164261.385     -905779.652 8  -2317906.135 8
  21169396.167    21169402.044    -1669215.992 9  -3107460.130 7
  24166465.443    24166475.769    -2564763.412 7  -3404680.963 8
 88  4  1  2  1 29.0800000  0  3G 6G 8G11
  22152646.948    22152652.066     -966789.724 9  -2365446.438 7
  21154667.469    21154672.579    -1746621.732 9  -3167776.223 8
  24145020.656    24145030.280    -2677460.243 7  -3492496.425 7
 88  4  1  2  1 59.0800000  0  3G 6G 8G11
  22141045.456    22141049.978    -1027754.091 9  -2412951.114 8
  21140039.498    21140044.729    -1823491.588 9  -3227674.753 8
  24123593.117    24123601.607    -2790062.594 7  -3580238.301 7
 88  4  1  2  2 29.0800000  0  3G 6G 8G11
  22129452.652    22129459.194    -1088672.411 9  -2460419.898 9
  21125514.329    21125519.014    -1899822.996 9  -3287153.725 8
  24102183.736    24102193.097    -2902568.079 8  -3667904.710 8
 88  4  1  2  2 59.0800000  0  3G 6G 8G11
  22117869.670    22117875.351    -1149542.802 9  -2507851.310 9
  21111091.659    21111096.963    -1975612.191 9  -3346210.178 8
  24080794.242    24080800.473    -3014973.075 9  -3755492.820 7
 88  4  1  2  3 29.0800000  0  3G 6G 8G11
  22106296.934    22106302.160    -1210364.845 9  -2555245.056 9
  21096774.701    21096778.588    -2050857.123 9  -3404842.529 8
  24059423.988    24059430.848    -3127275.554 7  -3843001.045 7
 88  4  1  2  3 59.0800000  0  3G 6G 8G11
  22094731.449    22094737.279    -1271137.733 9  -2602600.525 9
  21082558.516    21082563.555    -2125555.312 9  -3463048.847 8
  24038074.327    24038082.469    -3239472.931 8  -3930427.372 8
 88  4  1  2  4 29.0800000  0  3G 6G 8G11
  22083176.880    22083179.503    -1331861.056 9  -2649917.382 8
  21068448.720    21068453.959    -2199704.492 9  -3520827.372 9
  24016742.620    24016750.529    -3351562.619 7  -4017769.799 7
 88  4  1  2  4 59.0800000  0  3G 6G 8G11
  22071630.093    22071635.694    -1392533.201 9  -2697194.351 9
  21054444.105    21054449.364    -2273301.264 9  -3578175.440 8
  23995434.195    23995442.739    -3463541.596 8  -4105025.940 8
 88  4  1  2  5 29.0800000  0  3G 6G 8G11
  22060093.817    22060100.765    -1453151.120 9  -2744429.056 9
  21040543.921    21040550.805    -2346340.637 9  -3635089.175 8
  23974146.490    23974154.947    -3575404.671 8  -4192191.774 8
 88  4  1  2  5 59.0800000  0  3G 6G 8G11
  22048570.585    22048575.736    -1513713.742 9  -2791620.670 9
  21026751.961    21026757.181    -2418820.531 9  -3691566.950 8
  23952883.446    23952891.860    -3687149.086 9  -4279265.149 7
 88  4  1  2  6 29.0800000  0  3G 6G 8G11
  22037057.569    22037062.076    -1574220.773 9  -2838768.955 9
  21013066.725    21013072.160    -2490738.886 8  -3747607.188 7
  23931641.248    23931651.511    -3798772.766 7  -4366244.460 8
 88  4  1  2  6 59.0800000  0  3G 6G 8G11
  22025553.694    22025559.452    -1634671.247 9  -2885873.199 8
  20999489.067    20999492.753    -2562093.290 9  -3803207.961 7
  23910422.538    23910431.535    -3910273.043 8  -4453127.579 8
 88  4  1  2  7 29.0800000  0  3G 6G 8G11
  22014060.190    22014065.699    -1695063.894 8  -2932932.373 8
  20986018.181    20986022.210    -2632880.097 9  -3858366.455 7
  23889229.951    23889237.402    -4021647.089 8  -4539912.354 8
 88  4  1  2  7 59.0800000  0  3G 6G 8G11
  22002578.478    22002583.356    -1755397.757 8  -2979945.739 9
  20972655.932    20972661.317    -2703097.176 9  -3913081.012 8
  23868059.869    23868067.566    -4132891.942 6  -4626596.450 8
 88  4  1  2  8 29.0800000  0  3G 6G 8G11
  21991110.101    21991115.083    -1815671.236 9  -3026912.050 8
  20959402.899    20959408.449    -2772741.865 9  -3967349.565 7
  23846915.949    23846923.842    -4244003.880 7  -4713177.003 7
 88  4  1  2  8 59.0800000  0  3G 6G 8G11
  21979652.485    21979657.057    -1875883.215 9  -3073830.445 9
  20946257.860    20946264.115    -2841811.628 9  -4021170.109 8
  23825797.691    23825805.370    -4354980.714 7  -4799652.239 8
 88  4  1  2  9 29.0800000  0  3G 6G 8G11
  21968204.118    21968211.942    -1936032.735 9  -3120700.154 9
  20933226.127    20933229.913    -2910303.527 8  -4074540.379 8
  23804705.212    23804712.218    -4465819.609 7  -4886020.002 8
 88  4  1  2  9 59.0800000  0  3G 6G 8G11
  21956770.592    21956777.374    -1996118.421 8  -3167520.107 8
  20920303.189    20920308.331    -2978215.150 8  -4127458.472 8
  23783640.062    23783647.932    -4576517.540 8  -4972277.976 7
 88  4  1  2 10 29.0800000  0  3G 6G 8G11
  21945349.144    21945355.781    -2056138.689 9  -3214289.098 8
  20907490.474    20907495.280    -3045543.532 8  -4179922.117 8
  23762602.096    23762609.894    -4687071.284 8  -5058423.577 8
 88  4  1  2 10 59.0800000  0  3G 6G 8G11
  21933941.180    21933946.406    -2116092.474 9  -3261006.335 8
  20894789.218    20894793.672    -3112286.236 9  -4231929.371 8
  23741592.236    23741600.638    -4797478.029 8  -5144454.628 8
 88  4  1  2 11 29.0800000  0  3G 6G 8G11
  21922544.928    21922551.072    -2175978.422 9  -3307670.671 9
  20882200.905    20882206.280    -3178440.958 9  -4283478.462 8
  23720611.332    23720618.605    -4907734.855 8  -5230368.883 8
 88  4  1  2 11 59.0800000  0  3G 6G 8G11
  21911161.616    21911168.396    -2235795.596 8  -3354281.377 9
  20869723.702    20869729.989    -3244005.232 9  -4334567.458 8
  23699657.074    23699667.309    -5017838.945 8  -5316164.114 8
 88  4  1  2 12 29.0800000  0  3G 6G 8G11
  21899791.383    21899797.702    -2295542.486 8  -3400837.340 9
  20857360.836    20857366.536    -3308976.289 9  -4385194.223 8
  23678735.883    23678744.563    -5127787.358 7  -5401838.053 7
 88  4  1  2 12 59.0800000  0  3G 6G 8G11
  21888437.457    21888442.279    -2355217.679 9  -3447337.448 8
  20845110.125    20845114.475    -3373351.766 9  -4435356.872 8
  23657843.319    23657851.302    -5237576.941 9  -5487388.228 8
 88  4  1  2 13 29.0800000  0  3G 6G 8G11
  21877095.660    21877099.803    -2414819.750 9  -3493780.613 9
  20832971.954    20832979.772    -3437129.017 8  -4485053.400 7
  23636980.723    23636989.656    -5347204.738 7  -5572812.346 8
 88  4  1  2 13 59.0800000  0  3G 6G 8G11
  21865765.882    21865772.593    -2474347.167 8  -3540165.574 9
  20820950.744    20820957.618    -3500305.490 8  -4534281.774 8
  23616150.864    23616160.287    -5456667.808 8  -5658108.089 7
 88  4  1  2 14 29.0800000  0  3G 6G 8G11
  21854453.807    21854460.109    -2533799.020 9  -3586491.623 9
  20809043.603    20809049.451    -3562879.072 8  -4583040.348 8
  23595353.044    23595360.941    -5565963.568 7  -5743273.457 8
 88  4  1  2 14 59.0800000  0  3G 6G 8G11
  21843155.658    21843160.930    -2593174.184 8  -3632757.938 9
  20797252.497    20797257.037    -3624847.607 8  -4631327.488 8
  23574589.420    23574595.762    -5675089.185 7  -5828306.284 8
 88  4  1  2 15 29.0800000  0  3G 6G 8G11
  21831872.242    21831875.447    -2652470.987 9  -3678963.222 8
  20785574.825    20785581.378    -3686208.523 9  -4679141.133 8
  23553853.680    23553861.076    -5784041.526 8  -5913204.058 8
 88  4  1  2 15 59.0800000  0  3G 6G 8G11
  21820601.538    21820607.946    -2711687.984 8  -3725106.327 8
  20774016.063    20774019.481    -3746959.384 9  -4726479.436 8
  23533154.984    23533162.508    -5892817.711 6  -5997964.565 7
 88  4  1  2 16 29.0800000  0  3G 6G 8G11
  21809350.403    21809354.593    -2770823.958 9  -3771186.274 9
  20762571.846    20762576.019    -3807097.810 8  -4773340.504 8
  23512491.255    23512496.498    -6001414.561 7  -6082585.341 7
 88  4  1  2 16 59.0800000  0  3G 6G 8G11
  21798113.263    21798118.197    -2829877.449 9  -3817201.932 8
  20751244.425    20751248.875    -3866621.475 9  -4819722.534 8
  23491859.802    23491865.078    -6109829.335 7  -6167064.257 8
 88  4  1  2 17 29.0800000  0  3G 6G 8G11
  21786891.279    21786894.985    -2888847.263 9  -3863152.427 9
  20740035.301    20740040.027    -3925528.571 8  -4865624.116 8
  23471262.988    23471271.251    -6218059.885 8  -6251399.620 9
 88  4  1  2 17 59.0800000  0  3G 6G 8G11
  21775683.771    21775689.780    -2947731.654 9  -3909036.354 8
  20728943.218    20728948.379    -3983816.638 9  -4911043.360 8
  23450704.317    23450711.622    -6326102.463 8  -6335588.476 8
 88  4  1  2 18 29.0800000  0  3G 6G 8G11
  21764494.984    21764500.496    -3006529.479 9  -3954852.782 8
  20717969.982    20717972.313    -4041483.703 9  -4955978.687 8
  23430180.093    23430185.528    -6433954.580 8  -6419628.951 8
 88  4  1  2 18 59.0800000  0  3G 6G 8G11
  21753325.068    21753328.884    -3065238.997 9  -4000600.473 8
  20707113.576    20707118.651    -4098527.476 8  -5000428.339 8
  23409693.109    23409700.253    -6541612.961 8  -6503518.473 8
 88  4  1  2 19 29.0800000  0  3G 6G 8G11
  21742169.891    21742174.404    -3123858.763 9  -4046278.198 9
  20696376.863    20696380.988    -4154945.615 8  -5044390.497 8
  23389243.678    23389251.364    -6649074.704 7  -6587254.779 8
 88  4  1  2 19 59.0800000  0  3G 6G 8G11
  21731029.750    21731037.045    -3182387.540 8  -4091885.012 8
  20685760.258    20685766.246    -4210736.325 9  -5087863.736 7
  23368831.730    23368839.164    -6756337.271 7  -6670835.883 7
 88  4  1  2 20 29.0800000  0  3G 6G 8G11
  21719910.575    21719915.014    -3240824.722 9  -4137420.426 9
  20675263.683    20675267.935    -4265898.170 9  -5130846.947 7
  23348459.337    23348466.732    -6863398.381 8  -6754260.007 7
 88  4  1  2 20 59.0800000  0  3G 6G 8G11
  21708808.759    21708812.540    -3299168.796 9  -4182883.324 9
  20664886.622    20664891.611    -4320429.541 8  -5173338.886 7
  23328125.007    23328133.004    -6970255.694 8  -6837525.330 8
 88  4  1  2 21 29.0800000  0  3G 6G 8G11
  21697723.366    21697729.077    -3357418.062 8  -4228272.384 8
  20654629.530    20654634.812    -4374327.908 8  -5215337.573 8
  23307829.024    23307836.978    -7076905.917 7  -6920629.284 8
 88  4  1  2 21 59.0800000  0  3G 6G 8G11
  21686656.700    21686663.607    -3415569.877 9  -4273585.444 9
  20644494.707    20644499.745    -4427590.362 8  -5256840.730 8
  23287575.158    23287582.145    -7183344.654 9  -7003568.460 8
 88  4  1  2 22 29.0800000  0  3G 6G 8G11
  21675612.184    21675617.100    -3473622.727 8  -4318821.349 8
  20634481.755    20634484.061    -4480214.778 8  -5297846.735 8
  23267360.725    23267367.495    -7289569.372 7  -7086340.881 8
 88  4  1  2 22 59.0800000  0  3G 6G 8G11
  21664583.825    21664587.349    -3531575.295 9  -4363979.167 8
  20624586.893    20624593.047    -4532199.560 9  -5338354.322 8
  23247188.509    23247194.314    -7395577.563 8  -7168944.567 8
 88  4  1  2 23 29.0800000  0  3G 6G 8G11
  21653573.670    21653577.490    -3589426.002 8  -4409057.648 8
  20614817.895    20614822.075    -4583542.332 9  -5378361.632 7
  23227055.940    23227064.167    -7501366.002 8  -7251377.004 8
 88  4  1  2 23 59.0800000  0  3G 6G 8G11
  21642583.621    21642590.102    -3647173.130 8  -4454055.353 9
  20605171.222    20605176.283    -4634241.372 8  -5417867.345 8
  23206968.144    23206974.511    -7606931.781 7  -7333635.953 9
 88  4  1  2 24 29.0800000  0  3G 6G 8G11
  21631619.019    21631621.818    -3704815.198 9  -4498971.166 9
  20595645.340    20595650.727    -4684294.885 8  -5456870.041 7
  23186924.103    23186930.796    -7712272.140 7  -7415719.230 8
 88  4  1  2 24 59.0800000  0  3G 6G 8G11
  21620669.431    21620673.346    -3762349.835 8  -4543803.327 9
  20586243.382    20586248.152    -4733700.505 9  -5495367.905 7
  23166919.575    23166928.618    -7817383.431 8  -7497624.032 9
 88  4  1  2 25 29.0800000  0  3G 6G 8G11
  21609738.329    21609743.956    -3819776.453 8  -4588551.280 7
  20576966.088    20576969.986    -4782457.170 8  -5533360.064 7
  23146962.062    23146969.147    -7922263.903 8  -7579348.960 8
 88  4  1  2 25 59.0800000  0  3G 6G 8G11
  21598833.180    21598837.550    -3877093.334 8  -4633213.752 8
  20567811.534    20567816.383    -4830563.188 9  -5570845.253 7
  23127048.713    23127055.285    -8026910.528 8  -7660891.690 8
 88  4  1  2 26 29.0800000  0  3G 6G 8G11
  21587949.838    21587952.516    -3934298.669 9  -4677789.301 9
  20558782.729    20558787.533    -4878016.727 8  -5607822.009 8
  23107178.940    23107187.916    -8131320.525 8  -7742249.994 8
 88  4  1  2 26 59.0800000  0  3G 6G 8G11
  21577083.168    21577088.689    -3991390.905 9  -4722276.715 9
  20549876.065    20549881.390    -4924816.179 8  -5644289.065 8
  23087357.369    23087365.360    -8235490.763 8  -7823421.514 7
 88  4  1  2 27 29.0800000  0  3G 6G 8G11
  21566240.137    21566244.934    -4048368.337 8  -4766674.641 9
  20541095.382    20541099.301    -4970959.592 8  -5680244.934 8
  23067580.467    23067587.656    -8339418.721 8  -7904404.225 8
 88  4  1  2 27 59.0800000  0  3G 6G 8G11
  21555419.829    21555423.979    -4105229.003 9  -4810981.603 8
  20532439.500    20532446.092    -5016445.365 9  -5715688.362 8
  23047850.634    23047856.429    -8443100.827 7  -7985195.367 9
 88  4  1  2 28 29.0800000  0  3G 6G 8G11
  21544623.223    21544627.405    -4161971.811 9  -4855196.778 8
  20523910.286    20523914.487    -5061272.113 7  -5750618.270 8
  23028166.606    23028173.857    -8546534.896 8  -8065793.241 7
 88  4  1  2 28 59.0800000  0  3G 6G 8G11
  21533846.233    21533851.736    -4218594.666 9  -4899318.446 9
  20515504.441    20515508.610    -5105437.949 9  -5785033.163 8
  23008530.482    23008539.474    -8649717.814 8  -8146195.410 8
 88  4  1  2 29 29.0800000  0  3G 6G 8G11
  21523093.504    21523099.995    -4275096.170 8  -4943345.508 9
  20507226.361    20507229.775    -5148941.516 9  -5818932.027 8
  22988943.939    22988953.301    -8752646.780 8  -8226399.725 8
 88  4  1  2 29 59.0800000  0  3G 6G 8G11
  21512368.284    21512372.042    -4331474.415 9  -4987276.600 8
  20499074.051    20499078.171    -5191781.391 8  -5852313.706 8
  22969408.427    22969413.364    -8855319.100 7  -8306404.021 8
 88  4  1  2 30 29.0800000  0  3G 6G 8G11
  21501662.375    21501666.130    -4387727.488 8  -5031110.160 8
  20491048.604    20491052.752    -5233955.390 8  -5885176.534 8
  22949918.904    22949924.693    -8957731.599 8  -8386205.889 8
 88  4  1  2 30 59.0800000  0  3G 6G 8G11
  21490979.723    21490986.819    -4443854.142 8  -5074845.189 9
  20483149.199    20483153.260    -5275462.812 8  -5917519.945 7
  22930480.136    22930487.038    -9059882.003 8  -8465803.539 8
 88  4  1  2 31 29.0800000  0  3G 6G 8G11
  21480325.453    21480331.171    -4499852.921 8  -5118480.536 9
  20475379.463    20475382.230    -5316302.435 8  -5949342.991 7
  22911090.897    22911098.466    -9161767.766 8  -8545194.935 8
 88  4  1  2 31 59.0800000  0  3G 6G 8G11
  21469694.851    21469699.530    -4555721.851 9  -5162014.746 9
  20467732.917    20467738.939    -5356472.387 9  -5980644.223 7
  22891753.585    22891761.625    -9263385.770 8  -8624377.728 8
 88  4  1  2 32 29.0800000  0  3G 6G 8G11
  21459087.710    21459092.807    -4611459.073 9  -5205446.351 9
  20460218.006    20460221.723    -5395971.309 9  -6011422.573 8
  22872468.267    22872476.485    -9364733.315 8  -8703349.740 8
 88  4  1  2 32 59.0800000  0  3G 6G 8G11
  21448506.171    21448511.557    -4667062.751 8  -5248773.850 9
  20452828.685    20452834.322    -5434797.813 8  -6041676.967 8
  22853233.669    22853241.537    -9465807.677 8  -8782108.905 8
 88  4  1  2 33 29.0800000  0  3G 6G 8G11
  21437951.190    21437956.613    -4722531.271 9  -5291996.054 9
  20445568.715    20445574.597    -5472951.108 8  -6071406.756 8
  22834053.186    22834060.433    -9566606.035 7  -8860652.990 7
 88  4  1  2 33 59.0800000  0  3G 6G 8G11
  21427423.557    21427427.097    -4777862.847 8  -5335111.554 9
  20438436.195    20438442.005    -5510429.578 9  -6100610.714 8
  22814925.572    22814932.636    -9667125.445 8  -8938979.725 8
 88  4  1  2 34 29.0800000  0  3G 6G 8G11
  21416918.715    21416923.784    -4833055.892 9  -5378119.071 9
  20431433.321    20431439.782    -5547231.995 8  -6129287.885 8
  22795849.295    22795857.453    -9767363.400 8  -9017087.140 8
 88  4  1  2 34 59.0800000  0  3G 6G 8G11
  21406443.385    21406447.543    -4888108.396 8  -5421017.113 9
  20424559.298    20424562.615    -5583357.369 9  -6157437.508 7
  22776828.868    22776837.163    -9867317.307 9  -9094973.205 8
 88  4  1  2 35 29.0800000  0  3G 6G 8G11
  21395994.572    21395998.937    -4943018.466 8  -5463804.184 9
  20417813.735    20417819.811    -5618804.532 8  -6185058.645 7
  22757863.657    22757870.313    -9966983.962 8  -9172635.433 8
 88  4  1  2 35 59.0800000  0  3G 6G 8G11
  21385571.740    21385576.860    -4997784.196 8  -5506478.729 9
  20411197.005    20411202.172    -5653571.835 8  -6212150.013 8
  22738954.812    22738959.673   -10066360.755 8  -9250071.848 7
 88  4  1  2 36 29.0800000  0  3G 6G 8G11
  21375179.323    21375182.508    -5052404.068 8  -5549039.626 9
  20404711.519    20404716.476    -5687658.627 7  -6238711.128 7
  22720097.202    22720103.755   -10165445.084 8  -9327280.345 7
 88  4  1  2 36 59.0800000  0  3G 6G 8G11
  21364812.188    21364817.688    -5106876.047 8  -5591485.322 9
  20398354.156    20398359.128    -5721063.967 9  -6264741.220 7
  22701300.712    22701305.884   -10264234.044 8  -9404258.682 8
 88  4  1  2 37 29.0800000  0  3G 6G 8G11
  21354475.640    21354480.095    -5161198.394 8  -5633814.390 9
  20392127.088    20392130.657    -5753786.484 9  -6290239.258 7
  22682554.945    22682562.113   -10362724.911 8  -9481004.748 8
 88  4  1  2 37 59.0800000  0  3G 6G 8G11
  21344167.006    21344173.116    -5215369.148 9  -5676025.310 9
  20386030.608    20386035.258    -5785825.302 8  -6315204.534 7
  22663871.745    22663876.892   -10460915.243 8  -9557516.617 8
 88  4  1  2 38 29.0800000  0  3G 6G 8G11
  21333888.810    21333893.343    -5269386.518 9  -5718116.749 9
  20380063.964    20380070.280    -5817179.445 8  -6339636.293 6
  22645243.068    22645249.913   -10558802.215 9  -9633792.111 8
 88  4  1  2 38 59.0800000  0  3G 6G 8G11
  21323637.751    21323642.544    -5323248.588 9  -5760087.174 9
  20374228.630    20374233.109    -5847847.690 8  -6363533.614 8
  22626675.027    22626681.607   -10656383.106 8  -9709829.126 8
 88  4  1  2 39 29.0800000  0  3G 6G 8G11
  21313419.105    21313424.236    -5376953.706 9  -5801935.282 8
  20368522.796    20368527.159    -5877829.476 9  -6386895.996 8
  22608165.178    22608171.011   -10753655.397 8  -9785625.621 9
 88  4  1  2 39 59.0800000  0  3G 6G 8G11
  21303230.010    21303235.121    -5430499.501 9  -5843659.253 9
  20362948.676    20362951.032    -5907123.924 9  -6409722.810 7
  22589714.702    22589720.693   -10850616.107 8  -9861179.362 8
 88  4  1  2 40 29.0800000  0  3G 6G 8G11
  21293069.980    21293074.844    -5483884.401 9  -5885257.858 9
  20357505.565    20357508.466    -5935729.775 8  -6432013.052 8
  22571323.808    22571328.483   -10947262.735 8  -9936488.346 8
 88  4  1  2 40 59.0800000  0  3G 6G 8G11
  21282942.340    21282948.267    -5537106.244 9  -5926729.369 9
  20352193.660    20352195.310    -5963646.518 9  -6453766.335 7
  22552992.003    22552997.325   -11043592.394 8 -10011550.346 8
 88  4  1  2 41 29.0800000  0  3G 6G 8G11
  21272846.890    21272850.791    -5590162.932 8  -5968072.214 9
  20347011.800    20347016.517    -5990873.321 9  -6474981.999 7
  22534721.373    22534728.215   -11139602.210 8 -10086363.123 8
 88  4  1  2 41 59.0800000  0  3G 6G 8G11
  21262780.974    21262784.743    -5643053.058 9  -6009285.260 8
  20341961.794    20341963.649    -6017409.626 8  -6495659.599 7
  22516513.081    22516518.778   -11235290.227 7 -10160925.138 8
 88  4  1  2 42 29.0800000  0  3G 6G 8G11
  21252748.582    21252752.414    -5695774.540 9  -6050366.917 9
  20337044.060    20337048.084    -6043254.796 8  -6515798.667 6
  22498365.424    22498372.004   -11330653.866 8 -10235234.408 9
 88  4  1  2 42 59.0800000  0  3G 6G 8G11
  21242748.827    21242754.341    -5748325.222 8  -6091315.497 8
  20332256.632    20332261.786    -6068407.654 9  -6535398.262 7
  22480279.854    22480286.771   -11425690.129 9 -10309288.548 9
 88  4  1  2 43 29.0800000  0  3G 6G 8G11
  21232781.650    21232786.069    -5800703.252 9  -6132129.516 8
  20327602.949    20327605.345    -6092867.849 9  -6554458.128 7
  22462258.928    22462265.652   -11520396.228 8 -10383085.462 8
 88  4  1  2 43 59.0800000  0  3G 6G 8G11
  21222846.687    21222852.084    -5852906.296 8  -6172807.148 9
  20323078.878    20323083.923    -6116634.112 8  -6572977.260 7
  22444299.672    22444306.180   -11614769.348 8 -10456622.903 8
 88  4  1  2 44 29.0800000  0  3G 6G 8G11
  21212947.519    21212950.821    -5904932.687 8  -6213347.172 9
  20318687.971    20318692.594    -6139706.545 8  -6590955.763 8
  22426406.245    22426410.667   -11708807.209 7 -10529899.069 8
 88  4  1  2 44 59.0800000  0  3G 6G 8G11
  21203081.320    21203086.563    -5956780.891 9  -6253748.329 9
  20314429.970    20314434.589    -6162085.299 9  -6608393.710 6
  22408574.330    22408579.987   -11802507.688 9 -10602912.375 9
 88  4  1  2 45 29.0800000  0  3G 6G 8G11
  21193248.530    21193253.314    -6008448.636 8  -6294008.887 8
  20310303.404    20310308.097    -6183769.354 8  -6625290.363 7
  22390807.765    22390814.654   -11895867.955 7 -10675660.559 9
 88  4  1  2 45 59.0800000  0  3G 6G 8G11
  21183451.598    21183454.282    -6059933.976 9  -6334127.286 9
  20306310.634    20306314.674    -6204758.200 9  -6641645.291 7
  22373108.288    22373113.448   -11988885.409 7 -10748141.630 8
 88  4  1  2 46 29.0800000  0  3G 6G 8G11
  21173686.255    21173693.322    -6111235.177 8  -6374102.240 9
  20302450.090    20302451.872    -6225051.622 9  -6657458.319 6
  22355472.444    22355478.582   -12081557.794 8 -10820353.820 8
 88  4  1  2 46 59.0800000  0  3G 6G 8G11
  21163963.315    21163967.553    -6162349.601 8  -6413931.618 9
  20298718.401    20298723.220    -6244648.771 8  -6672728.807 7
  22337903.575    22337909.707   -12173881.813 8 -10892294.544 7
 88  4  1  2 47 29.0800000  0  3G 6G 8G11
  21154271.681    21154276.077    -6213275.979 8  -6453614.466 9
  20295120.357    20295125.463    -6263550.217 9  -6687457.177 7
  22320401.646    22320407.378   -12265855.968 8 -10963962.666 8
 88  4  1  2 47 59.0800000  0  3G 6G 8G11
  21144616.651    21144620.844    -6264011.885 9  -6493148.891 9
  20291657.341    20291662.765    -6281755.088 8  -6701642.768 7
  22302967.894    22302973.716   -12357477.439 9 -11035355.954 7
 88  4  1  2 48 29.0800000  0  3G 6G 8G11
  21134998.613    21135001.759    -6314555.349 8  -6532533.391 9
  20288326.057    20288329.560    -6299262.987 9  -6715285.253 7
  22285599.073    22285605.043   -12448743.393 8 -11106472.224 8
 88  4  1  2 48 59.0800000  0  3G 6G 8G11
  21125417.018    21125421.989    -6364904.287 8  -6571766.302 9
  20285127.507    20285132.421    -6316073.891 9  -6728384.643 7
  22268300.000    22268306.276   -12539651.624 8 -11177309.748 8
 88  4  1  2 49 29.0800000  0  3G 6G 8G11
  21115873.691    21115878.795    -6415056.295 8  -6610845.746 9
  20282060.979    20282067.334    -6332187.007 8  -6740940.294 7
  22251070.326    22251074.578   -12630199.462 9 -11247866.434 8
 88  4  1  2 49 59.0800000  0  3G 6G 8G11
  21106369.143    21106372.168    -6465009.661 9  -6649770.420 9
  20279126.939    20279132.257    -6347602.497 9  -6752952.328 8
  22233909.668    22233912.714   -12720384.343 8 -11318140.324 8
 88  4  1  2 50 29.0800000  0  3G 6G 8G11
  21096900.636    21096905.321    -6514762.321 9  -6688538.692 9
  20276325.687    20276332.371    -6362320.302 8  -6764420.721 7
  22216815.821    22216822.260   -12810203.867 8 -11388129.501 8
 88  4  1  2 50 59.0800000  0  3G 6G 8G11
  21087472.264    21087476.305    -6564312.103 9  -6727148.866 8
  20273658.755    20273664.027    -6376340.166 8  -6775345.277 7
  22199794.395    22199800.135   -12899655.452 9 -11457831.972 8
 88  4  1  2 51 29.0800000  0  3G 6G 8G11
  21078081.347    21078085.494    -6613656.919 9  -6765599.364 9
  20271124.465    20271129.131    -6389661.845 8  -6785725.790 7
  22182842.664    22182847.356   -12988736.696 8 -11527245.876 8
 88  4  1  2 51 59.0800000  0  3G 6G 8G11
  21068729.866    21068734.399    -6662794.614 8  -6803888.441 9
  20268722.480    20268726.621    -6402285.189 8  -6795562.139 8
  22165961.332    22165967.542   -13077445.322 8 -11596369.430 8
 88  4  1  2 52 29.0800000  0  3G 6G 8G11
  21059421.090    21059424.035    -6711723.012 8  -6842014.423 9
  20266453.020    20266456.842    -6414210.520 8  -6804854.593 7
  22149152.179    22149158.129   -13165778.858 7 -11665200.684 8
 88  4  1  2 52 59.0800000  0  3G 6G 8G11
  21050150.148    21050154.034    -6760440.339 9  -6879975.941 8
  20264315.627    20264320.086    -6425437.934 8  -6813603.203 7
  22132414.054    22132420.336   -13253735.000 9 -11733737.899 8
 88  4  1  2 53 29.0800000  0  3G 6G 8G11
  21040918.378    21040924.840    -6808944.169 9  -6917771.103 9
  20262311.556    20262317.932    -6435967.175 8  -6821807.776 7
  22115749.076    22115755.699   -13341311.077 8 -11801978.933 8
 88  4  1  2 53 59.0800000  0  3G 6G 8G11
  21031730.314    21031734.935    -6857232.646 9  -6955398.432 9
  20260441.475    20260445.994    -6445798.904 8  -6829468.850 7
  22099155.971    22099162.813   -13428504.503 7 -11869921.792 7
 88  4  1  2 54 29.0800000  0  3G 6G 8G11
  21022582.322    21022586.440    -6905303.810 9  -6992856.448 9
  20258702.857    20258708.272    -6454932.912 8  -6836586.229 7
  22082637.466    22082644.273   -13515313.369 8 -11937565.000 8
 88  4  1  2 54 59.0800000  0  3G 6G 8G11
  21013477.778    21013481.627    -6953155.211 9  -7030143.216 8
  20257097.822    20257101.235    -6463369.073 8  -6843159.831 7
  22066191.544    22066198.236   -13601735.205 8 -12004906.649 9
 88  4  1  2 55 29.0800000  0  3G 6G 8G11
  21004413.643    21004417.853    -7000784.763 9  -7067257.130 8
  20255624.200    20255629.242    -6471107.674 9  -6849189.896 7
  22049820.828    22049826.365   -13687767.865 7 -12071945.025 8
 88  4  1  2 55 59.0800000  0  3G 6G 8G11
  20995391.869    20995396.173    -7048190.731 9  -7104196.809 8
  20254285.777    20254289.065    -6478149.026 8  -6854676.642 7
  22033522.523    22033528.016   -13773409.110 8 -12138678.416 8
 88  4  1  2 56 29.0800000  0  3G 6G 8G11
  20986414.551    20986417.679    -7095370.712 9  -7140960.404 9
  20253077.549    20253083.403    -6484493.676 9  -6859620.491 8
  22017301.300    22017306.257   -13858656.441 9 -12205104.869 7
 88  4  1  2 56 59.0800000  0  3G 6G 8G11
  20977478.793    20977482.015    -7142322.472 8  -7177546.164 8
  20252002.221    20252009.068    -6490141.749 8  -6864021.564 8
  22001153.838    22001160.668   -13943507.709 8 -12271222.686 8
 88  4  1  2 57 29.0800000  0  3G 6G 8G11
  20968588.836    20968593.174    -7189043.831 8  -7213952.392 8
  20251061.975    20251065.819    -6495093.553 8  -6867880.092 8
  21985085.110    21985090.177   -14027960.156 9 -12337029.736 8
 88  4  1  2 57 59.0800000  0  3G 6G 8G11
  20959740.741    20959745.906    -7235532.462 8  -7250177.265 8
  20250249.131    20250255.594    -6499349.478 7  -6871196.369 7
  21969089.463    21969095.023   -14112011.543 8 -12402524.287 7
 88  4  1  2 58 29.0800000  0  3G 6G 8G11
  20950938.453    20950942.402    -7281786.750 9  -7286219.531 9
  20249573.321    20249577.315    -6502910.558 8  -6873971.202 8
  21953171.165    21953178.733   -14195660.154 7 -12467704.983 8
 88  4  1  2 58 59.0800000  0  3G 6G 8G11
  20942181.657    20942187.967    -7327804.333 9  -7322077.372 9
  20249027.429    20249031.906    -6505777.160 8  -6876204.903 9
  21937331.476    21937336.968   -14278903.580 9 -12532569.946 8
 88  4  1  2 59 29.0800000  0  3G 6G 8G11
  20933469.854    20933476.056    -7373583.058 9  -7357749.080 8
  20248613.506    20248617.978    -6507949.433 9  -6877897.560 7
  21921567.145    21921572.368   -14361739.703 8 -12597117.510 8
 88  4  1  2 59 59.0800000  0  3G 6G 8G11
  20924805.845    20924810.673    -7419120.760 8  -7393232.958 8
  20248332.190    20248337.715    -6509427.769 9  -6879049.485 7
  21905881.096    21905886.693   -14444166.285 8 -12661345.971 8
 88  4  1  3  0 29.0800000  0  3G 6G 8G11
  20916186.451    20916189.690    -7464415.105 9  -7428527.223 7
  20248182.643    20248187.423    -6510212.594 8  -6879661.031 8
  21890275.000    21890281.055   -14526180.876 8 -12725253.403 9
 88  4  1  3  0 59.0800000  0  3G 6G 8G11
  20907612.126    20907618.928    -7509463.977 8  -7463630.229 9
  20248164.616    20248171.470    -6510304.338 8  -6879732.479 7
  21874746.191    21874753.476   -14607781.358 8 -12788838.129 9
 88  4  1  3  1 29.0800000  0  3G 6G 8G11
  20899088.157    20899093.569    -7554265.358 9  -7498540.342 8
  20248278.418    20248285.138    -6509704.198 8  -6879264.816 7
  21859297.369    21859305.718   -14688965.721 8 -12852098.622 8
 88  4  1  3  1 59.0800000  0  3G 6G 8G11
  20890610.087    20890615.808    -7598816.758 8  -7533255.698 9
  20248526.464    20248529.797    -6508412.406 7  -6878258.215 7
  21843928.385    21843935.380   -14769731.633 7 -12915033.067 8
 88  4  1  3  2 29.0800000  0  3G 6G 8G11
  20882179.924    20882185.496    -7643116.314 8  -7567774.792 9
  20248902.374    20248907.040    -6506430.180 8  -6876713.589 7
  21828640.062    21828645.783   -14850077.290 8 -12977640.006 8
 88  4  1  3  2 59.0800000  0  3G 6G 8G11
  20873798.847    20873804.162    -7687161.397 8  -7602095.593 8
  20249411.628    20249416.335    -6503757.517 8  -6874630.977 7
  21813431.024    21813434.957   -14929999.967 9 -13039917.377 8
 88  4  1  3  3 29.0800000  0  3G 6G 8G11
  20865466.158    20865470.510    -7730949.770 9  -7636216.380 9
  20250050.816    20250056.347    -6500395.146 8  -6872010.935 8
  21798303.219    21798309.167   -15009498.039 8 -13101863.869 7
 88  4  1  3  3 59.0800000  0  3G 6G 8G11
  20857184.410    20857187.721    -7774479.479 9  -7670135.612 8
  20250821.960    20250826.312    -6496344.276 8  -6868854.380 8
  21783254.820    21783263.178   -15088568.951 8 -13163477.521 8
 88  4  1  3  4 29.0800000  0  3G 6G 8G11
  20848949.235    20848954.802    -7817748.047 9  -7703851.344 8
  20251724.767    20251729.037    -6491605.385 8  -6865161.724 7
  21768290.183    21768297.701   -15167210.719 8 -13224756.783 7
 88  4  1  3  4 59.0800000  0  3G 6G 8G11
  20840766.953    20840771.709    -7860753.927 9  -7737362.376 9
  20252756.262    20252761.855    -6486180.133 8  -6860934.235 7
  21753407.410    21753413.876   -15245421.966 8 -13285700.560 8
 88  4  1  3  5 29.0800000  0  3G 6G 8G11
  20832633.322    20832636.141    -7903494.440 8  -7770666.670 9
  20253920.753    20253923.627    -6480068.630 7  -6856171.999 8
  21738607.121    21738613.883   -15323200.042 8 -13346306.821 7
 88  4  1  3  5 59.0800000  0  3G 6G 8G11
  20824549.711    20824554.654    -7945967.024 9  -7803762.153 8
  20255212.025    20255218.312    -6473271.540 8  -6850875.551 8
  21723889.317    21723894.908   -15400542.739 8 -13406573.820 8
 88  4  1  3  6 29.0800000  0  3G 6G 8G11
  20816519.358    20816523.235    -7988170.021 9  -7836647.580 9
  20256636.711    20256640.309    -6465790.260 8  -6845045.965 7
  21709255.083    21709259.065   -15477448.373 8 -13466500.241 8
 88  4  1  3  6 59.0800000  0  3G 6G 8G11
  20808539.659    20808545.523    -8030101.149 9  -7869321.144 8
  20258189.756    20258195.254    -6457625.412 9  -6838683.722 8
  21694703.859    21694708.489   -15553915.235 9 -13526084.782 8
 88  4  1  3  7 29.0800000  0  3G 6G 8G11
  20800612.694    20800616.789    -8071757.840 9  -7901780.889 8
  20259873.758    20259879.025    -6448778.217 8  -6831789.800 8
  21680236.724    21680241.769   -15629940.873 8 -13585325.503 8
 88  4  1  3  7 59.0800000  0  3G 6G 8G11
  20792737.555    20792744.266    -8113138.167 9  -7934025.283 9
  20261685.348    20261691.405    -6439249.678 8  -6824364.934 8
  21665854.056    21665860.434   -15705523.489 8 -13644221.007 8
 88  4  1  3  8 29.0800000  0  3G 6G 8G11
  20784917.141    20784922.098    -8154239.249 8  -7966052.065 9
  20263629.794    20263634.004    -6429040.333 9  -6816409.585 7
  21651554.357    21651561.597   -15780660.414 8 -13702769.229 8
 88  4  1  3  8 59.0800000  0  3G 6G 8G11
  20777149.242    20777153.091    -8195059.030 9  -7997859.675 9
  20265700.090    20265705.790    -6418151.651 8  -6807924.886 8
  21637340.948    21637346.829   -15855350.556 8 -13760969.269 9
 88  4  1  3  9 29.0800000  0  3G 6G 8G11
  20769436.015    20769439.678    -8235596.171 9  -8029447.033 8
  20267902.860    20267905.994    -6406585.572 7  -6798912.337 7
  21623213.832    21623219.486   -15929592.439 8 -13818820.060 8
 88  4  1  3  9 59.0800000  0  3G 6G 8G11
  20761774.966    20761781.036    -8275848.048 9  -8060812.114 9
  20270232.571    20270236.690    -6394343.080 8  -6789372.705 7
  21609171.416    21609177.300   -16003383.552 8 -13876319.568 8
 88  4  1  3 10 29.0800000  0  3G 6G 8G11
  20754169.922    20754174.355    -8315812.023 9  -8091952.841 9
  20272690.495    20272694.122    -6381424.566 8  -6779306.328 6
  21595214.854    21595222.096   -16076722.145 7 -13933466.487 7
 88  4  1  3 10 59.0800000  0  3G 6G 8G11
  20746621.056    20746625.839    -8355485.832 9  -8122867.481 9
  20275277.502    20275282.209    -6367831.159 8  -6768714.039 7
  21581346.450    21581353.149   -16149605.926 7 -13990258.992 8
 88  4  1  3 11 29.0800000  0  3G 6G 8G11
  20739126.119    20739132.372    -8394866.952 9  -8153554.043 9
  20277991.956    20277997.085    -6353564.085 8  -6757596.819 8
  21567564.564    21567569.553   -16222033.161 8 -14046695.731 8
 88  4  1  3 11 59.0800000  0  3G 6G 8G11
  20731688.510    20731693.976    -8433953.604 8  -8184011.119 8
  20280834.683    20280838.413    -6338625.087 8  -6745956.025 8
  21553868.257    21553874.168   -16294002.093 8 -14102775.399 8
 88  4  1  3 12 29.0800000  0  4G 6G 8G11G 9
  20724307.779    20724311.574    -8472743.436 9  -8214236.943 9
  20283805.773    20283810.284    -6323015.502 8  -6733792.694 7
  21540260.932    21540266.637   -16365510.885 8 -14158496.490 8
                  22888194.169   -30339153.046 9
 88  4  1  3 12 59.0800000  0  4G 6G 8G11G 9
  20716983.718    20716988.374    -8511234.167 9  -8244229.691 8
  20286903.699    20286907.938    -6306736.917 9  -6721108.055 8
  21526741.860    21526746.514   -16436557.995 9 -14213857.840 8
  22871229.329    22871234.812   -30428471.730 8  38557367.139 8
 88  4  1  3 13 29.0800000  0  4G 6G 8G11G 9
  20709716.137    20709719.743    -8549423.665 8  -8273987.713 8
  20290127.388    20290131.133    -6289790.646 9  -6707903.162 9
  21513309.237    21513315.832   -16507141.585 9 -14268857.983 8
  22854241.651    22854245.929   -30517747.417 7  38487801.752 8
 88  4  1  3 13 59.0800000  0  4G 6G 8G11G 9
  20702505.775    20702509.961    -8587309.242 9  -8303508.922 9
  20293479.300    20293484.680    -6272177.661 9  -6694178.743 7
  21499966.843    21499972.868   -16577259.351 9 -14323495.166 8
  22837261.483    22837265.260   -30606978.211 7  38418271.351 8
 88  4  1  3 14 29.0800000  0  4G 6G 8G11G 9
  20695356.100    20695360.048    -8624888.939 9  -8332791.762 8
  20296957.000    20296963.199    -6253899.221 8  -6679935.784 8
  21486712.966    21486717.076   -16646910.039 8 -14377768.401 7
  22820289.910    22820294.738   -30696162.176 9  38348777.415 9
 88  4  1  3 14 59.0800000  0  4G 6G 8G11G 9
  20688262.832    20688266.517    -8662160.755 8  -8361834.701 8
  20300563.157    20300567.214    -6234957.501 9  -6665175.989 8
  21473547.187    21473552.776   -16716092.208 8 -14431676.532 8
  22803327.924    22803333.423   -30785298.093 9  38279320.943 9
 88  4  1  3 15 29.0800000  0  4G 6G 8G11G 9
  20681229.989    20681232.338    -8699122.094 8  -8390635.704 7
  20304292.298    20304297.057    -6215353.641 9  -6649900.229 8
  21460472.227    21460477.341   -16784804.019 8 -14485218.172 7
  22786374.091    22786379.911   -30874383.628 8  38209903.745 8
 88  4  1  3 15 59.0800000  0  4G 6G 8G11G 9
  20674255.862    20674258.015    -8735770.980 9  -8419193.251 7
  20308149.055    20308154.058    -6195089.161 8  -6634109.714 8
  21447486.073    21447491.151   -16853043.793 8 -14538391.998 7
  22769431.820    22769435.890   -30963417.211 8  38140526.988 8
 88  4  1  3 16 29.0800000  0  4G 6G 8G11G 9
  20667340.145    20667345.437    -8772104.731 8  -8447505.227 8
  20312130.751    20312134.560    -6174165.023 9  -6617805.174 8
  21434590.447    21434597.251   -16920809.235 9 -14591196.191 7
  22752498.926    22752504.835   -31052396.526 8  38071192.517 9
 88  4  1  3 16 59.0800000  0  4G 6G 8G11G 9
  20660487.428    20660491.083    -8808121.014 9  -8475569.844 8
  20316238.047    20316243.007    -6152582.851 8  -6600987.884 8
  21421787.011    21421791.594   -16988099.180 8 -14643629.866 9
  22735577.033    22735582.547   -31141319.647 6  38001901.852 8
 88  4  1  3 17 29.0800000  0  4G 6G 8G11G 9
  20653694.893    20653698.029    -8843817.664 9  -8503385.380 8
  20320468.059    20320474.350    -6130344.681 9  -6583659.413 8
  21409071.245    21409078.401   -17054911.819 8 -14695691.631 7
  22718667.270    22718673.185   -31230184.561 7  37932656.539 9
 88  4  1  3 17 59.0800000  0  4G 6G 8G11G 9
  20646962.033    20646967.186    -8879192.346 8  -8530950.048 9
  20324825.888    20324830.734    -6107452.000 8  -6565820.954 7
  21396448.472    21396455.762   -17121245.418 8 -14747380.106 7
  22701768.848    22701774.924   -31318989.270 8  37863458.139 8
 88  4  1  3 18 29.0800000  0  4G 6G 8G11G 9
  20640292.904    20640297.785    -8914243.023 8  -8558262.229 9
  20329307.337    20329310.161    -6083906.945 9  -6547474.130 7
  21383917.717    21383922.996   -17187098.696 7 -14798694.313 7
  22684882.240    22684887.320   -31407732.256 8  37794307.809 7
 88  4  1  3 18 59.0800000  0  4G 6G 8G11G 9
  20633685.012    20633689.050    -8948967.317 8  -8585320.082 8
  20333911.718    20333915.636    -6059711.192 9  -6528620.278 7
  21371476.505    21371484.539   -17252469.844 8 -14849632.803 9
  22668007.602    22668012.157   -31496411.066 8  37725207.485 9
 88  4  1  3 19 29.0800000  0  4G 6G 8G11G 9
  20627141.646    20627142.509    -8983362.313 8  -8612121.374 8
  20338638.475    20338642.596    -6034865.221 9  -6509259.769 7
  21359129.722    21359136.291   -17317356.541 9 -14900193.865 7
  22651144.024    22651148.954   -31585023.444 7  37656158.927 7
 88  4  1  3 19 59.0800000  0  4G 6G 8G11G 9
  20620658.356    20620662.320    -9017426.420 9  -8638664.818 8
  20343489.952    20343493.416    -6009371.844 8  -6489394.792 7
  21346876.492    21346880.997   -17381758.125 8 -14950376.851 8
  22634294.947    22634300.130   -31673567.842 9  37587163.295 8
 88  4  1  3 20 29.0800000  0  4G 6G 8G11G 9
  20614238.603    20614242.542    -9051157.719 8  -8664948.904 8
  20348463.036    20348468.158    -5983232.981 9  -6469026.818 7
  21334713.359    21334719.269   -17445673.369 9 -15000180.893 7
  22617460.596    22617463.802   -31762042.745 9  37518221.887 8
 88  4  1  3 20 59.0800000  0  4G 6G 8G11G 9
  20607883.695    20607887.117    -9084553.702 9  -8690971.727 8
  20353560.195    20353563.329    -5956450.139 8  -6448157.064 7
  21322642.416    21322648.140   -17509100.656 8 -15049604.721 7
  22600636.239    22600641.466   -31850445.754 9  37449336.464 8
 88  4  1  3 21 29.0800000  0  4G 6G 8G11G 9
  20601592.520    20601596.532    -9117611.959 9  -8716731.394 8
  20358779.100    20358781.908    -5929025.082 8  -6426786.865 7
  21310666.549    21310672.056   -17572038.469 8 -15098647.121 8
  22583826.684    22583832.363   -31938774.815 8  37380508.662 8
 88  4  1  3 21 59.0800000  0  4G 6G 8G11G 9
  20595367.276    20595370.742    -9150330.106 9  -8742226.014 8
  20364119.720    20364124.159    -5900959.566 8  -6404917.631 7
  21298783.207    21298788.688   -17634485.036 8 -15147306.740 8
  22567033.777    22567038.658   -32027027.751 9  37311740.172 9
 88  4  1  3 22 29.0800000  0  4G 6G 8G11G 9
  20589207.889    20589208.521    -9182706.013 9  -8767453.974 8
  20369581.722    20369586.113    -5872255.353 9  -6382550.692 9
  21286993.910    21286998.947   -17696439.017 8 -15195582.556 8
  22550254.712    22550258.991   -32115202.641 9  37243032.518 9
 88  4  1  3 22 59.0800000  0  4G 6G 8G11G 9
  20583109.399    20583114.295    -9214737.420 9  -8792413.506 8
  20375165.425    20375170.189    -5842914.587 8  -6359687.751 7
  21275298.881    21275303.598   -17757899.331 8 -15243473.672 8
  22533491.300    22533496.002   -32203297.236 8  37174387.414 7
 88  4  1  3 23 29.0800000  0  4G 6G 8G11G 9
  20577082.413    20577084.713    -9246421.960 8  -8817102.728 8
  20380870.107    20380873.269    -5812939.156 8  -6336330.253 7
  21263696.925    21263701.053   -17818864.210 8 -15290978.736 7
  22516743.494    22516747.409   -32291309.552 9  37105806.433 9
 88  4  1  3 23 59.0800000  0  4G 6G 8G11G 9
  20571117.462    20571123.182    -9277757.476 9  -8841520.002 9
  20386693.206    20386697.527    -5782330.976 8  -6312479.706 8
  21252190.057    21252195.330   -17879332.375 7 -15338096.754 8
  22500010.824    22500015.230   -32379237.363 7  37037291.302 9
 88  4  1  3 24 29.0800000  0  4G 6G 8G11G 9
  20565221.810    20565227.493    -9308741.771 9  -8865663.572 8
  20392638.005    20392643.650    -5751092.095 9  -6288137.706 8
  21240778.151    21240784.331   -17939302.434 8 -15384826.620 8
  22483292.390    22483298.851   -32467078.780 8  36968843.485 8
 88  4  1  3 24 59.0800000  0  4G 6G 8G11G 9
  20559393.322    20559395.884    -9339372.227 8  -8889531.426 8
  20398701.991    20398705.629    -5719223.947 9  -6263305.371 7
  21229461.159    21229466.735   -17998772.394 8 -15431166.811 8
  22466594.989    22466601.665   -32554831.425 7  36900464.877 8
 88  4  1  3 25 29.0800000  0  4G 6G 8G11G 9
  20553633.580    20553637.826    -9369646.918 9  -8913122.078 8
  20404885.530    20404890.499    -5686729.132 8  -6237984.709 7
  21218240.120    21218244.823   -18057741.713 8 -15477116.887 7
  22449914.223    22449918.808   -32642493.183 7  36832157.088 8
 88  4  1  3 25 59.0800000  0  4G 6G 8G11G 9
  20547939.041    20547943.613    -9399563.671 9  -8936433.794 9
  20411187.906    20411192.022    -5653609.122 8  -6212176.893 7
  21207114.403    21207119.401   -18116208.975 8 -15522675.773 8
  22433252.391    22433255.047   -32730062.180 7  36763921.561 8
 88  4  1  3 26 29.0800000  0  4G 6G 8G11G 9
  20542315.338    20542319.508    -9429120.152 9  -8959464.791 8
  20417610.764    20417612.736    -5619866.755 9  -6185884.132 8
  21196082.560    21196089.862   -18174173.069 8 -15567842.558 7
  22416604.134    22416609.240   -32817536.139 7  36695760.123 7
 88  4  1  3 26 59.0800000  0  4G 6G 8G11G 9
  20536759.078    20536763.402    -9458313.936 9  -8982213.183 7
  20424149.622    20424153.186    -5585503.993 8  -6159107.930 8
  21185150.470    21185154.459   -18231632.240 7 -15612615.888 8
  22399976.245    22399982.113   -32904912.827 7  36627674.467 8
 88  4  1  3 27 29.0800000  0  4G 6G 8G11G 9
  20531272.193    20531276.208    -9487143.270 8  -9004677.569 8
  20430806.327    20430809.572    -5550522.916 9  -6131849.926 7
  21174311.033    21174316.397   -18288585.838 8 -15656995.286 7
  22383369.279    22383373.300   -32992190.347 8  36559666.088 8
 88  4  1  3 27 59.0800000  0  4G 6G 8G11G 9
  20525857.771    20525860.060    -9515605.318 8  -9026855.762 8
  20437580.031    20437584.562    -5514925.356 8  -6104111.564 7
  21163568.991    21163575.629   -18345032.473 8 -15700979.653 8
  22366781.114    22366784.606   -33079365.938 8  36491737.148 8
 88  4  1  3 28 29.0800000  0  4G 6G 8G11G 9
  20520510.717    20520515.494    -9543698.145 8  -9048746.251 8
  20444470.234    20444473.584    -5478713.565 8  -6075894.578 8
  21152926.513    21152929.846   -18400970.550 8 -15744567.729 8
  22350209.610    22350215.020   -33166437.617 8  36423889.136 8
 88  4  1  3 28 59.0800000  0  4G 6G 8G11G 9
  20515236.577    20515239.771    -9571419.520 9  -9070347.299 8
  20451476.468    20451481.179    -5441889.937 8  -6047200.806 7
  21142377.491    21142382.457   -18456399.301 8 -15787758.916 7
  22333661.383    22333666.572   -33253403.164 9  36356123.825 8
 88  4  1  3 29 29.0800000  0  4G 6G 8G11G 9
  20510030.795    20510036.036    -9598767.435 8  -9091657.338 9
  20458600.941    20458603.727    -5404457.176 9  -6018032.422 8
  21131926.761    21131933.292   -18511317.611 7 -15830552.379 9
  22317133.566    22317138.435   -33340260.724 8  36288442.670 9
 88  4  1  3 29 59.0800000  0  4G 6G 8G11G 9
  20504899.319    20504903.373    -9625739.415 9  -9112674.420 8
  20465839.117    20465842.399    -5366416.615 8  -5988390.427 7
  21121574.525    21121579.138   -18565724.147 7 -15872947.016 8
  22300625.867    22300630.695   -33427007.934 9  36220847.501 7
 88  4  1  3 30 29.0800000  0  4G 6G 8G11G 9
  20499838.587    20499842.234    -9652332.542 9  -9133396.334 8
  20473194.033    20473198.493    -5327770.333 8  -5958276.435 8
  21111317.553    21111324.677   -18619616.728 8 -15914941.210 8
  22284140.169    22284143.776   -33513641.666 8  36153340.739 8
 88  4  1  3 30 59.0800000  0  4G 6G 8G11G 9
  20494850.705    20494854.612    -9678545.927 8  -9153822.328 8
  20480662.115    20480666.097    -5288521.839 8  -5927693.179 7
  21101159.080    21101166.977   -18672996.192 7 -15956535.569 7
  22267676.205    22267679.840   -33600160.844 8  36085923.280 9
 88  4  1  3 31 29.0800000  0  4G 6G 8G11G 9
  20489933.981    20489938.555    -9704377.234 8  -9173950.610 8
  20488246.013    20488250.013    -5248673.248 9  -5896642.324 8
  21091101.258    21091104.525   -18725861.149 8 -15997729.007 7
  22251233.521    22251238.120   -33686563.167 9  36018596.839 9
 88  4  1  3 31 59.0800000  0  4G 6G 8G11G 9
  20485093.500    20485097.529    -9729823.799 7  -9193779.069 8
  20495941.777    20495945.684    -5208226.460 8  -5865125.342 8
  21081137.887    21081144.271   -18778209.954 8 -16038520.248 7
  22234815.655    22234819.563   -33772845.842 8  35951363.662 9
 88  4  1  3 32 29.0800000  0  4G 6G 8G11G 9
  20480323.194    20480328.451    -9754883.346 9  -9213305.959 9
  20503752.871    20503756.790    -5167183.502 9  -5833143.793 8
  21071276.079    21071279.420   -18830041.631 7 -16078908.530 7
  22218418.567    22218423.861   -33859006.522 8  35884225.541 8
 88  4  1  3 32 59.0800000  0  4G 6G 8G11G 9
  20475629.748    20475632.107    -9779553.994 8  -9232529.801 8
  20511675.855    20511679.749    -5125546.995 8  -5800699.736 7
  21061510.508    21061515.978   -18881355.491 8 -16118893.329 7
  22202046.795    22202051.819   -33945043.130 8  35817184.107 9
 88  4  1  3 33 29.0800000  0  4G 6G 8G11G 9
  20471008.864    20471013.127    -9803833.351 8  -9251448.777 8
  20519710.972    20519715.460    -5083319.284 8  -5767795.018 8
  21051845.146    21051851.489   -18932150.428 9 -16158473.782 8
  22185698.171    22185703.880   -34030953.361 8  35750241.132 9
 88  4  1  3 33 59.0800000  0  4G 6G 8G11G 9
  20466462.751    20466467.800    -9827719.902 9  -9270061.650 8
  20527858.704    20527863.290    -5040503.372 8  -5734431.959 8
  21042277.672    21042283.717   -18982426.250 9 -16197649.700 8
  22169374.883    22169379.163   -34116735.330 8  35683398.113 8
 88  4  1  3 34 29.0800000  0  4G 6G 8G11G 9
  20461992.623    20461997.000    -9851211.503 9  -9288366.768 8
  20536117.049    20536122.196    -4997101.826 9  -5700612.572 8
  21032809.904    21032815.811   -19032181.638 8 -16236420.105 8
  22153075.346    22153078.971   -34202386.901 8  35616656.665 9
 88  4  1  3 34 59.0800000  0  4G 6G 8G11G 9
  20457598.134    20457602.002    -9874305.591 8  -9306362.141 8
  20544488.485    20544492.149    -4953116.851 8  -5666338.551 8
  21023441.070    21023446.453   -19081415.352 7 -16274784.006 8
  22136801.593    22136806.731   -34287905.178 9  35550019.114 9
 88  4  1  3 35 29.0800000  0  4G 6G 8G11G 9
  20453279.244    20453282.607    -9896999.956 8  -9324046.035 8
  20552968.848    20552973.489    -4908550.317 8  -5631611.372 9
  21014171.890    21014176.260   -19130126.504 9 -16312740.722 8
  22120553.593    22120557.783   -34373287.645 9  35483487.411 9
 88  4  1  3 35 59.0800000  0  4G 6G 8G11G 9
  20449037.433    20449042.290    -9919292.093 8  -9341416.502 8
  20561559.658    20561564.569    -4863404.883 8  -5596433.100 8
  21005001.340    21005007.056   -19178313.930 8 -16350289.332 8
  22104333.351    22104337.848   -34458531.766 8  35417063.470 8
 88  4  1  3 36 29.0800000  0  4G 6G 8G11G 9
  20444870.813    20444876.219    -9941180.557 8  -9358472.445 8
  20570258.740    20570264.190    -4817683.592 9  -5560806.115 8
  20995930.314    20995937.067   -19225977.421 8 -16387429.692 8
  22088137.648    22088144.386   -34543635.704 8  35350748.771 8
 88  4  1  3 36 59.0800000  0  4G 6G 8G11G 9
  20440785.132    20440789.139    -9962662.488 8  -9375211.579 8
  20579070.461    20579075.422    -4771388.003 9  -5524731.624 8
  20986960.999    20986966.508   -19273115.493 8 -16424160.620 7
  22071970.074    22071974.804   -34628596.372 9  35284545.678 8
 88  4  1  3 37 29.0800000  0  4G 6G 8G11G 9
  20436774.431    20436778.192    -9983734.832 8  -9391631.575 8
  20587988.804    20587992.514    -4724520.208 8  -5488211.251 8
  20978090.828    20978097.163   -19319726.345 8 -16460480.730 8
  22055830.298    22055836.481   -34713410.418 8  35218456.907 8
 88  4  1  3 37 59.0800000  0  4G 6G 8G11G 9
  20432842.712    20432846.636   -10004396.840 9  -9407731.817 8
  20597013.634    20597019.782    -4677084.152 8  -5451248.083 8
  20969321.749    20969326.057   -19365810.579 8 -16496390.493 7
  22039719.660    22039723.911   -34798076.718 9  35152483.224 8
 88  4  1  3 38 29.0800000  0  4G 6G 8G11G 9
  20428989.690    20428992.646   -10024646.597 8  -9423510.836 9
  20606149.585    20606155.678    -4629082.487 9  -5413844.182 8
  20960653.080    20960658.496   -19411367.640 8 -16531889.472 7
  22023636.044    22023640.150   -34882593.250 8  35086626.215 8
 88  4  1  3 38 59.0800000  0  4G 6G 8G11G 9
  20425215.244    20425217.572   -10044481.810 9  -9438966.831 8
  20615391.508    20615395.111    -4580517.099 8  -5376001.010 8
  20952082.619    20952088.481   -19456396.628 8 -16566976.960 8
  22007580.438    22007584.864   -34966957.482 7  35020887.921 8
 88  4  1  3 39 29.0800000  0  4G 6G 8G11G 9
  20421520.017    20421523.699   -10063900.534 8  -9454098.265 8
  20624740.122    20624742.893    -4531391.125 8  -5337721.026 9
  20943616.076    20943620.353   -19500896.545 8 -16601652.210 8
  21991558.207    21991560.838   -35051166.880 9  34955270.260 8
 88  4  1  3 39 59.0800000  0  4G 6G 8G11G 9
  20417905.756    20417906.974   -10082900.437 8  -9468903.392 9
  20634193.596    20634199.397    -4481706.980 8  -5299006.099 8
  20935247.706    20935254.538   -19544867.175 9 -16635914.987 7
  21975564.126    21975568.010   -35135218.696 9  34889775.396 9
 88  4  1  3 40 29.0800000  0  4G 6G 8G11G 9
  20414369.951    20414372.399   -10101479.495 9  -9483380.544 8
  20643754.552    20643758.538    -4431467.288 8  -5259858.283 7
  20926981.063    20926987.403   -19588307.727 9 -16669764.750 7
  21959597.552    21959602.595   -35219110.750 8  34824405.024 8
 88  4  1  3 40 59.0800000  0  4G 6G 8G11G 9
  20410913.767    20410916.672   -10119635.456 9  -9497528.045 8
  20653418.979    20653424.275    -4380674.445 8  -5220279.426 9
  20918816.770    20918821.264   -19631217.247 8 -16703200.708 8
  21943665.304    21943670.245   -35302840.143 8  34759161.384 7
 88  4  1  3 41 29.0800000  0  4G 6G 8G11G 9
  20407538.873    20407543.741   -10137366.810 9  -9511344.675 8
  20663189.177    20663195.572    -4329332.034 8  -5180272.363 8
  20910751.497    20910754.979   -19673595.739 8 -16736222.855 6
  21927763.404    21927768.068   -35386405.073 8  34694045.879 7
 88  4  1  3 41 59.0800000  0  4G 6G 8G11G 9
  20404246.355    20404250.737   -10154671.506 8  -9524828.834 8
  20673063.928    20673067.856    -4277442.607 8  -5139839.029 7
  20902789.480    20902793.682   -19715442.446 7 -16768830.674 8
  21911893.780    21911897.045   -35469803.190 9  34629060.371 9
 88  4  1  3 42 29.0800000  0  3G 6G11G 9
  20401035.214    20401039.029   -10171546.400 8  -9537978.102 7
  20894927.655    20894931.672   -19756756.151 9 -16801023.136 7
  21896055.236    21896059.910   -35553030.544 8  34564207.950 8
 88  4  1  3 42 59.0800000  0  3G 6G11G 9
  20397906.568    20397908.857   -10187990.340 8  -9550791.549 7
  20887166.727    20887169.664   -19797536.539 9 -16832800.032 7
  21880251.386    21880255.647   -35636085.739 9  34499489.684 8
 88  4  1  3 43 29.0800000  0  4G 6G13G11G 9
  20394858.957    20394862.278   -10204001.118 8  -9563267.449 8
                  23842999.166   -41481159.965 7
  20879508.285    20879513.929   -19837783.170 8 -16864161.007 8
  21864479.579    21864483.594   -35718965.732 9  34434907.884 8
 88  4  1  3 43 59.0800000  0  4G 6G13G11G 9
  20391897.187    20391898.177   -10219576.463 8  -9575404.070 7
  23822026.317    23822034.260   -41591367.299 7  52629999.739 9
  20871951.957    20871954.626   -19877495.082 8 -16895105.341 8
  21848741.004    21848745.478   -35801668.109 8  34370464.502 8
 88  4  1  3 44 29.0800000  0  4G 6G13G11G 9
  20389014.040    20389018.772   -10234714.822 8  -9587200.171 8
  23801095.241    23801102.632   -41701354.546 7  52544295.452 8
  20864494.699    20864500.348   -19916672.581 7 -16925633.219 8
  21833038.528    21833042.384   -35884190.815 8  34306161.191 9
 88  4  1  3 44 59.0800000  0  4G 6G13G11G 9
  20386216.912    20386220.740   -10249414.332 8  -9598654.334 7
  23780208.852    23780214.535   -41811119.236 7  52458764.632 8
  20857143.833    20857147.961   -19955315.306 9 -16955744.415 7
  21817369.582    21817373.459   -35966531.182 8  34241999.912 9
 88  4  1  3 45 29.0800000  0  4G 6G13G11G 9
  20383503.499    20383507.970   -10263672.948 9  -9609764.917 8
  23759364.972    23759370.766   -41920658.852 9  52373409.142 7
  20849890.200    20849896.484   -19993422.432 8 -16985438.233 7
  21801735.878    21801737.938   -36048686.613 9  34177982.716 8
 88  4  1  3 45 59.0800000  0  4G 6G13G11G 9
  20380875.462    20380878.750   -10277488.727 8  -9620530.446 8
  23738562.793    23738568.825   -42029971.315 8  52288230.646 6
  20842742.163    20842745.488   -20030993.841 8 -17014714.657 7
  21786137.661    21786141.633   -36130654.408 8  34114111.736 8
 88  4  1  3 46 29.0800000  0  4G 6G13G11G 9
  20378329.738    20378333.803   -10290859.352 9  -9630949.091 8
  23717803.958    23717811.805   -42139053.828 9  52203231.332 6
  20835693.885    20835698.160   -20068028.804 9 -17043573.023 7
  21770576.421    21770581.122   -36212431.841 8  34050389.130 9
 88  4  1  3 46 59.0800000  0  4G 6G13G11G 9
  20375870.963    20375873.713   -10303782.954 8  -9641019.423 8
  23697091.718    23697097.894   -42247904.506 9  52118412.690 6
  20828749.182    20828752.118   -20104526.934 8 -17072013.113 7
  21755049.944    21755054.074   -36294016.622 9  33986816.626 8
 88  4  1  3 47 29.0800000  0  4G 6G13G11G 9
  20373497.168    20373501.470   -10316257.779 8  -9650740.057 8
  23676422.362    23676428.917   -42356520.633 8  52033776.777 8
  20821905.948    20821909.984   -20140487.887 8 -17100034.616 8
  21739560.706    21739567.308   -36375406.008 8  33923396.370 8
 88  4  1  3 47 59.0800000  0  4G 6G13G11G 9
  20371209.251    20371212.906   -10328281.907 8  -9660109.494 8
  23655797.389    23655805.765   -42464900.150 8  51949325.285 8
  20815164.442    20815168.921   -20175911.506 8 -17127637.411 7
  21724113.044    21724117.647   -36456597.494 8  33860130.333 8
 88  4  1  3 48 29.0800000  0  4G 6G13G11G 9
  20369007.647    20369011.098   -10339853.498 8  -9669126.305 8
  23635219.441    23635226.097   -42573040.467 8  51865060.215 7
  20808526.254    20808530.987   -20210797.720 8 -17154821.442 7
  21708700.381    21708704.797   -36537588.725 9  33797020.314 9
 88  4  1  3 48 59.0800000  0  4G 6G13G11G 9
  20366890.481    20366894.225   -10350971.011 8  -9677789.286 8
  23614687.988    23614693.752   -42680939.782 8  51780982.920 8
  20801989.935    20801995.012   -20245146.364 8 -17181586.592 7
  21693324.971    21693329.020   -36618377.094 9  33734068.402 8
 88  4  1  3 49 29.0800000  0  4G 6G13G11G 9
  20364863.336    20364865.986   -10361631.741 9  -9686096.332 8
  23594200.426    23594207.779   -42788595.401 8  51697095.500 9
  20795555.441    20795559.175   -20278956.738 8 -17207932.314 8
  21677991.407    21677997.318   -36698959.346 8  33671277.090 9
 88  4  1  3 49 59.0800000  0  4G 6G13G11G 9
  20362921.264    20362925.574   -10371834.326 9  -9694046.382 7
  23573758.690    23573767.362   -42896004.460 8  51613400.234 8
  20789224.288    20789228.208   -20312228.718 8 -17233858.516 6
  21662697.604    21662702.223   -36779332.973 9  33608648.308 8
 88  4  1  3 50 29.0800000  0  4G 6G13G11G 9
  20361067.864    20361071.229   -10381576.936 9  -9701638.024 8
  23553369.094    23553376.193   -43003165.057 8  51529898.562 9
  20782993.563    20783000.001   -20344962.646 8 -17259365.450 6
  21647441.202    21647447.444   -36859496.098 8  33546183.593 8
 88  4  1  3 50 59.0800000  0  4G 6G13G11G 9
  20359302.013    20359305.356   -10390857.402 8  -9708869.552 8
  23533025.401    23533031.823   -43110074.927 7  51446592.262 8
  20776867.964    20776873.297   -20377157.727 8 -17284452.501 7
  21632228.866    21632233.385   -36939445.142 9  33483885.716 8
 88  4  1  3 51 29.0800000  0  4G 6G13G11G 9
  20357623.809    20357626.590   -10399674.059 9  -9715739.641 7
  23512730.371    23512735.513   -43216731.334 8  51363483.448 9
  20770844.235    20770849.025   -20408813.834 8 -17309119.571 8
  21617056.441    21617059.403   -37019177.840 9  33421756.357 8
 88  4  1  3 51 59.0800000  0  4G 6G13G11G 9
  20356034.151    20356037.586   -10408025.147 8  -9722246.989 8
  23492482.271    23492487.044   -43323132.513 9  51280573.520 8
  20764922.302    20764929.401   -20439930.831 8 -17333366.550 8
  21601923.592    21601930.615   -37098691.669 8  33359797.560 9
 88  4  1  3 52 29.0800000  0  4G 6G13G11G 9
  20354534.233    20354538.543   -10415908.350 9  -9728389.740 7
  23472283.662    23472289.952   -43429275.562 9  51197864.744 8
  20759104.265    20759109.572   -20470508.488 7 -17357193.287 7
  21586837.887    21586841.686   -37177983.467 8  33298011.832 8
 88  4  1  3 52 59.0800000  0  4G 6G13G11G 9
  20353123.357    20353127.755   -10423322.587 9  -9734167.062 8
  23452134.415    23452140.103   -43535159.702 8  51115357.683 7
  20753387.462    20753393.406   -20500547.096 8 -17380599.969 9
  21571792.526    21571793.214   -37257050.974 9  33236400.807 9
 88  4  1  3 53 29.0800000  0  4G 6G13G11G 9
  20351803.144    20351805.994   -10430265.955 8  -9739577.463 8
  23432034.706    23432040.934   -43640781.719 9  51033054.903 8
  20747774.802    20747780.296   -20530046.751 7 -17403586.683 8
  21556784.877    21556792.097   -37335891.725 7  33174966.467 8
 88  4  1  3 53 59.0800000  0  4G 6G13G11G 9
  20350570.650    20350574.022   -10436736.687 9  -9744619.584 9
  23411985.943    23411991.907   -43746139.620 9  50950957.915 8
  20742264.796    20742268.842   -20559007.280 8 -17426153.318 8
  21541830.864    21541834.303   -37414503.098 8  33113710.929 8
 88  4  1  3 54 29.0800000  0  4G 6G13G11G 9
  20349429.702    20349433.489   -10442733.124 9  -9749292.133 8
  23391987.814    23391993.419   -43851231.179 8  50869068.454 8
  20736854.439    20736860.202   -20587428.591 8 -17448299.764 7
  21526914.702    21526918.337   -37492882.024 9  33052636.461 8
 88  4  1  3 54 59.0800000  0  4G 6G13G11G 9
  20348379.058    20348382.572   -10448253.255 8  -9753593.516 8
  23372041.481    23372046.424   -43956053.624 8  50787388.651 8
  20731549.501    20731554.172   -20615310.390 8 -17470025.816 7
  21512042.221    21512047.296   -37571025.630 8  32991745.390 7
 88  4  1  3 55 29.0800000  0  4G 6G13G11G 9
  20347419.723    20347423.595   -10453295.222 9  -9757522.340 8
  23352145.317    23352150.706   -44060604.876 9  50705920.208 7
  20726346.084    20726351.739   -20642652.933 7 -17491331.680 8
  21497219.303    21497221.619   -37648931.531 9  32931039.522 8
 88  4  1  3 55 59.0800000  0  4G 6G13G11G 9
  20346551.408    20346554.884   -10457857.723 8  -9761077.533 7
  23332301.638    23332308.387   -44164883.382 9  50624664.259 7
  20721246.014    20721249.966   -20669456.651 8 -17512217.660 7
  21482439.393    21482443.158   -37726596.666 9  32870521.253 8
 88  4  1  3 56 29.0800000  0  4G 6G13G11G 9
  20345775.637    20345779.383   -10461939.139 8  -9764257.835 8
  23312508.721    23312516.116   -44268886.677 7  50543622.814 7
  20716246.491    20716252.655   -20695721.204 7 -17532683.520 8
  21467704.427    21467709.923   -37804018.945 8  32810192.296 8
 88  4  1  3 56 59.0800000  0  4G 6G13G11G 9
  20345091.480    20345093.138   -10465537.697 9  -9767061.905 8
  23292770.210    23292777.499   -44372612.221 8  50462797.810 7
  20711352.262    20711357.332   -20721447.143 7 -17552729.693 8
  21453022.163    21453022.672   -37881195.679 9  32750054.587 9
 88  4  1  3 57 29.0800000  0  4G 6G13G11G 9
  20344498.247    20344501.907   -10468651.242 8  -9769488.040 8
  23273086.516    23273092.449   -44476057.507 8  50382191.143 8
  20706559.197    20706564.526   -20746633.899 7 -17572355.720 8
  21438381.094    21438385.336   -37958122.955 8  32690111.252 9
 88  4  1  3 57 59.0800000  0  4G 6G13G11G 9
  20343998.218    20344000.309   -10471278.453 8  -9771535.211 8
  23253455.727    23253460.124   -44579220.805 8  50301804.208 8
  20701867.889    20701873.807   -20771281.877 7 -17591561.894 8
  21423790.092    21423794.001   -38034799.124 8  32630363.699 9
 88  4  1  3 58 29.0800000  0  4G 6G13G11G 9
  20343592.226    20343593.711   -10473417.773 8  -9773202.217 8
  23233878.444    23233883.585   -44682100.134 8  50221638.568 8
  20697280.185    20697285.997   -20795391.577 7 -17610348.658 8
  21409248.326    21409250.557   -38111221.035 9  32570814.182 7
 88  4  1  3 58 59.0800000  0  4G 6G13G11G 9
  20343278.018    20343279.693   -10475067.446 8  -9774487.681 9
  23214355.846    23214361.824   -44784692.880 9  50141696.238 8
  20692795.868    20692799.802   -20818962.935 8 -17628715.917 8
  21394753.492    21394757.721   -38187385.566 9  32511465.197 7
 88  4  1  3 59 29.0800000  0  4G 6G13G11G 9
  20343056.810    20343060.603   -10476226.011 9  -9775390.463 8
  23194886.621    23194893.167   -44886996.678 8  50061979.057 9
  20688412.516    20688417.372   -20841996.250 8 -17646663.935 8
  21380309.817    21380311.851   -38263290.785 8  32452318.364 8
 88  4  1  3 59 59.0800000  0  4G 6G13G11G 9
  20342930.033    20342933.877   -10476891.783 9  -9775909.248 7
  23175475.127    23175481.194   -44989010.099 8  49982488.151 9
  20684131.315    20684136.757   -20864491.573 8 -17664192.742 8
  21365915.611    21365918.953   -38338933.192 9  32393376.246 9
 88  4  1  4  0 29.0800000  0  4G 6G13G11G 9
  20342897.216    20342900.405   -10477062.911 8  -9776042.581 8
  23156117.272    23156123.490   -45090730.059 8  49903225.928 8
  20679952.636    20679956.436   -20886449.017 8 -17681302.425 7
  21351570.248    21351575.014   -38414310.207 8  32334640.944 8
 88  4  1  4  0 59.0800000  0  4G 6G13G11G 9
  20342959.454    20342963.137   -10476738.245 8  -9775789.585 8
  23136817.966    23136822.765   -45192155.024 9  49824193.539 9
  20675877.253    20675880.767   -20907869.278 8 -17697993.508 7
  21337279.421    21337282.993   -38489419.179 8  32276114.519 8
 88  4  1  4  1 29.0800000  0  4G 6G13G11G 9
  20343115.530    20343119.131   -10475916.230 9  -9775149.071 8
  23117572.748    23117579.574   -45293283.228 8  49745392.394 7
  20671902.274    20671909.534   -20928752.335 8 -17714266.011 8
  21323037.949    21323041.187   -38564257.412 8  32217799.010 7
 88  4  1  4  1 59.0800000  0  4G 6G13G11G 9
  20343367.777    20343369.624   -10474595.174 9  -9774119.671 8
  23098385.978    23098390.548   -45394112.406 8  49666824.288 8
  20668032.039    20668035.040   -20949098.619 7 -17730120.237 7
  21308845.346    21308851.168   -38638821.926 8  32159696.885 8
 88  4  1  4  2 29.0800000  0  4G 6G13G11G 9
  20343712.988    20343715.882   -10472773.783 9  -9772700.393 8
  23079256.081    23079261.333   -45494640.568 8  49588490.724 8
  20664261.675    20664267.227   -20968908.615 7 -17745556.574 8
  21294711.507    21294715.572   -38713110.222 9  32101809.877 8
 88  4  1  4  2 59.0800000  0  4G 6G13G11G 9
  20344156.696    20344158.285   -10470450.394 8  -9770889.960 8
  23060182.357    23060188.575   -45594865.400 9  49510393.504 8
  20660593.692    20660599.538   -20988182.868 7 -17760575.439 7
  21280627.009    21280633.479   -38787119.177 8  32044140.591 8
 88  4  1  4  3 29.0800000  0  4G 6G13G11G 9
  20344693.971    20344698.596   -10467623.559 8  -9768687.231 8
  23041169.741    23041176.333   -45694784.701 7  49432534.352 8
  20657027.870    20657032.008   -21006921.392 8 -17775176.882 8
  21266599.512    21266601.401   -38860846.205 8  31986691.047 7
 88  4  1  4  3 59.0800000  0  4G 6G13G11G 9
  20345327.684    20345331.307   -10464291.947 8  -9766091.168 8
  23022213.391    23022220.327   -45794396.503 8  49354914.815 7
  20653563.959    20653569.396   -21025124.896 8 -17789361.421 7
  21252624.216    21252626.945   -38934288.271 9  31929463.435 8
 88  4  1  4  4 29.0800000  0  4G 6G13G11G 9
  20346058.680    20346061.534   -10460454.218 8  -9763100.728 9
  23003318.618    23003324.258   -45893698.656 8  49277536.607 8
  20650202.443    20650207.357   -21042794.038 8 -17803129.552 7
  21238699.055    21238706.741   -39007442.602 6  31872460.114 8
 88  4  1  4  4 59.0800000  0  4G 6G13G11G 9
  20346885.197    20346888.262   -10456108.627 9  -9759714.545 9
  22984480.863    22984485.491   -45992689.241 8  49200401.140 8
  20646941.448    20646944.758   -21059928.426 8 -17816481.012 8
  21224836.168    21224841.012   -39080307.002 8  31815682.720 9
 88  4  1  4  5 29.0800000  0  4G 6G13G11G 9
  20347808.611    20347810.943   -10451253.975 8  -9755931.686 8
  22965702.719    22965708.597   -46091366.536 7  49123509.788 8
  20643783.478    20643786.305   -21076529.182 7 -17829416.644 7
  21211023.905    21211030.765   -39152877.748 7  31759134.081 8
 88  4  1  4  5 59.0800000  0  4G 6G13G11G 9
  20348830.028    20348833.424   -10445888.515 8  -9751750.804 7
  22946985.707    22946990.362   -46189728.151 8  49046864.421 7
  20640723.938    20640728.889   -21092596.192 8 -17841936.368 6
  21197273.380    21197276.884   -39225152.164 9  31702816.425 9
 88  4  1  4  6 29.0800000  0  4G 6G13G11G 9
  20349949.293    20349951.548   -10440011.319 8  -9747171.183 9
  22928329.039    22928335.136   -46287771.701 8  48970466.906 7
  20637769.056    20637773.429   -21108130.499 7 -17854041.023 6
  21183576.487    21183580.904   -39297127.982 8  31646731.382 8
 88  4  1  4  6 59.0800000  0  4G 6G13G11G 9
  20351164.350    20351166.309   -10433621.032 7  -9742191.715 8
  22909731.773    22909736.667   -46385495.762 8  48894318.346 8
  20634914.928    20634919.034   -21123132.810 7 -17865731.118 7
  21169937.854    21169939.868   -39368801.885 8  31590881.643 8
 88  4  1  4  7 29.0800000  0  4G 6G13G11G 9
  20352477.073    20352481.961   -10426716.037 9  -9736811.203 8
  22891196.472    22891202.249   -46482898.063 8  48818420.505 7
  20632159.956    20632164.363   -21137603.364 7 -17877006.848 8
  21156357.512    21156360.273   -39440171.210 8  31535269.175 9
 88  4  1  4  7 59.0800000  0  4G 6G13G11G 9
  20353889.609    20353893.993   -10419295.210 8  -9731028.724 9
  22872723.569    22872728.691   -46579976.886 9  48742774.708 8
  20629506.598    20629512.149   -21151542.952 8 -17887868.851 7
  21142831.417    21142837.648   -39511233.181 9  31479896.250 9
 88  4  1  4  8 29.0800000  0  4G 6G13G11G 9
  20355400.245    20355404.426   -10411357.152 8  -9724843.223 8
  22854310.768    22854317.484   -46676730.159 8  48667382.603 8
  20626955.882    20626959.341   -21164951.943 8 -17898317.414 7
  21129370.016    21129373.597   -39581984.574 8  31424765.337 8
 88  4  1  4  8 59.0800000  0  4G 6G13G11G 9
  20357009.366    20357013.470   -10402900.888 9  -9718253.930 8
  22835960.699    22835968.732   -46773155.715 8  48592245.858 8
  20624504.460    20624509.393   -21177831.454 8 -17908353.374 7
  21115965.023    21115970.228   -39652423.078 8  31369878.174 9
 88  4  1  4  9 29.0800000  0  4G 6G13G11G 9
  20358718.431    20358721.014   -10393924.793 8  -9711259.574 8
  22817675.198    22817680.506   -46869251.536 8  48517366.044 8
  20622155.326    20622158.502   -21190181.767 8 -17917976.971 7
  21102620.931    21102625.474   -39722545.745 9  31315237.198 8
 88  4  1  4  9 59.0800000  0  4G 6G13G11G 9
  20360525.568    20360528.007   -10384428.080 9  -9703859.541 8
  22799452.900    22799458.314   -46965016.510 8  48442744.048 9
  20619905.594    20619908.331   -21202003.853 7 -17927188.986 8
  21089340.501    21089341.892   -39792349.696 9  31260844.526 8
 88  4  1  4 10 29.0800000  0  4G 6G13G11G 9
  20362431.012    20362436.134   -10374409.423 8  -9696052.796 8
  22781291.724    22781298.291   -47060447.748 8  48368382.093 9
  20617756.189    20617760.195   -21213298.015 8 -17935989.615 7
  21076116.346    21076121.222   -39861831.890 9  31206702.532 8
 88  4  1  4 10 59.0800000  0  4G 6G13G11G 9
  20364437.002    20364441.714   -10363867.587 8  -9687838.378 7
  22763196.374    22763201.523   -47155543.989 8  48294281.193 8
  20615706.054    20615711.136   -21224065.384 8 -17944379.752 7
  21062956.015    21062959.910   -39930989.937 8  31152813.203 8
 88  4  1  4 11 29.0800000  0  4G 6G13G11G 9
  20366544.363    20366547.385   -10352801.245 9  -9679215.261 8
  22745163.471    22745169.902   -47250303.334 8  48220442.807 8
  20613758.396    20613760.324   -21234306.586 8 -17952359.888 8
  21049858.041    21049861.517   -39999820.805 8  31099178.758 7
 88  4  1  4 11 59.0800000  0  4G 6G13G11G 9
  20368749.534    20368752.812   -10341209.416 8  -9670182.651 7
  22727195.690    22727202.231   -47344723.743 8  48146868.487 7
  20611909.906    20611913.946   -21244022.479 8 -17959930.705 7
  21036821.854    21036826.097   -40068321.138 9  31045801.876 8
 88  4  1  4 12 29.0800000  0  4G 6G13G11G 9
  20371056.687    20371058.824   -10329090.784 8  -9660739.562 7
  22709293.834    22709298.187   -47438803.625 8  48073559.553 8
  20610159.635    20610164.774   -21253213.436 8 -17967092.484 8
  21023850.925    21023854.735   -40136488.948 9  30992684.128 8
 88  4  1  4 12 59.0800000  0  4G 6G13G11G 9
  20373462.418    20373463.791   -10316444.560 8  -9650885.377 8
  22691455.981    22691460.569   -47532540.410 8  48000517.951 8
  20608511.491    20608514.655   -21261880.424 7 -17973845.963 7
  21010942.083    21010946.189   -40204320.831 8  30939828.156 7
 88  4  1  4 13 29.0800000  0  4G 6G13G11G 9
  20375969.985    20375971.734   -10303269.362 8  -9640618.964 7
  22673684.126    22673690.015   -47625932.751 8  47927744.754 9
  20606960.735    20606966.917   -21270024.347 7 -17980191.861 7
  20998100.225    20998102.929   -40271814.097 8  30887235.998 7
 88  4  1  4 13 59.0800000  0  4G 6G13G11G 9
  20378576.936    20378580.974   -10289563.762 9  -9629939.278 7
  22655977.393    22655984.002   -47718978.138 8  47855241.882 6
  20605510.436    20605515.950   -21277645.607 9 -17986130.509 7
  20985319.459    20985324.976   -40338965.420 7  30834910.311 8
 88  4  1  4 14 29.0800000  0  4G 6G13G11G 9
  20381286.085    20381290.849   -10275326.994 8  -9618845.700 8
  22638337.462    22638343.344   -47811675.470 8  47783010.227 8
  20604159.460    20604163.855   -21284745.393 8 -17991662.792 7
  20972609.494    20972610.865   -40405772.041 9  30782853.257 8
 88  4  1  4 14 59.0800000  0  4G 6G13G11G 9
  20384097.455    20384098.864   -10260558.427 9  -9607337.716 7
  22620765.136    22620770.503   -47904023.174 9  47711051.035 8
  20602908.979    20602911.965   -21291325.201 8 -17996789.898 6
  20959959.635    20959965.567   -40472231.769 8  30731066.444 7
 88  4  1  4 15 29.0800000  0  4G 6G13G11G 9
  20387006.648    20387011.578   -10245256.633 9  -9595414.242 7
  22603258.779    22603263.971   -47996019.363 9  47639365.738 7
  20601754.309    20601758.211   -21297385.322 8 -18001512.055 8
  20947381.455    20947385.504   -40538341.286 7  30679552.607 8
 88  4  1  4 15 59.0800000  0  4G 6G13G11G 9
  20390022.679    20390025.339   -10229421.086 9  -9583074.857 9
  22585820.015    22585826.753   -48087661.729 9  47567956.129 8
  20600699.561    20600702.568   -21302926.947 8 -18005830.185 6
  20934868.161    20934870.973   -40604098.008 7  30628313.597 8
 88  4  1  4 16 29.0800000  0  4G 6G13G11G 9
  20393136.130    20393140.699   -10213050.421 9  -9570318.505 8
  22568448.821    22568453.686   -48178948.773 8  47496823.413 8
  20599744.371    20599745.544   -21307951.060 7 -18009745.072 8
  20922422.134    20922425.760   -40669499.108 8  30577351.736 8
 88  4  1  4 16 59.0800000  0  4G 6G13G11G 9
  20396353.169    20396357.512   -10196143.832 8  -9557144.544 7
  22551145.533    22551149.677   -48269878.489 8  47425969.143 8
  20598885.992    20598890.081   -21312458.496 8 -18013257.339 7
  20910045.887    20910049.771   -40734541.292 8  30526669.546 8
 88  4  1  4 17 29.0800000  0  4G 6G13G11G 9
  20399674.365    20399677.126   -10178700.296 9  -9543552.184 8
  22533909.865    22533913.997   -48360449.562 8  47355394.327 8
  20598126.655    20598129.576   -21316450.259 8 -18016367.800 6
  20897736.069    20897741.172   -40799222.003 8  30476269.028 8
 88  4  1  4 17 59.0800000  0  4G 6G13G11G 9
  20403096.171    20403099.283   -10160719.131 9  -9529540.887 8
  22516743.202    22516748.710   -48450660.318 9  47285100.269 8
  20597464.723    20597468.200   -21319927.374 8 -18019077.218 8
  20885499.146    20885502.401   -40863538.280 9  30426152.462 9
 88  4  1  4 18 29.0800000  0  4G 6G13G11G 9
  20406619.344    20406623.854   -10142199.228 8  -9515109.797 7
  22499645.163    22499649.475   -48540509.305 8  47215088.107 8
  20596900.364    20596902.987   -21322890.823 8 -18021386.378 8
  20873329.291    20873334.752   -40927487.627 9  30376321.845 9
 88  4  1  4 18 59.0800000  0  4G 6G13G11G 9
  20410247.282    20410249.296   -10123139.881 8  -9500258.357 8
  22482616.231    22482622.435   -48629994.444 8  47145359.482 8
  20596434.817    20596439.891   -21325341.689 8 -18023296.146 7
  20861230.479    20861232.495   -40991066.922 8  30326779.547 8
 88  4  1  4 19 29.0800000  0  4G 6G13G11G 9
  20413976.740    20413980.271   -10103539.819 8  -9484985.574 8
  22465657.106    22465663.257   -48719113.832 8  47075915.835 8
  20596066.751    20596068.714   -21327280.843 8 -18024807.143 8
  20849202.117    20849206.236   -41054273.011 8  30277528.051 9
 88  4  1  4 19 59.0800000  0  4G 6G13G11G 9
  20417809.321    20417813.454   -10083398.415 8  -9469290.976 7
  22448767.812    22448773.891   -48807865.802 8  47006758.471 8
  20595793.887    20595799.203   -21328709.283 8 -18025920.218 8
  20837248.198    20837249.585   -41117103.175 9  30228569.538 9
 88  4  1  4 20 29.0800000  0  4G 6G13G11G 9
  20421744.697    20421747.701   -10062715.105 8  -9453174.103 7
  22431948.660    22431954.762   -48896248.858 8  46937888.618 8
  20595620.711    20595624.051   -21329628.208 7 -18026636.253 7
  20825361.487    20825364.431   -41179554.760 8  30179905.954 8
 88  4  1  4 20 59.0800000  0  4G 6G13G11G 9
  20425784.073    20425788.207   -10041488.941 8  -9436634.231 8
  22415201.753    22415207.246   -48984260.938 8  46869307.807 7
  20595540.190    20595544.391   -21330038.621 8 -18026956.039 7
  20813550.412    20813554.828   -41241624.577 8  30131539.902 9
 88  4  1  4 21 29.0800000  0  4G 6G13G11G 9
  20429926.388    20429930.326   -10019719.312 7  -9419670.891 8
  22398524.646    22398530.389   -49071900.962 8  46801016.891 9
  20595559.926    20595563.938   -21329942.298 8 -18026880.965 7
  20801812.295    20801815.010   -41303310.660 9  30083472.858 9
 88  4  1  4 21 59.0800000  0  4G 6G13G11G 9
  20434172.913    20434173.938    -9997405.405 8  -9402283.441 8
  22381917.573    22381922.693   -49159167.215 7  46733017.265 8
  20595675.087    20595678.503   -21329340.099 7 -18026411.707 8
  20790146.936    20790150.662   -41364609.257 8  30035707.732 8
 88  4  1  4 22 29.0800000  0  4G 6G13G11G 9
  20438522.386    20438526.692    -9974546.329 8  -9384471.175 7
  22365384.320    22365387.201   -49246057.796 8  46665310.383 8
  20595883.510    20595886.869   -21328233.327 8 -18025549.266 7
  20778556.725    20778560.251   -41425517.683 8  29988246.643 8
 88  4  1  4 22 59.0800000  0  4G 6G13G11G 9
  20442976.937    20442978.801    -9951141.612 9  -9366233.720 8
  22348920.879    22348926.202   -49332571.246 8  46597897.313 8
  20596189.595    20596195.507   -21326623.065 7 -18024294.522 7
  20767041.404    20767043.650   -41486033.319 7  29941091.612 8
 88  4  1  4 23 29.0800000  0  4G 6G13G11G 9
  20447533.720    20447538.939    -9927190.516 8  -9347570.547 8
  22332529.715    22332535.474   -49418706.157 8  46530779.215 7
  20596592.600    20596597.164   -21324510.334 8 -18022648.214 7
  20755600.406    20755603.842   -41546153.170 8  29894245.001 8
 88  4  1  4 23 59.0800000  0  4G 6G13G11G 9
  20452196.111    20452200.711    -9902692.454 8  -9328481.152 7
  22316211.056    22316215.231   -49504461.402 8  46463956.988 8
  20597089.346    20597093.017   -21321896.470 8 -18020611.444 7
  20744235.111    20744238.492   -41605874.784 9  29847708.713 7
 88  4  1  4 24 29.0800000  0  4G 6G13G11G 9
  20456959.947    20456965.864    -9877646.931 9  -9308965.152 8
  22299965.039    22299969.853   -49589834.971 8  46397432.160 8
  20597683.201    20597687.814   -21318782.987 8 -18018185.333 7
  20732947.102    20732950.336   -41665195.246 8  29801484.973 7
 88  4  1  4 24 59.0800000  0  4G 6G13G11G 9
  20461834.322    20461836.606    -9852052.889 8  -9289021.745 8
  22283791.216    22283797.824   -49674824.988 8  46331206.191 9
  20598368.468    20598373.333   -21315170.440 8 -18015370.358 8
  20721735.290    20721740.842   -41724111.034 7  29755576.580 8
 88  4  1  4 25 29.0800000  0  4G 6G13G11G 9
  20466806.697    20466811.172    -9825909.778 8  -9268650.491 7
  22267692.346    22267697.848   -49759430.055 8  46265280.171 8
  20599151.926    20599155.923   -21311060.276 8 -18012167.624 9
  20710601.910    20710606.452   -41782619.832 8  29709985.341 8
 88  4  1  4 25 59.0800000  0  4G 6G13G11G 9
  20471887.535    20471890.895    -9799217.461 8  -9247851.279 8
  22251666.349    22251671.571   -49843649.068 9  46199655.003 8
  20600027.517    20600032.956   -21306454.079 7 -18008578.353 7
  20699543.545    20699549.654   -41840718.823 7  29664713.423 8
 88  4  1  4 26 29.0800000  0  4G 6G13G11G 9
  20477070.413    20477073.459    -9771975.376 8  -9226623.693 8
  22235713.437    22235718.532   -49927480.302 8  46134331.993 8
  20600998.007    20601002.179   -21301353.436 8 -18004603.818 8
  20688569.205    20688573.413   -41898405.128 7  29619763.059 8
 88  4  1  4 26 59.0800000  0  4G 6G13G11G 9
  20482359.411    20482363.829    -9744183.067 8  -9204967.365 8
  22219836.206    22219838.726   -50010922.975 8  46069311.758 8
  20602063.406    20602067.602   -21295759.505 8 -18000244.897 7
  20677671.015    20677674.780   -41955676.217 8  29575136.256 7
 88  4  1  4 27 29.0800000  0  4G 6G13G11G 9
  20487752.439    20487756.653    -9715839.948 8  -9182881.799 8
  22204029.599    22204035.616   -50093975.270 7  46004595.700 7
  20603220.981    20603224.755   -21289673.712 8 -17995502.710 7
  20666853.039    20666855.174   -42012529.297 8  29530835.165 8
 88  4  1  4 27 59.0800000  0  4G 6G13G11G 9
  20493249.840    20493255.213    -9686945.318 8  -9160366.529 7
  22188299.677    22188306.026   -50176635.026 8  45940185.511 8
  20604473.367    20604477.619   -21283097.075 8 -17990378.036 7
  20656112.507    20656116.032   -42068961.176 8  29486862.295 7
 88  4  1  4 28 29.0800000  0  4G 6G13G11G 9
  20498855.137    20498858.124    -9657499.033 9  -9137421.348 8
  22172644.804    22172651.743   -50258901.132 7  45876082.091 8
  20605817.201    20605822.727   -21276031.507 8 -17984872.385 7
  20645455.205    20645457.341   -42124969.434 8  29443219.508 8
 88  4  1  4 28 59.0800000  0  4G 6G13G11G 9
  20504563.611    20504566.404    -9627500.403 8  -9114045.818 8
  22157065.772    22157071.590   -50340772.283 8  45812286.436 8
  20607255.012    20607259.654   -21268478.050 8 -17978986.574 7
  20634878.370    20634882.227   -42180550.721 9  29399909.417 8
 88  4  1  4 29 29.0800000  0  4G 6G13G11G 9
  20510375.919    20510381.259    -9596949.056 8  -9090239.585 8
  22141561.614    22141567.040   -50422246.892 8  45748799.734 9
  20608785.002    20608787.726   -21260437.987 8 -17972721.571 8
  20624383.640    20624388.273   -42235702.695 8  29356933.897 9
 88  4  1  4 29 59.0800000  0  4G 6G13G11G 9
  20516296.219    20516299.733    -9565844.954 8  -9066002.624 8
  22126133.654    22126139.639   -50503323.890 7  45685622.902 8
  20610407.557    20610412.867   -21251913.315 7 -17966078.959 7
  20613969.468    20613973.091   -42290422.715 9  29314294.919 8
 88  4  1  4 30 29.0800000  0  4G 6G13G11G 9
  20522320.857    20522324.169    -9534187.391 9  -9041334.406 8
  22110782.098    22110785.853   -50584001.856 9  45622756.979 8
  20612122.497    20612126.354   -21242904.785 9 -17959059.323 7
  20603641.050    20603644.722   -42344707.504 8  29271995.093 8
 88  4  1  4 30 59.0800000  0  4G 6G13G11G 9
  20528449.880    20528453.327    -9501976.195 8  -9016234.770 8
  22095505.375    22095509.949   -50664279.741 8  45560202.807 8
  20613927.023    20613930.546   -21233414.072 8 -17951663.936 6
  20593394.727    20593395.964   -42398554.846 8  29230036.144 8
 88  4  1  4 31 29.0800000  0  4G 6G13G11G 9
  20534683.716    20534688.832    -9469211.183 9  -8990703.597 7
  22080305.276    22080310.545   -50744156.151 8  45497961.488 8
  20615825.041    20615828.005   -21223442.820 8 -17943894.115 8
  20583230.683    20583233.324   -42451961.896 9  29188420.277 8
 88  4  1  4 31 59.0800000  0  4G 6G13G11G 9
  20541024.289    20541029.042    -9435892.077 8  -8964740.667 9
  22065180.598    22065186.465   -50823629.421 8  45436034.295 8
  20617813.120    20617816.620   -21212992.875 8 -17935751.309 7
  20573152.355    20573156.408   -42504925.729 8  29147149.797 8
 88  4  1  4 32 29.0800000  0  4G 6G13G11G 9
  20547470.406    20547474.544    -9402018.576 7  -8938345.741 9
  22050136.137    22050140.751   -50902698.572 9  45374421.995 8
  20619892.790    20619897.617   -21202065.666 9 -17927236.582 8
  20563157.818    20563161.205   -42557443.674 8  29106226.694 8
 88  4  1  4 32 59.0800000  0  4G 6G13G11G 9
  20554021.569    20554026.985    -9367590.401 9  -8911518.620 8
  22035165.810    22035170.229   -50981361.978 8  45313125.851 7
  20622062.093    20622067.361   -21190662.269 8 -17918350.803 7
  20553250.056    20553252.556   -42609512.973 9  29065653.233 8
 88  4  1  4 33 29.0800000  0  4G 6G13G11G 9
  20560679.802    20560684.255    -9332607.242 8  -8884259.019 9
  22020273.300    22020278.948   -51059618.544 8  45252146.747 8
  20624323.345    20624327.649   -21178784.400 8 -17909095.306 7
  20543425.999    20543431.173   -42661130.921 8  29025431.492 8
 88  4  1  4 33 59.0800000  0  4G 6G13G11G 9
  20567442.142    20567446.039    -9297069.420 8  -8856567.209 9
  22005460.062    22005464.098   -51137467.012 8  45191485.614 7
  20626672.669    20626677.419   -21166433.900 8 -17899471.533 8
  20533690.711    20533694.908   -42712295.080 9  28985563.316 8
 88  4  1  4 34 29.0800000  0  4G 6G13G11G 9
  20574310.875    20574315.203    -9260976.428 9  -8828442.819 7
  21990723.358    21990728.496   -51214906.414 8  45131143.244 7
  20629113.205    20629116.072   -21153612.139 7 -17889480.527 8
  20524041.979    20524044.640   -42763002.524 8  28946051.038 8
 88  4  1  4 34 59.0800000  0  4G 6G13G11G 9
  20581285.189    20581288.964    -9224327.882 9  -8799885.515 8
  21976065.611    21976070.933   -51291935.381 8  45071120.714 8
  20631641.869    20631648.230   -21140320.556 8 -17879123.472 8
  20514479.442    20514482.868   -42813250.355 8  28906896.913 8
 88  4  1  4 35 29.0800000  0  4G 6G13G11G 9
  20588363.662    20588367.705    -9187123.964 9  -8770895.453 8
  21961484.848    21961491.764   -51368552.220 8  45011419.301 8
  20634259.798    20634265.064   -21126560.906 8 -17868401.642 8
  20505005.698    20505009.044   -42863035.860 8  28868103.031 8
 88  4  1  4 35 59.0800000  0  4G 6G13G11G 9
  20595548.614    20595554.234    -9149364.042 9  -8741472.145 8
  21946984.118    21946990.535   -51444755.937 8  44952039.804 8
  20636968.358    20636971.674   -21112334.164 7 -17857315.846 8
  20495619.190    20495623.234   -42912356.047 8  28829671.736 8
 88  4  1  4 36 29.0800000  0  4G 6G13G11G 9
  20602840.247    20602845.300    -9111048.835 9  -8711616.161 8
  21932562.538    21932566.440   -51520545.891 8  44892982.730 7
  20639764.099    20639769.098   -21097642.797 8 -17845868.035 8
  20486323.881    20486327.375   -42961209.085 8  28791604.432 8
 88  4  1  4 36 59.0800000  0  4G 6G13G11G 9
  20610238.000    20610241.475    -9072178.436 8  -8681327.536 8
  21918219.272    21918223.691   -51595920.864 8  44834249.025 8
  20642646.675    20642651.675   -21082488.501 8 -17834059.474 7
  20477118.397    20477120.345   -43009592.378 8  28753903.190 8
 88  4  1  4 37 29.0800000  0  4G 6G13G11G 9
  20617740.585    20617743.850    -9032752.490 9  -8650606.035 7
  21903954.549    21903959.180   -51670879.707 7  44775839.569 7
  20645618.809    20645623.836   -21066872.761 7 -17821891.366 8
  20467998.402    20468002.803   -43057502.863 7  28716570.372 8
 88  4  1  4 37 59.0800000  0  4G 6G13G11G 9
  20625346.975    20625352.554    -8992770.813 9  -8619451.490 8
  21889769.566    21889775.187   -51745421.291 8  44717755.259 7
  20648678.630    20648682.506   -21050797.153 7 -17809364.894 8
  20458972.029    20458976.660   -43104937.714 8  28679608.141 7
 88  4  1  4 38 29.0800000  0  4G 6G13G11G 9
  20633062.398    20633065.880    -8952233.677 8  -8587864.119 8
  21875663.966    21875670.749   -51819544.646 8  44659996.820 8
  20651824.872    20651828.660   -21034263.781 8 -17796481.746 9
  20450037.592    20450041.619   -43151894.543 7  28643018.424 9
 88  4  1  4 38 59.0800000  0  4G 6G13G11G 9
  20640882.506    20640886.380    -8911141.066 9  -8555843.918 8
  21861639.310    21861644.471   -51893248.572 7  44602565.243 8
  20655056.752    20655061.837   -21017273.963 7 -17783242.925 9
  20441193.117    20441195.981   -43198370.650 7  28606803.291 8
 88  4  1  4 39 29.0800000  0  4G 6G13G11G 9
  20648808.185    20648811.898    -8869493.267 9  -8523391.084 8
  21847693.829    21847698.714   -51966531.640 7  44545461.585 7
  20658377.481    20658382.321   -20999829.571 7 -17769649.878 7
  20432440.139    20432444.532   -43244363.581 9  28570964.665 7
 88  4  1  4 39 59.0800000  0  4G 6G13G11G 9
  20656838.751    20656843.799    -8827290.102 8  -8490505.521 7
  21833830.519    21833834.369   -52039392.991 8  44488686.530 8
  20661783.184    20661786.514   -20981932.036 8 -17755703.732 8
  20423781.050    20423784.727   -43289870.484 9  28535504.744 8
 88  4  1  4 40 29.0800000  0  4G 6G13G11G 9
  20664975.771    20664979.073    -8784531.874 9  -8457187.429 8
  21820045.487    21820048.539   -52111832.051 8  44432240.546 8
  20665275.560    20665277.932   -20963583.258 8 -17741405.979 8
  20415215.947    20415218.430   -43334888.872 8  28500425.501 7
 88  4  1  4 40 59.0800000  0  4G 6G13G11G 9
  20673217.230    20673221.969    -8741218.944 9  -8423437.104 7
  21806341.320    21806345.064   -52183847.258 9  44376124.826 8
  20668852.504    20668855.774   -20944785.286 8 -17726758.185 8
  20406742.251    20406742.924   -43379416.600 7  28465728.596 7
 88  4  1  4 41 29.0800000  0  4G 6G13G11G 9
  20681565.603    20681568.803    -8697350.892 9  -8389254.219 8
  21792717.909    21792723.399   -52255437.400 8  44320340.318 8
  20672515.274    20672519.912   -20925539.406 8 -17711761.394 8
  20398361.572    20398366.174   -43423450.102 8  28431416.763 7
 88  4  1  4 41 59.0800000  0  4G 6G13G11G 9
  20690018.775    20690022.183    -8652928.298 9  -8354639.217 8
  21779176.155    21779180.773   -52326602.165 9  44264887.295 8
  20676260.470    20676265.351   -20905847.669 8 -17696417.195 7
  20390077.176    20390081.524   -43466987.469 8  28397491.551 8
 88  4  1  4 42 29.0800000  0  4G 6G13G11G 9
  20698577.638    20698581.010    -8607951.516 9  -8319592.394 8
  21765713.847    21765719.060   -52397340.308 9  44209766.706 9
  20680091.992    20680096.384   -20885712.212 8 -17680727.213 8
  20381888.290    20381890.801   -43510026.266 8  28363954.862 8
 88  4  1  4 42 59.0800000  0  4G 6G13G11G 9
  20707242.565    20707245.078    -8562420.840 8  -8284113.959 8
  21752333.719    21752338.728   -52467650.867 8  44154979.279 9
  20684008.148    20684012.904   -20865134.651 7 -17664692.732 8
  20373791.972    20373795.654   -43552563.952 9  28330808.617 7
 88  4  1  4 43 29.0800000  0  4G 6G13G11G 9
  20716010.453    20716015.722    -8516336.351 8  -8248203.999 8
  21739036.080    21739040.629   -52537533.130 8  44100525.612 9
  20688008.243    20688012.223   -20844116.658 8 -17648315.079 8
  20365794.871    20365795.785   -43594597.877 9  28298054.926 8
 88  4  1  4 43 59.0800000  0  4G 6G13G11G 9
  20724886.430    20724892.490    -8469698.503 9  -8211862.815 8
  21725818.950    21725823.842   -52606985.830 9  44046406.637 8
  20692091.601    20692095.005   -20822660.163 8 -17631595.723 9
  20357892.775    20357894.557   -43636125.579 8  28265695.690 7
 88  4  1  4 44 29.0800000  0  4G 6G13G11G 9
  20733865.494    20733868.900    -8422507.538 9  -8175090.642 8
  21712685.291    21712690.213   -52676008.169 8  43992623.040 8
  20696257.842    20696261.585   -20800766.933 7 -17614536.046 8
  20350085.042    20350089.790   -43677144.472 8  28233732.937 7
 88  4  1  4 44 59.0800000  0  4G 6G13G11G 9
  20742951.505    20742954.750    -8374763.988 8  -8137887.885 8
  21699631.985    21699637.679   -52744599.899 8  43939174.980 8
  20700506.625    20700510.497   -20778438.964 8 -17597137.642 8
  20342377.120    20342381.154   -43717652.286 8  28202168.403 7
 88  4  1  4 45 29.0800000  0  4G 6G13G11G 9
  20752141.899    20752146.661    -8326467.888 9  -8100254.591 8
  21686661.168    21686667.391   -52812759.546 8  43886063.623 7
  20704838.310    20704842.387   -20755677.957 8 -17579401.774 8
  20334765.612    20334768.963   -43757646.211 8  28171004.311 7
 88  4  1  4 45 59.0800000  0  4G 6G13G11G 9
  20761437.189    20761440.853    -8277619.587 8  -8062190.993 8
  21673774.757    21673778.606   -52880485.918 8  43833289.858 8
  20709251.150    20709254.599   -20732485.387 7 -17561329.630 8
  20327254.930    20327257.943   -43797123.823 8  28140242.576 7
 88  4  1  4 46 29.0800000  0  4G 6G13G11G 9
  20770838.195    20770842.041    -8228219.797 9  -8023697.657 8
  21660967.087    21660974.543   -52947778.883 8  43780853.821 8
  20713745.049    20713751.479   -20708863.771 8 -17542923.177 9
  20319839.841    20319843.940   -43836082.755 8  28109884.962 6
 88  4  1  4 46 59.0800000  0  4G 6G13G11G 9
  20780344.022    20780346.664    -8178268.725 9  -7984774.757 8
  21648246.703    21648251.347   -53014637.034 8  43728756.597 8
  20718320.654    20718327.388   -20684814.757 8 -17524183.673 8
  20312526.886    20312530.735   -43874520.780 8  28079933.261 7
 88  4  1  4 47 29.0800000  0  4G 6G13G11G 9
  20789952.694    20789956.746    -8127767.082 8  -7945422.846 8
  21635607.228    21635610.895   -53081059.912 8  43676998.576 8
  20722977.925    20722984.263   -20660340.522 8 -17505112.824 7
  20305310.486    20305315.106   -43912435.424 8  28050389.391 7
 88  4  1  4 47 59.0800000  0  4G 6G13G11G 9
  20799668.275    20799671.056    -8076715.324 9  -7905642.250 8
  21623050.689    21623054.127   -53147047.071 9  43625580.029 8
  20727716.243    20727721.580   -20635443.051 8 -17485712.198 9
  20298195.500    20298200.464   -43949824.182 9  28021255.317 7
 88  4  1  4 48 29.0800000  0  4G 6G13G11G 9
  20809486.806    20809491.823    -8025113.856 9  -7865433.327 8
  21610574.249    21610579.055   -53212597.916 8  43574501.502 8
  20732536.363    20732540.661   -20610123.806 8 -17465982.911 8
  20291181.656    20291184.516   -43986684.584 8  27992532.930 8
 88  4  1  4 48 59.0800000  0  4G 6G13G11G 9
  20819410.627    20819415.836    -7972963.543 9  -7824796.747 8
  21598184.557    21598189.327   -53277711.073 9  43523764.002 8
  20737432.013    20737439.045   -20584385.110 8 -17445926.778 8
  20284268.175    20284271.994   -44023014.662 9  27964223.781 7
 88  4  1  4 49 29.0800000  0  4G 6G13G11G 9
  20829440.978    20829442.230    -7920264.770 9  -7783732.782 8
  21585876.683    21585881.487   -53342386.035 9  43473367.944 8
  20742411.384    20742415.211   -20558228.680 8 -17425545.138 8
  20277455.599    20277460.210   -44058811.850 7  27936329.874 6
 88  4  1  4 49 59.0800000  0  4G 6G13G11G 9
  20839573.041    20839575.897    -7867017.923 9  -7742241.732 8
  21573653.808    21573658.232   -53406622.383 9  43423313.683 8
  20747465.178    20747471.503   -20531656.554 7 -17404839.587 8
  20270747.208    20270750.326   -44094073.707 8  27908853.092 7
 88  4  1  4 50 29.0800000  0  4G 6G13G11G 9
  20849809.839    20849813.491    -7813223.875 9  -7700324.312 8
  21561513.464    21561518.040   -53470419.580 8  43373601.603 8
  20752600.204    20752607.942   -20504670.535 8 -17383811.522 9
  20264138.725    20264141.484   -44128797.849 8  27881795.346 8
 88  4  1  4 50 59.0800000  0  4G 6G13G11G 9
  20860149.935    20860153.718    -7758883.197 9  -7657980.941 9
  21549456.724    21549461.419   -53533776.596 8  43324232.536 8
  20757816.506    20757821.325   -20477272.850 8 -17362462.663 8
  20257634.216    20257636.792   -44162982.193 8  27855158.204 8
 88  4  1  4 51 29.0800000  0  4G 6G13G11G 9
  20870595.467    20870598.164    -7703996.727 9  -7615212.274 8
  21537482.580    21537488.936   -53596692.866 9  43275206.876 7
  20763106.821    20763112.982   -20449465.679 8 -17340794.740 7
  20251231.115    20251234.355   -44196624.419 7  27828943.484 7
 88  4  1  4 51 59.0800000  0  4G 6G13G11G 9
  20881143.593    20881146.700    -7648564.930 8  -7572018.682 9
  21525596.205    21525599.689   -53659167.643 9  43226525.282 8
  20768476.128    20768481.530   -20421250.440 9 -17318808.839 9
  20244932.845    20244938.123   -44229722.306 7  27803152.916 8
 88  4  1  4 52 29.0800000  0  4G 6G13G11G 9
  20891795.230    20891798.152    -7592588.271 9  -7528400.512 9
  21513790.100    21513795.317   -53721200.489 8  43178188.027 8
  20773924.376    20773928.408   -20392629.277 8 -17296506.623 8
  20238738.968    20238743.685   -44262273.309 8  27777788.516 6
 88  4  1  4 52 59.0800000  0  4G 6G13G11G 9
  20902550.924    20902553.804    -7536067.829 9  -7484358.602 8
  21502071.593    21502075.866   -53782791.044 9  43130195.406 8
  20779445.487    20779451.201   -20363604.797 8 -17273890.137 9
  20232650.228    20232652.529   -44294275.428 7  27752851.799 7
 88  4  1  4 53 29.0800000  0  4G 6G13G11G 9
  20913408.294    20913413.160    -7479004.483 8  -7439893.686 8
  21490434.822    21490440.661   -53843938.508 8  43082548.054 9
  20785045.802    20785049.750   -20334178.517 8 -17250960.555 7
  20226663.362    20226668.246   -44325726.493 8  27728344.494 7
 88  4  1  4 53 59.0800000  0  4G 6G13G11G 9
  20924371.559    20924375.158    -7421397.067 9  -7395004.798 7
  21478883.675    21478887.785   -53904642.053 8  43035246.645 8
  20790721.789    20790726.745   -20304352.583 8 -17227719.559 7
  20220787.153    20220786.987   -44356624.146 8  27704268.414 7
 88  4  1  4 54 29.0800000  0  4G 6G13G11G 9
  20935435.758    20935439.916    -7363250.328 8  -7349695.669 8
  21467416.524    21467420.624   -53964901.103 8  42988291.553 8
  20796473.615    20796477.034   -20274129.197 8 -17204168.881 8
  20215011.018    20215013.612   -44386966.375 8  27680625.128 7
 88  4  1  4 54 59.0800000  0  4G 6G13G11G 9
  20946604.241    20946608.257    -7304562.311 9  -7303964.768 9
  21456034.366    21456038.904   -54024715.533 8  42941682.931 9
  20802299.248    20802303.183   -20243510.023 8 -17180309.770 8
  20209343.222    20209345.867   -44416750.639 9  27657416.607 7
 88  4  1  4 55 29.0800000  0  4G 6G13G11G 9
  20957875.112    20957879.125    -7245334.644 8  -7257813.351 8
  21444734.481    21444740.929   -54084084.453 8  42895421.461 8
  20808200.365    20808204.118   -20212497.195 7 -17156143.906 8
  20203780.655    20203786.156   -44445974.931 8  27634644.445 7
 88  4  1  4 55 59.0800000  0  4G 6G13G11G 9
  20969248.436    20969253.224    -7185568.104 8  -7211242.045 7
  21433523.787    21433527.985   -54143007.840 8  42849507.172 7
  20814177.338    20814181.421   -20181093.137 8 -17131673.222 8
  20198326.389    20198329.424   -44474637.483 7  27612309.979 6
 88  4  1  4 56 29.0800000  0  4G 6G13G11G 9
  20980722.098    20980727.209    -7125263.468 8  -7164251.430 8
  21422394.532    21422400.574   -54201485.034 8  42803940.573 8
  20820227.848    20820231.628   -20149299.829 9 -17106899.213 8
  20192980.258    20192985.227   -44502735.788 7  27590415.208 8
 88  4  1  4 56 59.0800000  0  4G 6G13G11G 9
  20992301.985    20992304.617    -7064422.474 9  -7116842.867 9
  21411351.675    21411357.423   -54259515.887 9  42758721.735 8
  20826350.403    20826354.598   -20117119.331 9 -17081823.473 7
  20187740.640    20187745.366   -44530268.113 8  27568961.462 7
 88  4  1  4 57 29.0800000  0  4G 6G13G11G 9
  21003981.229    21003985.300    -7003044.672 8  -7069016.026 8
  21400396.084    21400400.063   -54317099.822 9  42713851.191 8
  20832548.853    20832552.910   -20084553.477 8 -17056447.479 8
  20182609.259    20182614.090   -44557232.423 7  27547950.306 8
 88  4  1  4 57 59.0800000  0  4G 6G13G11G 9
  21015763.854    21015767.829    -6941131.020 8  -7020771.651 9
  21389521.470    21389527.236   -54374235.896 8  42669329.602 9
  20838818.363    20838822.707   -20051603.802 8 -17030772.416 8
  20177587.164    20177591.815   -44583625.640 8  27527384.174 8
 88  4  1  4 58 29.0800000  0  4G 6G13G11G 9
  21027646.389    21027650.386    -6878683.102 9  -6972110.949 8
  21378734.579    21378739.361   -54430924.716 8  42625156.521 8
  20845160.363    20845165.265   -20018273.788 8 -17004800.952 8
  20172674.240    20172678.516   -44609447.162 8  27507263.528 7
 88  4  1  4 58 59.0800000  0  4G 6G13G11G 9
  21039631.893    21039634.747    -6815703.607 9  -6923036.021 9
  21368032.112    21368036.823   -54487165.507 8  42581332.560 8
  20851575.340    20851578.625   -19984564.998 8 -16978534.346 8
  20167868.814    20167873.997   -44634694.358 8  27487590.373 7
 88  4  1  4 59 29.0800000  0  4G 6G13G11G 9
  21051718.084    21051721.174    -6752191.633 9  -6873546.176 7
  21357415.409    21357420.314   -54542958.036 9  42537857.890 9
  20858060.976    20858065.257   -19950479.787 8 -16951974.445 8
  20163175.243    20163178.616   -44659365.664 7  27468366.004 8
 88  4  1  4 59 59.0800000  0  4G 6G13G11G 9
  21063904.381    21063907.062    -6688148.527 9  -6823642.468 8
  21346883.449    21346888.577   -54598301.758 8  42494732.936 8
  20864619.068    20864622.876   -19916019.804 7 -16925122.510 8
  20158590.541    20158593.429   -44683458.667 7  27449592.233 8
 88  4  1  5  0 29.0800000  0  4G 6G13G11G 9
  21076192.398    21076196.863    -6623575.470 9  -6773325.817 8
  21336437.600    21336442.503   -54653196.260 9  42451958.019 8
  20871247.515    20871251.822   -19881186.900 8 -16897979.978 8
  20154115.111    20154121.008   -44706971.235 8  27431270.746 8
 88  4  1  5  0 59.0800000  0  4G 6G13G11G 9
  21088581.852    21088584.077    -6558473.546 9  -6722597.056 9
  21326076.836    21326081.013   -54707641.366 8  42409533.279 8
  20877946.593    20877950.501   -19845983.857 8 -16870549.024 8
  20149752.709    20149757.937   -44729901.742 8  27413402.828 7
 88  4  1  5  1 29.0800000  0  4G 6G13G11G 9
  21101070.052    21101073.389    -6492843.970 8  -6671457.144 8
  21315802.417    21315806.702   -54761637.067 9  42367458.735 8
  20884715.522    20884718.975   -19810412.904 8 -16842831.399 7
  20145500.277    20145504.979   -44752248.270 7  27395989.956 7
 88  4  1  5  1 59.0800000  0  4G 6G13G11G 9
  21113658.016    21113663.066    -6426688.106 8  -6619907.130 9
  21305612.382    21305616.165   -54815183.024 8  42325734.635 7
  20891552.804    20891558.289   -19774475.994 8 -16814828.611 8
  20141357.858    20141362.526   -44774009.078 8  27379033.491 8
 88  4  1  5  2 29.0800000  0  4G 6G13G11G 9
  21126347.163    21126350.630    -6360006.882 9  -6567947.758 8
  21295509.532    21295512.788   -54868278.882 9  42284361.249 8
  20898461.271    20898465.995   -19738175.154 8 -16786542.234 7
  20137330.422    20137332.412   -44795181.966 7  27362535.141 7
 88  4  1  5  2 59.0800000  0  4G 6G13G11G 9
  21139135.625    21139139.565    -6292801.389 9  -6515579.847 8
  21285491.476    21285496.261   -54920924.672 8  42243338.584 7
  20905436.968    20905441.635   -19701512.397 8 -16757973.886 8
  20133411.432    20133417.772   -44815765.096 7  27346496.351 8
 88  4  1  5  3 29.0800000  0  4G 6G13G11G 9
  21152024.049    21152028.663    -6225072.725 9  -6462804.294 8
  21275558.982    21275562.619   -54973120.112 9  42202666.818 8
  20912482.722    20912488.148   -19664489.633 8 -16729124.961 8
  20129609.196    20129611.478   -44835756.618 7  27330918.560 7
 88  4  1  5  3 59.0800000  0  4G 6G13G11G 9
  21165010.518    21165015.694    -6156822.498 8  -6409622.290 8
  21265711.512    21265717.303   -55024865.010 8  42162346.116 8
  20919597.218    20919600.374   -19627109.687 7 -16699997.737 8
  20125915.877    20125920.395   -44855155.066 7  27315802.880 7
 88  4  1  5  4 29.0800000  0  4G 6G13G11G 9
  21178097.488    21178103.360    -6088051.874 8  -6356034.820 8
  21255950.766    21255955.953   -55076158.878 9  42122376.892 8
  20926776.507    20926781.077   -19589374.340 8 -16670593.576 9
  20122338.357    20122342.785   -44873958.388 7  27301150.924 7
 88  4  1  5  4 59.0800000  0  4G 6G13G11G 9
  21191284.343    21191288.459    -6018762.148 8  -6302042.850 9
  21246276.149    21246278.564   -55127001.474 9  42082759.307 8
  20934025.996    20934029.135   -19551285.871 9 -16640914.234 8
  20118874.339    20118877.701   -44892165.174 7  27286963.851 7
 88  4  1  5  5 29.0800000  0  4G 6G13G11G 9
  21204567.922    21204572.250    -5948954.846 9  -6247647.566 8
  21236685.415    21236691.134   -55177393.376 9  42043492.890 8
  20941339.711    20941344.498   -19512846.707 8 -16610961.637 9
  20115524.943    20115528.408   -44909773.542 7  27273243.026 7
 88  4  1  5  5 59.0800000  0  4G 6G13G11G 9
  21217950.407    21217954.677    -5878630.859 8  -6192849.673 8
  21227180.966    21227187.073   -55227334.169 9  42004578.006 7
  20948719.838    20948725.718   -19474058.375 8 -16580736.964 8
  20112288.339    20112292.509   -44926781.547 7  27259990.044 7
 88  4  1  5  6 29.0800000  0  4G 6G13G11G 9
  21231430.300    21231434.831    -5807791.691 8  -6137650.350 8
  21217763.844    21217769.455   -55276823.657 8  41966014.775 8
  20956167.909    20956173.309   -19434923.605 8 -16550242.337 8
  20109165.506    20109168.309   -44943187.587 8  27247206.105 7
 88  4  1  5  6 59.0800000  0  4G 6G13G11G 9
  21245008.104    21245012.471    -5736438.720 9  -6082050.656 8
  21208433.771    21208438.285   -55325861.904 8  41927803.182 8
  20963681.117    20963686.022   -19395444.609 8 -16519479.474 8
  20106158.602    20106160.193   -44958990.101 7  27234892.471 7
 88  4  1  5  7 29.0800000  0  4G 6G13G11G 9
  21258685.572    21258688.024    -5664573.396 8  -6026051.723 8
  21199186.204    21199192.264   -55374448.602 8  41889943.428 9
  20971258.836    20971262.161   -19355623.248 9 -16488449.846 8
  20103266.518    20103271.390   -44974187.335 6  27223050.469 7
 88  4  1  5  7 59.0800000  0  4G 6G13G11G 9
  21272456.491    21272462.244    -5592197.201 8  -5969654.697 8
  21190028.473    21190033.213   -55422583.809 7  41852435.505 8
  20978900.717    20978904.538   -19315461.993 8 -16457155.359 8
  20100489.107    20100492.863   -44988777.722 7  27211681.355 7
 88  4  1  5  8 29.0800000  0  4G 6G13G11G 9
  21286327.285    21286330.337    -5519311.285 8  -5912860.480 8
  21180953.468    21180958.291   -55470267.545 7  41815279.365 8
  20986606.738    20986612.579   -19274962.933 9 -16425597.644 8
  20097828.871    20097830.808   -45002759.406 8  27200786.533 7
 88  4  1  5  8 59.0800000  0  4G 6G13G11G 9
  21300292.447    21300297.548    -5445917.167 9  -5855670.291 8
  21171967.078    21171971.114   -55517499.648 8  41778475.136 9
  20994378.284    20994382.911   -19234128.009 8 -16393778.213 8
  20095283.146    20095288.575   -45016131.105 8  27190367.030 8
 88  4  1  5  9 29.0800000  0  4G 6G13G11G 9
  21314355.823    21314360.278    -5372016.714 9  -5798085.524 8
  21163063.412    21163068.224   -55564280.277 8  41742022.714 8
  21002212.447    21002217.713   -19192959.876 8 -16361699.147 7
  20092857.622    20092860.057   -45028891.369 8  27180423.968 6
 88  4  1  5  9 59.0800000  0  4G 6G13G11G 9
  21328515.730    21328518.124    -5297611.066 9  -5740107.128 8
  21154246.188    21154251.531   -55610609.458 7  41705922.072 8
  21010108.363    21010114.844   -19151460.555 8 -16329362.008 8
  20090544.933    20090548.408   -45041038.622 7  27170958.557 6
 88  4  1  5 10 29.0800000  0  4G 6G13G11G 9
  21342769.553    21342772.001    -5222701.868 9  -5681736.320 7
  21145517.382    21145522.412   -55656487.727 8  41670172.787 8
  21018070.713    21018075.958   -19109632.309 9 -16296768.574 8
  20088352.067    20088354.022   -45052571.294 7  27161972.073 7
 88  4  1  5 10 59.0800000  0  4G 6G13G11G 9
  21357119.396    21357124.060    -5147290.691 8  -5622974.388 8
  21136871.832    21136877.739   -55701915.127 8  41634774.839 8
  21026090.855    21026095.030   -19067477.467 8 -16263920.631 8
  20086273.089    20086275.880   -45063487.997 8  27153465.585 8
 88  4  1  5 11 29.0800000  0  4G 6G13G11G 9
  21371566.725    21371568.862    -5071379.124 8  -5563822.533 8
  21128314.978    21128317.773   -55746891.231 9  41599728.534 9
  21034174.399    21034179.266   -19024997.939 8 -16230819.685 8
  20084312.846    20084316.597   -45073787.286 8  27145440.137 6
 88  4  1  5 11 59.0800000  0  4G 6G13G11G 9
  21386106.215    21386109.748    -4994968.717 8  -5504281.994 7
  21119841.375    21119845.256   -55791416.142 8  41565033.821 8
  21042319.877    21042323.901   -18982196.026 8 -16197467.556 9
  20082469.774    20082475.332   -45083467.916 7  27137896.791 7
 88  4  1  5 12 29.0800000  0  4G 6G13G11G 9
  21400741.726    21400745.206    -4918061.120 8  -5444354.009 8
  21111453.322    21111459.550   -55835490.397 8  41530690.244 9
  21050526.795    21050530.083   -18939074.066 8 -16163866.013 9
  20080747.397    20080749.645   -45092528.220 7  27130836.814 7
 88  4  1  5 12 59.0800000  0  4G 6G13G11G 9
  21415469.777    21415473.805    -4840657.888 8  -5384039.826 8
  21103153.133    21103157.150   -55879113.529 8  41496698.203 8
  21058791.023    21058797.564   -18895634.410 9 -16130016.925 8
  20079142.158    20079145.175   -45100966.976 7  27124261.154 6
 88  4  1  5 13 29.0800000  0  4G 6G13G11G 9
  21430293.971    21430297.236    -4762760.758 8  -5323340.791 8
  21094937.086    21094941.864   -55922286.619 8  41463056.867 9
  21067116.243    21067122.982   -18851879.302 8 -16095922.054 8
  20077654.330    20077657.346   -45108783.044 6  27118170.723 7
 88  4  1  5 13 59.0800000  0  4G 6G13G11G 9
  21445210.149    21445214.385    -4684371.358 9  -5262258.147 8
  21086807.755    21086812.624   -55965009.091 9  41429766.637 8
  21075503.491    21075508.948   -18807810.426 9 -16061582.647 8
  20076284.613    20076287.825   -45115974.572 8  27112566.918 6
 88  4  1  5 14 29.0800000  0  4G 6G13G11G 9
  21460220.968    21460225.378    -4605491.180 8  -5200793.096 8
  21078762.841    21078767.560   -56007281.827 9  41396826.853 8
  21083949.669    21083954.108   -18763430.336 8 -16027000.752 8
  20075036.207    20075039.938   -45122540.479 8  27107450.621 7
 88  4  1  5 14 59.0800000  0  4G 6G13G11G 9
  21475324.604    21475328.550    -4526122.265 8  -5138947.214 8
  21070804.251    21070808.300   -56049104.384 8  41364237.873 7
  21092454.120    21092457.168   -18718741.442 9 -15992178.226 9
  20073906.217    20073909.468   -45128479.713 8  27102822.635 7
 88  4  1  5 15 29.0800000  0  4G 6G13G11G 9
  21490521.046    21490524.663    -4446265.964 9  -5076721.539 8
  21062930.424    21062935.949   -56090477.294 9  41331999.265 8
  21101015.647    21101019.662   -18673745.476 9 -15957116.443 9
  20072895.407    20072897.620   -45133791.028 7  27098683.956 6
 88  4  1  5 15 59.0800000  0  4G 6G13G11G 9
  21505808.948    21505813.843    -4365924.326 8  -5014117.689 9
  21055144.611    21055148.571   -56131400.923 9  41300110.738 9
  21109634.326    21109640.905   -18628445.148 8 -15921817.472 8
  20072002.864    20072007.152   -45138472.887 7  27095035.762 6
 88  4  1  5 16 29.0800000  0  4G 6G13G11G 9
  21521189.396    21521193.325    -4285098.903 8  -4951136.854 8
  21047441.676    21047446.279   -56171875.512 8  41268572.120 7
  21118313.463    21118318.984   -18582842.525 8 -15886282.971 8
  20071232.321    20071235.849   -45142524.386 7  27091878.737 6
 88  4  1  5 16 59.0800000  0  4G 6G13G11G 9
  21536662.471    21536666.345    -4203791.227 8  -4887780.260 9
  21039826.478    21039830.482   -56211900.929 8  41237383.498 8
  21127048.739    21127053.106   -18536939.542 8 -15850514.405 8
  20070580.157    20070584.551   -45145943.945 7  27089214.139 7
 88  4  1  5 17 29.0800000  0  4G 6G13G11G 9
  21552226.072    21552229.738    -4122003.630 9  -4824049.668 8
  21032294.986    21032297.881   -56251478.126 8  41206544.148 8
  21135840.908    21135844.968   -18490738.896 8 -15814513.898 7
  20070053.325    20070055.333   -45148730.820 8  27087042.539 8
 88  4  1  5 17 59.0800000  0  4G 6G13G11G 9
  21567880.749    21567885.348    -4039737.807 8  -4759946.448 8
  21024848.594    21024852.496   -56290607.214 8  41176053.970 7
  21144687.601    21144692.591   -18444242.712 8 -15778283.120 7
  20069642.695    20069646.810   -45150883.944 8  27085364.782 7
 88  4  1  5 18 29.0800000  0  4G 6G13G11G 9
  21583625.147    21583629.032    -3956995.522 8  -4695471.976 8
  21017488.274    21017491.552   -56329288.422 9  41145912.771 7
  21153593.128    21153597.519   -18397453.172 9 -15741823.724 8
  20069353.334    20069356.726   -45152402.256 7  27084181.675 7
 88  4  1  5 18 59.0800000  0  4G 6G13G11G 9
  21599460.900    21599464.484    -3873778.898 9  -4630627.874 8
  21010210.907    21010216.110   -56367522.302 9  41116120.161 7
  21162551.655    21162555.823   -18350372.678 9 -15705137.621 8
  20069185.303    20069188.853   -45153284.827 8  27083493.951 7
 88  4  1  5 19 29.0800000  0  4G 6G13G11G 9
  21615386.413    21615390.569    -3790089.167 8  -4565415.116 8
  21003021.294    21003025.251   -56405308.839 9  41086676.146 7
  21171565.685    21171569.201   -18303003.114 8 -15668226.291 8
  20069138.555    20069142.223   -45153530.070 8  27083302.860 7
 88  4  1  5 19 59.0800000  0  4G 6G13G11G 9
  21631402.035    21631406.795    -3705928.292 8  -4499835.263 8
  20995915.695    20995919.585   -56442648.681 8  41057580.174 8
  21180635.234    21180638.954   -18255346.643 9 -15631091.370 8
  20069212.270    20069216.967   -45153137.078 8  27083609.076 7
 88  4  1  5 20 29.0800000  0  4G 6G13G11G 9
  21647506.675    21647511.190    -3621298.771 9  -4433890.170 8
  20988893.749    20988899.950   -56479542.135 8  41028832.048 7
  21189757.030    21189762.341   -18207405.691 8 -15593734.769 8
  20069409.894    20069412.689   -45152105.350 7  27084413.008 5
 88  4  1  5 20 59.0800000  0  4G 6G13G11G 9
  21663699.350    21663704.289    -3536202.175 9  -4367581.148 8
  20981959.353    20981963.104   -56515989.695 8  41000431.372 8
  21198934.007    21198937.401   -18159182.617 9 -15556158.361 8
  20069728.580    20069733.834   -45150433.713 8  27085715.599 6
 88  4  1  5 21 29.0800000  0  4G 6G13G11G 9
  21679982.366    21679986.612    -3450640.672 9  -4300909.884 8
  20975108.285    20975111.933   -56551991.779 7  40972377.816 9
  21208162.829    21208167.906   -18110679.748 8 -15518363.895 9
  20070167.167    20070170.029   -45148121.367 7  27087517.391 6
 88  4  1  5 21 59.0800000  0  4G 6G13G11G 9
  21696352.104    21696356.296    -3364616.227 9  -4233877.856 8
  20968341.674    20968346.448   -56587549.362 8  40944670.614 8
  21217446.221    21217452.760   -18061899.207 8 -15480353.108 9
  20070729.840    20070732.902   -45145167.601 7  27089819.046 6
 88  4  1  5 22 29.0800000  0  4G 6G13G11G 9
  21712809.354    21712813.208    -3278130.421 7  -4166486.322 8
  20961660.958    20961663.918   -56622662.388 9  40917309.856 8
  21226781.361    21226785.765   -18012843.123 8 -15442127.565 8
  20071414.318    20071417.485   -45141571.062 8  27092621.532 6
 88  4  1  5 22 59.0800000  0  4G 6G13G11G 9
  21729354.373    21729357.651    -3191185.403 8  -4098737.006 9
  20955063.339    20955067.062   -56657331.405 9  40890295.049 8
  21236167.138    21236173.185   -17963513.576 8 -15403688.968 8
  20072220.998    20072223.195   -45137331.221 8  27095925.327 7
 88  4  1  5 23 29.0800000  0  4G 6G13G11G 9
  21745987.754    21745991.343    -3103783.306 8  -4030631.491 8
  20948549.474    20948554.243   -56691556.839 9  40863625.895 8
  21245608.961    21245612.009   -17913913.142 9 -15365039.281 8
  20073151.047    20073154.459   -45132447.020 7  27099731.167 7
 88  4  1  5 23 59.0800000  0  4G 6G13G11G 9
  21762704.425    21762709.593    -3015926.214 9  -3962171.444 7
  20942120.705    20942124.985   -56725339.448 8  40837301.805 7
  21255095.081    21255101.159   -17864043.639 8 -15326179.923 9
  20074203.056    20074204.888   -45126918.178 8  27104039.358 6
 88  4  1  5 24 29.0800000  0  4G 6G13G11G 9
  21779509.851    21779514.926    -2927616.083 7  -3893358.376 8
  20935776.703    20935781.275   -56758679.203 9  40811322.812 7
  21264638.522    21264641.198   -17813907.413 9 -15287112.745 8
  20075378.027    20075379.094   -45120743.512 7  27108850.772 7
 88  4  1  5 24 59.0800000  0  4G 6G13G11G 9
  21796401.556    21796404.981    -2838854.837 9  -3824193.781 8
  20929517.646    20929521.989   -56791577.166 8  40785688.020 8
  21274229.642    21274233.479   -17763506.746 9 -15247839.479 9
  20076676.523    20076680.011   -45113922.363 7  27114165.965 6
 88  4  1  5 25 29.0800000  0  4G 6G13G11G 9
  21813378.168    21813381.807    -2749644.553 7  -3754679.323 8
  20923339.941    20923345.814   -56824033.939 8  40760397.066 7
  21283869.401    21283873.817   -17712843.911 8 -15208361.979 8
  20078097.961    20078100.690   -45106453.924 7  27119985.515 7
 88  4  1  5 25 59.0800000  0  4G 6G13G11G 9
  21830439.097    21830443.867    -2659987.698 9  -3684816.861 8
  20917247.830    20917253.319   -56856050.064 9  40735449.451 8
  21293560.411    21293563.117   -17661921.316 8 -15168682.001 7
  20079641.711    20079644.633   -45098338.220 7  27126309.412 6
 88  4  1  5 26 29.0800000  0  4G 6G13G11G 9
  21847584.416    21847588.614    -2569886.113 8  -3614607.851 8
  20911239.008    20911243.420   -56887626.125 7  40710844.760 9
  21303296.998    21303303.256   -17610740.556 9 -15128800.898 9
  20081310.017    20081313.102   -45089574.022 8  27133138.671 7
 88  4  1  5 26 59.0800000  0  4G 6G13G11G 9
  21864814.601    21864817.997    -2479342.126 8  -3544054.119 8
  20905313.724    20905317.855   -56918763.157 8  40686582.166 8
  21313088.464    21313092.146   -17559304.605 9 -15088720.952 9
  20083101.115    20083103.644   -45080160.890 8  27140473.575 6
 88  4  1  5 27 29.0800000  0  4G 6G13G11G 9
  21882128.572    21882132.431    -2388357.704 9  -3473157.195 9
  20899473.091    20899476.471   -56949461.418 8  40662661.448 8
  21322923.297    21322927.392   -17507615.165 8 -15048443.437 8
  20085015.177    20085017.264   -45070098.410 8  27148314.464 7
 88  4  1  5 27 59.0800000  0  4G 6G13G11G 9
  21899524.956    21899530.540    -2296934.861 8  -3401918.645 8
  20893714.357    20893717.635   -56979721.214 9  40639082.407 7
  21332806.479    21332812.282   -17455674.461 8 -15007970.208 8
  20087055.923    20087057.078   -45059385.517 7  27156662.165 6
 88  4  1  5 28 29.0800000  0  4G 6G13G11G 9
  21917006.889    21917009.799    -2205076.092 9  -3330340.400 8
  20888038.428    20888043.435   -57009544.154 8  40615843.779 8
  21342739.331    21342743.428   -17403484.920 9 -14967303.020 9
  20089216.053    20089216.602   -45048022.367 8  27165516.561 6
 88  4  1  5 28 59.0800000  0  4G 6G13G11G 9
  21934568.683    21934572.578    -2112783.268 8  -3258423.938 9
  20882447.286    20882452.617   -57038929.936 8  40592945.769 8
  21352715.769    21352720.304   -17351048.595 7 -14926443.538 7
  20091502.768    20091505.105   -45036008.111 8  27174878.314 6
 88  4  1  5 29 29.0800000  0  4G 6G13G11G 9
  21952213.184    21952217.697    -2020058.846 8  -3186171.163 9
  20876937.709    20876941.826   -57067879.842 8  40570387.415 7
  21362741.258    21362745.281   -17298367.813 8 -14885393.579 9
  20093913.329    20093915.792   -45023342.396 6  27184747.706 7
 88  4  1  5 29 59.0800000  0  4G 6G13G11G 9
  21969939.779    21969943.543    -1926905.374 9  -3113584.049 9
  20871510.238    20871515.192   -57096394.499 8  40548168.227 7
  21372810.327    21372819.273   -17245444.842 8 -14844154.905 9
  20096448.625    20096450.260   -45010025.087 9  27195124.802 6
 88  4  1  5 30 29.0800000  0  4G 6G13G11G 9
  21987746.612    21987752.678    -1833324.318 9  -3040663.773 8
  20866168.541    20866173.297   -57124474.050 9  40526288.083 8
  21382927.047    21382934.694   -17192281.205 8 -14802728.724 8
  20099105.701    20099109.166   -44996055.031 8  27206010.555 7
 88  4  1  5 30 59.0800000  0  4G 6G13G11G 9
  22005635.163    22005639.512    -1739318.390 7  -2967412.423 8
  20860907.308    20860912.220   -57152120.232 8  40504745.604 8
  21393091.839    21393093.994   -17138879.690 9 -14761117.127 7
  20101888.425    20101891.457   -44981432.589 7  27217404.672 7
 88  4  1  5 31 29.0800000  0  4G 6G13G11G 9
  22023604.579    22023609.155    -1644890.202 8  -2893832.030 8
  20855727.615    20855733.363   -57179334.275 9  40483539.886 8
  21403294.871    21403302.999   -17085242.594 9 -14719321.975 9
  20104795.349    20104796.226   -44966157.516 8  27229307.321 5
 88  4  1  5 31 59.0800000  0  4G 6G13G11G 9
  22041655.357    22041657.964    -1550041.652 7  -2819924.109 9
  20850633.175    20850635.567   -57206116.310 9  40462670.788 8
  21413549.291    21413554.035   -17031371.925 9 -14677344.864 8
  20107827.068    20107828.508   -44950229.124 8  27241719.030 7
 88  4  1  5 32 29.0800000  0  4G 6G13G11G 9
  22059784.090    22059786.971    -1454775.320 9  -2745690.618 8
  20845618.526    20845623.794   -57232466.704 9  40442138.020 8
  21423844.738    21423846.715   -16977269.992 8 -14635187.486 8
  20110981.558    20110984.449   -44933647.435 7  27254639.858 7
 88  4  1  5 32 59.0800000  0  4G 6G13G11G 9
  22077991.054    22077995.344    -1359093.197 9  -2671133.138 8
  20840685.953    20840689.813   -57258387.075 9  40421940.334 8
  21434182.706    21434187.421   -16922938.922 8 -14592851.574 8
  20114260.875    20114263.946   -44916411.802 9  27268070.193 6
 88  4  1  5 33 29.0800000  0  4G 6G13G11G 9
  22096276.928    22096281.674    -1262997.649 9  -2596253.519 8
  20835834.948    20835839.931   -57283876.919 8  40402078.134 7
  21444565.381    21444569.594   -16868380.820 8 -14550338.792 8
  20117665.579    20117668.631   -44898522.421 8  27282009.956 6
 88  4  1  5 33 59.0800000  0  4G 6G13G11G 9
  22114641.421    22114645.580    -1166491.115 9  -2521053.650 9
  20831066.411    20831069.596   -57308937.444 9  40382550.475 8
  21454989.788    21454994.246   -16813597.890 9 -14507650.777 8
  20121194.279    20121199.387   -44879978.961 7  27296459.405 5
 88  4  1  5 34 29.0800000  0  4G 6G13G11G 9
  22133085.118    22133088.044    -1069575.735 8  -2445535.188 9
  20826378.269    20826381.993   -57333569.918 9  40363356.363 8
  21465455.354    21465460.766   -16758592.040 9 -14464789.074 8
  20124847.935    20124849.785   -44860781.061 8  27311418.806 6
 88  4  1  5 34 59.0800000  0  4G 6G13G11G 9
  22151603.444    22151608.235     -972253.960 8  -2369700.062 8
  20821772.571    20821777.798   -57357775.291 8  40344495.034 8
  21475965.702    21475971.628   -16703365.264 8 -14421755.228 9
  20128624.292    20128627.614   -44840928.694 8  27326888.142 6
 88  4  1  5 35 29.0800000  0  4G 6G13G11G 9
  22170199.362    22170205.348     -874528.471 8  -2293550.351 8
  20817248.363    20817250.573   -57381554.584 7  40325965.738 8
  21486517.301    21486522.372   -16647920.336 9 -14378551.390 8
  20132527.575    20132530.631   -44820422.175 8  27342867.265 7
 88  4  1  5 35 59.0800000  0  4G 6G13G11G 9
  22188873.041    22188877.862     -776401.184 9  -2217087.547 8
  20812802.665    20812807.316   -57404908.558 8  40307767.857 6
  21497109.721    21497113.500   -16592258.742 9 -14335178.694 9
  20136555.641    20136558.721   -44799260.816 7  27359356.630 7
 88  4  1  5 36 29.0800000  0  4G 6G13G11G 9
  22207622.141    22207626.441     -677874.855 8  -2140313.806 9
  20808440.236    20808443.970   -57427838.322 8  40289900.518 8
  21507740.586    21507747.254   -16536383.098 8 -14291639.230 8
  20140705.166    20140709.360   -44777444.919 8  27376356.019 6
 88  4  1  5 36 59.0800000  0  4G 6G13G11G 9
  22226449.076    22226451.830     -578951.990 8  -2063231.068 8
  20804157.144    20804160.704   -57450344.223 9  40272363.467 7
  21518415.061    21518420.764   -16480295.634 9 -14247934.754 9
  20144982.401    20144984.499   -44754974.711 8  27393865.267 6
 88  4  1  5 37 29.0800000  0  4G 6G13G11G 9
  22245346.405    22245350.675     -479634.715 8  -1985841.017 8
  20799954.579    20799959.136   -57472427.141 8  40255156.021 8
  21529129.423    21529132.536   -16423998.044 8 -14204066.471 9
  20149382.518    20149384.873   -44731849.697 8  27411884.747 7
 88  4  1  5 37 59.0800000  0  4G 6G13G11G 9
  22264319.694    22264324.619     -379925.760 8  -1908145.756 8
  20795832.846    20795836.330   -57494088.896 9  40238276.735 7
  21539879.810    21539885.376   -16367492.882 8 -14160036.470 8
  20153908.112    20153909.306   -44708070.383 7  27430414.070 7
 88  4  1  5 38 29.0800000  0  4G 6G13G11G 9
  22283368.708    22283372.484     -279827.527 9  -1830147.175 8
  20791790.504    20791794.219   -57515330.070 7  40221725.188 7
  21550673.418    21550677.257   -16310782.432 9 -14115846.527 9
  20158556.345    20158559.882   -44683636.970 8  27449453.092 7
 88  4  1  5 38 59.0800000  0  4G 6G13G11G 9
  22302490.854    22302494.590     -179342.276 8  -1751846.995 8
  20787829.302    20787833.234   -57536151.594 9  40205500.610 8
  21561502.631    21561508.375   -16253868.340 8 -14071497.894 9
  20163330.178    20163330.890   -44658548.966 8  27469002.173 7
 88  4  1  5 39 29.0800000  0  4G 6G13G11G 9
  22321685.251    22321689.050      -78472.574 9  -1673247.252 8
  20783946.129    20783950.724   -57556554.548 9  40189602.211 7
  21572371.064    21572376.435   -16196752.714 8 -14026992.210 8
  20168230.151    20168233.587   -44632806.939 8  27489060.879 7
 88  4  1  5 39 59.0800000  0  4G 6G13G11G 9
  22340950.939    22340957.608       22778.818 8  -1594350.106 8
  20780142.727    20780146.694   -57576539.975 9  40174029.164 7
  21583278.469    21583282.962   -16139437.725 8 -13982331.178 8
  20173251.736    20173255.848   -44606411.079 8  27509629.091 7
 88  4  1  5 40 29.0800000  0  4G 6G13G11G 9
  22360290.649    22360297.095      124409.702 8  -1515157.250 7
  20776419.508    20776422.199   -57596108.718 8  40158780.811 7
  21594222.065    21594228.478   -16081925.662 8 -13937516.584 8
  20178399.496    20178401.715   -44579361.725 7  27530706.502 7
 88  4  1  5 40 59.0800000  0  4G 6G13G11G 9
  22379703.545    22379708.814      226417.479 8  -1435670.663 7
  20772773.952    20772779.438   -57615261.683 8  40143856.428 7
  21605203.289    21605209.200   -16024218.466 8 -13892549.944 8
  20183670.981    20183674.631   -44551658.748 7  27552293.246 7
 88  4  1  5 41 29.0800000  0  4G 6G13G11G 9
  22399186.817    22399190.738      328800.194 8  -1355891.943 9
  20769208.741    20769213.081   -57633999.294 8  40129255.715 7
  21616220.554    21616227.676   -15966317.537 8 -13847432.342 8
  20189066.154    20189071.479   -44523302.214 8  27574389.208 6
 88  4  1  5 41 59.0800000  0  4G 6G13G11G 9
  22418740.616    22418743.840      431554.591 8  -1275823.619 7
  20765721.061    20765725.953   -57652323.904 8  40114976.801 8
  21627277.525    21627281.567   -15908225.756 9 -13802166.023 9
  20194586.817    20194589.839   -44494292.711 8  27596994.001 6
 88  4  1  5 42 29.0800000  0  4G 6G13G11G 9
  22438363.318    22438367.327      534677.937 8  -1195467.777 8
  20762313.726    20762316.972   -57670236.336 8  40101019.079 8
  21638366.169    21638370.797   -15849945.366 8 -13756752.739 8
  20200233.213    20200236.475   -44464630.946 8  27620107.073 6
 88  4  1  5 42 59.0800000  0  4G 6G13G11G 9
  22458056.873    22458061.665      638167.853 8  -1114826.313 8
  20758982.116    20758986.784   -57687737.350 8  40087381.929 9
  21649492.935    21649496.583   -15791478.211 9 -13711193.912 8
  20206000.548    20206002.378   -44434317.028 8  27643728.277 6
 88  4  1  5 43 29.0800000  0  4G 6G13G11G 9
  22477820.627    22477824.974      742021.427 8  -1033901.467 8
  20755729.448    20755734.283   -57704828.676 8  40074064.025 7
  21660654.013    21660658.981   -15732826.895 8 -13665491.569 9
  20211892.541    20211896.669   -44403351.759 7  27667857.040 7
 88  4  1  5 43 59.0800000  0  4G 6G13G11G 9
  22497650.952    22497656.619      846236.283 8   -952695.131 8
  20752555.362    20752559.940   -57721511.150 8  40061064.707 7
  21671848.472    21671854.358   -15673992.819 9 -13619646.889 8
  20217911.125    20217912.523   -44371735.256 7  27692493.256 7
 88  4  1  5 44 29.0800000  0  4G 6G13G11G 9
  22517552.045    22517554.903      950810.238 8   -871208.943 8
  20749459.087    20749463.488   -57737785.523 8  40048383.386 7
  21683081.669    21683082.970   -15614977.967 9 -13573661.248 7
  20224050.239    20224052.840   -44339467.691 7  27717636.822 6
 88  4  1  5 44 59.0800000  0  4G 6G13G11G 9
  22537518.386    22537523.034     1055740.274 8   -789445.301 9
  20746437.762    20746442.833   -57753652.985 8  40036019.145 8
  21694343.902    21694348.194   -15555784.661 8 -13527536.545 8
  20230314.930    20230316.032   -44306549.924 7  27743287.011 7
 88  4  1  5 45 29.0800000  0  4G 6G13G11G 9
  22557555.011    22557558.164     1161024.031 8   -707406.061 8
  20743496.858    20743500.179   -57769114.857 8  40023970.943 8
  21705641.387    21705647.989   -15496414.746 8 -13481274.342 8
  20236702.061    20236706.252   -44272982.363 7  27769443.539 6
 88  4  1  5 45 59.0800000  0  4G 6G13G11G 9
  22577655.585    22577659.729     1266658.699 8   -625093.363 9
  20740631.959    20740636.378   -57784172.618 9  40012237.631 8
  21716974.056    21716975.927   -15436870.637 9 -13434876.312 8
  20243213.763    20243215.913   -44238765.427 7  27796106.082 7
 88  4  1  5 46 29.0800000  0  4G 6G13G11G 9
  22597822.013    22597826.834     1372641.607 8   -542509.312 8
  20737842.189    20737846.441   -57798827.259 8  40000818.442 7
  21728334.152    21728338.888   -15377154.160 6 -13388343.948 8
  20249846.756    20249851.155   -44203899.984 8  27823273.938 7
 88  4  1  5 46 59.0800000  0  4G 6G13G11G 9
  22618057.031    22618061.643     1478970.376 8   -459655.749 8
  20735130.406    20735134.427   -57813079.392 8  39989712.880 8
  21739731.486    21739736.603   -15317267.175 9 -13341678.800 9
  20256606.190    20256609.991   -44168386.072 8  27850947.119 7
 88  4  1  5 47 29.0800000  0  4G 6G13G11G 9
  22638355.948    22638360.385     1585642.000 8   -376535.048 8
  20732495.168    20732498.530   -57826930.544 9  39978919.800 7
  21751160.770    21751166.044   -15257212.295 8 -13294882.779 8
  20263485.671    20263490.384   -44132224.890 8  27879124.651 8
 88  4  1  5 47 59.0800000  0  4G 6G13G11G 9
  22658719.217    22658722.382     1692653.726 9   -293149.304 8
  20729934.314    20729940.930   -57840382.406 7  39968437.835 8
  21762618.330    21762623.973   -15196990.934 9 -13247957.055 8
  20270491.282    20270494.756   -44095417.249 8  27907805.908 8
 88  4  1  5 48 29.0800000  0  4G 6G13G11G 9
  22679147.129    22679151.464     1800003.060 9   -209500.494 8
  20727450.987    20727456.396   -57853435.537 8  39958266.580 8
  21774110.860    21774114.536   -15136604.979 8 -13200903.053 7
  20277618.815    20277622.071   -44057963.342 8  27936990.757 7
 88  4  1  5 48 59.0800000  0  4G 6G13G11G 9
  22699638.829    22699643.123     1907687.303 9   -125590.732 8
  20725040.989    20725046.410   -57866091.802 8  39948404.560 8
  21785634.110    21785638.223   -15076056.822 8 -13153722.665 9
  20284868.507    20284872.322   -44019864.104 7  27966678.452 9
 88  4  1  5 49 29.0800000  0  4G 6G13G11G 9
  22720194.374    22720198.424     2015703.875 8    -41421.998 9
  20722710.347    20722713.745   -57878352.338 8  39938850.902 8
  21797184.365    21797190.563   -15015348.143 9 -13106417.229 9
  20292241.317    20292245.220   -43981120.370 8  27996868.358 8
 88  4  1  5 49 59.0800000  0  4G 6G13G11G 9
  22740811.712    22740815.505     2124049.895 7     43003.445 8
  20720452.243    20720456.650   -57890217.872 8  39929605.049 8
  21808767.645    21808772.716   -14954481.064 9 -13058988.346 8
  20299735.554    20299740.759   -43941732.891 7  28027559.896 8
 88  4  1  5 50 29.0800000  0  4G 6G13G11G 9
  22761491.414    22761495.153     2232722.662 8    127683.503 8
  20718268.810    20718273.029   -57901689.938 8  39920665.787 7
  21820380.201    21820384.719   -14893457.650 8 -13011437.612 8
  20307352.763    20307358.507   -43901702.212 7  28058752.609 8
 88  4  1  5 50 59.0800000  0  4G 6G13G11G 9
  22782231.676    22782235.637     2341719.476 8    212616.061 8
  20716159.951    20716165.361   -57912770.173 8  39912031.835 7
  21832021.839    21832027.116   -14832279.851 8 -12963766.623 8
  20315093.558    20315099.096   -43861029.555 7  28090445.572 7
 88  4  1  5 51 29.0800000  0  4G 6G13G11G 9
  22803034.364    22803040.642     2451037.638 8    297798.994 9
  20714126.300    20714129.156   -57923459.930 7  39903702.179 7
  21843693.774    21843697.167   -14770949.805 8 -12915976.972 8
  20322955.470    20322958.438   -43819715.656 7  28122638.214 7
 88  4  1  5 51 59.0800000  0  4G 6G13G11G 9
  22823899.561    22823903.849     2560674.226 8    383230.088 8
  20712165.835    20712172.346   -57933760.411 9  39895675.830 8
  21855392.562    21855396.297   -14709469.214 9 -12868070.005 9
  20330939.439    20330943.342   -43777761.496 8  28155329.754 7
 88  4  1  5 52 29.0800000  0  4G 6G13G11G 9
  22844821.974    22844826.897     2670626.940 8    468907.494 8
  20710279.198    20710284.473   -57943672.645 8  39887952.031 8
  21867118.677    21867124.423   -14647839.555 9 -12820046.908 9
  20339044.381    20339048.996   -43735167.657 8  28188519.743 8
 88  4  1  5 52 59.0800000  0  4G 6G13G11G 9
  22865803.430    22865809.426     2780892.818 8    554828.914 9
  20708465.880    20708472.099   -57953197.601 9  39880529.994 9
  21878877.650    21878880.855   -14586063.226 9 -12771909.522 8
  20347271.328    20347274.427   -43691935.223 7  28222207.348 8
 88  4  1  5 53 29.0800000  0  4G 6G13G11G 9
  22886846.278    22886851.408     2891468.913 8    640992.059 8
  20706727.065    20706732.565   -57962337.270 9  39873408.196 8
  21890657.607    21890663.307   -14524142.298 8 -12723659.439 8
  20355619.123    20355624.911   -43648065.424 7  28256391.593 7
 88  4  1  5 53 59.0800000  0  4G 6G13G11G 9
  22907947.648    22907951.830     3002352.534 8    727394.856 8
  20705061.517    20705064.921   -57971092.742 8  39866585.764 8
  21902467.785    21902472.949   -14462078.494 8 -12675298.033 8
  20364088.592    20364092.598   -43603559.090 7  28291071.853 8
 88  4  1  5 54 29.0800000  0  4G 6G13G11G 9
  22929102.572    22929110.097     3113540.721 8    814034.974 9
  20703468.534    20703473.681   -57979465.593 9  39860061.465 8
  21914305.997    21914311.677   -14399873.792 9 -12626826.835 8
  20372679.163    20372683.048   -43558417.483 8  28326247.123 8
 88  4  1  5 54 59.0800000  0  4G 6G13G11G 9
  22950321.836    22950326.299     3225031.033 8    900910.507 9
  20701947.071    20701952.232   -57987456.740 9  39853834.623 8
  21926169.359    21926175.357   -14337529.773 8 -12578247.101 9
  20381390.124    20381392.272   -43512641.345 8  28361916.823 7
 88  4  1  5 55 29.0800000  0  4G 6G13G11G 9
  22971594.900    22971598.862     3336820.315 8    988019.012 9
  20700498.036    20700504.177   -57995067.841 8  39847903.899 7
  21938061.895    21938063.356   -14275048.775 8 -12529560.606 8
  20390221.642    20390224.355   -43466232.133 8  28398079.824 7
 88  4  1  5 55 59.0800000  0  4G 6G13G11G 9
  22992923.547    22992927.390     3448905.868 8   1075358.392 8
  20699122.272    20699128.020   -58002300.385 9  39842268.156 7
  21949975.259    21949979.408   -14212432.622 8 -12480768.759 8
  20399172.889    20399177.400   -43419190.939 8  28434735.287 7
 88  4  1  5 56 29.0800000  0  4G 6G13G11G 9
  23014309.199    23014314.215     3561285.028 9   1162926.526 8
  20697818.049    20697821.568   -58009155.546 8  39836926.494 8
  21961915.387    21961921.534   -14149683.139 9 -12431873.065 9
  20408243.840    20408247.874   -43371518.739 8  28471882.436 6
 88  4  1  5 56 59.0800000  0  4G 6G13G11G 9
  23035748.997    23035753.392     3673954.792 8   1250721.128 8
  20696586.181    20696590.437   -58015634.597 8  39831877.882 7
  21973882.210    21973886.591   -14086802.119 9 -12382874.890 9
  20417435.860    20417438.632   -43323216.856 9  28509520.258 8
 88  4  1  5 57 29.0800000  0  4G 6G13G11G 9
  23057245.569    23057248.641     3786912.282 8   1338739.938 8
  20695423.995    20695428.084   -58021739.181 9  39827121.071 7
  21985872.587    21985877.503   -14023791.435 8 -12333775.629 8
  20426747.438    20426749.565   -43274286.405 8  28547647.874 7
 88  4  1  5 57 59.0800000  0  4G 6G13G11G 9
  23078793.016    23078798.564     3900155.191 7   1426981.131 8
  20694332.585    20694338.214   -58027470.577 8  39822655.072 7
  21997885.680    21997891.581   -13960652.429 8 -12284576.423 9
  20436177.776    20436180.828   -43224728.695 7  28586264.284 8
 88  4  1  5 58 29.0800000  0  4G 6G13G11G 9
  23100397.338    23100399.997     4013680.001 8   1515442.014 8
  20693313.052    20693318.922   -58032830.433 9  39818478.555 9
  22009927.283    22009931.224   -13897388.186 8 -12235279.606 9
  20445728.007    20445731.531   -43174545.067 7  28625368.383 7
 88  4  1  5 58 59.0800000  0  4G 6G13G11G 9
  23122052.107    23122056.970     4127484.245 7   1604120.597 8
  20692364.042    20692368.079   -58037819.965 8  39814590.604 8
  22021988.760    22021993.532   -13833999.582 8 -12185885.852 8
  20455396.176    20455399.151   -43123736.559 8  28664959.417 7
 88  4  1  5 59 29.0800000  0  4G 6G13G11G 9
  23143761.121    23143765.390     4241565.039 7   1693014.713 8
  20691484.085    20691489.320   -58042440.972 8  39810989.835 7
  22034072.511    22034078.031   -13770488.362 8 -12136396.638 9
  20465183.943    20465186.905   -43072304.773 8  28705036.111 7
 88  4  1  5 59 59.0800000  0  4G 6G13G11G 9
  23165522.725    23165525.931     4355919.423 8   1782122.001 8
  20690674.453    20690680.268   -58046694.333 8  39807675.533 8
  22046183.543    22046186.945   -13706856.864 8 -12086813.664 9
  20475089.903    20475091.727   -43020251.022 8  28745597.473 6
 88  4  1  6  0 29.0800000  0  4G 6G13G11G 9
  23187333.977    23187339.169     4470544.540 8   1871440.246 7
  20689935.501    20689938.460   -58050581.931 9  39804646.250 8
  22058315.065    22058320.207   -13643106.571 9 -12037138.080 7
  20485112.316    20485115.819   -42967576.701 9  28786642.387 7
 88  4  1  6  0 59.0800000  0  4G 6G13G11G 9
  23209197.798    23209203.942     4585437.466 9   1960967.153 9
  20689265.129    20689269.038   -58054105.297 8  39801900.782 8
  22070468.044    22070472.223   -13579239.571 8 -11987371.595 8
  20495254.044    20495255.795   -42914283.037 8  28828169.897 7
 88  4  1  6  1 29.0800000  0  4G 6G13G11G 9
  23231112.786    23231117.000     4700595.168 8   2050700.431 8
  20688662.712    20688667.326   -58057266.255 9  39799437.703 7
  22082642.403    22082648.487   -13515257.618 7 -11937515.528 9
  20505511.666    20505515.936   -42860371.877 8  28870178.596 7
 88  4  1  6  1 59.0800000  0  4G 6G13G11G 9
  23253076.108    23253079.854     4816014.883 7   2140637.853 8
  20688130.529    20688135.418   -58060065.665 8  39797256.354 8
  22094839.364    22094845.780   -13451162.351 8 -11887571.192 9
  20515889.986    20515891.641   -42805844.396 8  28912667.518 8
 88  4  1  6  2 29.0800000  0  4G 6G13G11G 9
  23275089.496    23275092.811     4931694.056 9   2230777.413 8
  20687665.366    20687671.572   -58062505.001 8  39795355.583 8
  22107059.282    22107063.578   -13386955.389 8 -11837539.798 8
  20526381.827    20526385.324   -42750702.341 9  28955635.340 7
 88  4  1  6  2 59.0800000  0  4G 6G13G11G 9
  23297150.158    23297155.662     5047629.389 9   2321116.613 8
  20687270.036    20687275.646   -58064585.519 8  39793734.404 8
  22119297.941    22119302.061   -13322638.599 9 -11787422.794 8
  20536991.451    20536996.330   -42694946.899 8  28999081.112 7
 88  4  1  6  3 29.0800000  0  4G 6G13G11G 9
  23319261.038    23319265.747     5163818.553 8   2411653.588 8
  20686942.272    20686947.265   -58066308.678 9  39792391.671 8
  22131557.204    22131561.868   -13258213.684 8 -11737221.580 9
  20547718.999    20547723.216   -42638579.288 8  29043003.919 8
 88  4  1  6  3 59.0800000  0  4G 6G13G11G 9
  23341418.390    23341421.997     5280257.903 8   2502385.532 8
  20686681.684    20686686.930   -58067676.745 8  39791325.672 7
  22143835.595    22143841.819   -13193682.720 9 -11686937.725 8
  20558561.824    20558563.291   -42581601.813 7  29087401.919 8
 88  4  1  6  4 29.0800000  0  4G 6G13G11G 9
  23363624.286    23363628.502     5396944.528 7   2593310.116 8
  20686488.712    20686493.209   -58068691.303 8  39790535.120 8
  22156137.145    22156141.139   -13129047.619 9 -11636572.725 9
  20569519.967    20569522.938   -42524016.224 8  29132273.800 7
 88  4  1  6  4 59.0800000  0  4G 6G13G11G 9
  23385873.686    23385879.809     5513875.746 7   2684425.324 8
  20686362.761    20686367.485   -58069353.555 8  39790019.079 7
  22168456.403    22168460.761   -13064309.840 9 -11586127.691 9
  20580591.630    20580596.266   -42465823.813 7  29177618.531 8
 88  4  1  6  5 29.0800000  0  4G 6G13G11G 9
  23408169.515    23408177.225     5631048.601 7   2775728.809 9
  20686304.221    20686309.501   -58069664.912 9  39789776.476 7
  22180792.638    22180797.643   -12999470.970 8 -11535603.889 9
  20591782.617    20591784.505   -42407026.315 8  29223434.741 8
 88  4  1  6  5 59.0800000  0  4G 6G13G11G 9
  23430514.189    23430519.475     5748460.539 7   2867218.599 8
  20686310.571    20686315.834   -58069627.183 9  39789805.885 8
  22193150.978    22193155.548   -12934532.711 8 -11485002.662 8
  20603086.549    20603089.760   -42347624.959 8  29269721.491 7
 88  4  1  6  6 29.0800000  0  4G 6G13G11G 9
  23452902.202    23452906.750     5866108.204 7   2958892.057 8
  20686384.686    20686388.989   -58069241.615 8  39790106.315 8
  22205526.993    22205532.370   -12869496.807 8 -11434325.321 9
  20614504.782    20614508.671   -42287621.872 8  29316477.109 9
 88  4  1  6  6 59.0800000  0  4G 6G13G11G 9
  23475334.101    23475339.088     5983988.787 8   3050747.032 8
  20686523.619    20686527.101   -58068509.545 8  39790676.756 8
  22217921.473    22217926.729   -12804364.976 8 -11383573.273 9
  20626035.582    20626040.894   -42227018.885 8  29363700.209 8
 88  4  1  6  7 29.0800000  0  4G 6G13G11G 9
  23497809.049    23497812.364     6102099.301 8   3142781.182 7
  20686728.798    20686731.745   -58067433.225 9  39791515.456 7
  22230334.096    22230338.674   -12739138.693 9 -11332747.630 8
  20637682.000    20637685.878   -42165817.518 8  29411389.567 7
 88  4  1  6  7 59.0800000  0  4G 6G13G11G 9
  23520328.607    23520333.726     6220436.716 8   3234992.116 7
  20686998.292    20687004.067   -58066014.291 8  39792621.126 8
  22242763.352    22242767.599   -12673819.848 9 -11281849.797 8
  20649443.413    20649446.199   -42104019.685 9  29459543.713 8
 88  4  1  6  8 29.0800000  0  4G 6G13G11G 9
  23542890.074    23542894.314     6338998.327 8   3327377.784 8
  20687332.334    20687338.772   -58064253.720 8  39793993.004 8
  22255211.697    22255215.500   -12608409.957 8 -11230881.022 9
  20661315.145    20661318.400   -42041627.037 8  29508161.335 8
 88  4  1  6  8 59.0800000  0  4G 6G13G11G 9
  23565494.707    23565498.143     6457781.220 8   3419935.867 8
  20687734.258    20687737.458   -58062152.941 8  39795629.979 8
  22267673.916    22267680.200   -12542910.801 8 -11179842.785 9
  20673299.798    20673305.153   -41978641.378 7  29557241.072 7
 88  4  1  6  9 29.0800000  0  4G 6G13G11G 9
  23588138.913    23588144.330     6576782.275 8   3512663.925 8
  20688196.473    20688201.158   -58059713.848 8  39797530.560 8
  22280156.975    22280160.838   -12477324.112 8 -11128736.310 8
  20685398.692    20685401.457   -41915064.763 8  29606781.255 8
 88  4  1  6  9 59.0800000  0  4G 6G13G11G 9
  23610825.418    23610830.591     6695998.311 8   3605559.487 9
  20688724.778    20688730.557   -58056938.186 8  39799693.417 8
  22292653.484    22292656.183   -12411651.603 9 -11077562.891 8
  20697608.924    20697613.699   -41850899.119 9  29656780.448 8
 88  4  1  6 10 29.0800000  0  4G 6G13G11G 9
  23633553.173    23633556.326     6815426.468 7   3698620.385 8
  20689318.531    20689321.494   -58053827.594 8  39802117.258 7
  22305166.679    22305170.046   -12345895.087 8 -11026324.005 9
  20709931.121    20709935.491   -41786146.412 8  29707237.087 8
 88  4  1  6 10 59.0800000  0  4G 6G13G11G 9
  23656318.388    23656321.641     6935064.146 7   3791844.484 8
  20689972.691    20689977.402   -58050383.273 8  39804801.142 7
  22317693.541    22317698.540   -12280055.664 8 -10975020.591 9
  20722365.112    20722368.127   -41720808.268 8  29758149.900 7
 88  4  1  6 11 29.0800000  0  4G 6G13G11G 9
  23679121.829    23679128.586     7054908.390 7   3885229.552 9
  20690692.334    20690695.618   -58046607.061 9  39807743.652 9
  22330238.752    22330243.500   -12214134.745 9 -10923653.647 8
  20734908.438    20734913.515   -41654886.606 9  29809517.433 8
 88  4  1  6 11 59.0800000  0  4G 6G13G11G 9
  23701968.726    23701971.264     7174956.036 7   3978773.120 8
  20691472.644    20691476.448   -58042500.615 8  39810943.470 8
  22342798.103    22342803.579   -12148134.039 9 -10872224.544 9
  20747563.440    20747566.512   -41588383.636 8  29861337.900 8
 88  4  1  6 12 29.0800000  0  4G 6G13G11G 9
  23724850.321    23724855.451     7295203.908 8   4072472.761 8
  20692318.348    20692320.283   -58038065.373 9  39814399.513 8
  22355373.118    22355376.314   -12082055.582 8 -10820734.836 9
  20760330.555    20760331.358   -41521301.461 8  29913609.724 8
 88  4  1  6 12 59.0800000  0  4G 6G13G11G 9
  23747768.516    23747776.069     7415649.277 6   4166326.199 9
  20693222.321    20693227.645   -58033302.585 9  39818110.778 9
  22367961.498    22367964.918   -12015900.602 8 -10769185.492 8
  20773205.347    20773209.148   -41453641.952 8  29966331.379 8
 88  4  1  6 13 29.0800000  0  4G 6G13G11G 9
  23770726.514    23770732.729     7536289.071 8   4260331.183 8
  20694191.629    20694196.399   -58028214.602 9  39822075.447 7
  22380564.726    22380569.404   -11949670.939 8 -10717577.969 9
  20786190.162    20786191.719   -41385406.948 9  30019501.510 7
 88  4  1  6 13 59.0800000  0  4G 6G13G11G 9
  23793721.101    23793726.463     7657120.072 8   4354485.189 9
  20695221.701    20695224.657   -58022803.335 9  39826292.009 8
  22393181.839    22393186.176   -11883368.139 9 -10665913.443 9
  20799283.493    20799285.729   -41316599.035 8  30073118.054 7
 88  4  1  6 14 29.0800000  0  4G 6G13G11G 9
  23816749.824    23816755.393     7778139.629 8   4448786.159 7
  20696311.317    20696316.522   -58017069.924 9  39830759.594 8
  22405812.878    22405817.267   -11816993.595 9 -10614193.022 8
  20812486.029    20812489.311   -41247219.959 8  30127179.658 8
 88  4  1  6 14 59.0800000  0  4G 6G13G11G 9
  23839815.068    23839820.971     7899344.614 8   4543231.553 9
  20697464.674    20697468.898   -58011015.674 8  39835477.197 8
  22418454.477    22418461.341   -11750548.884 8 -10562417.944 9
  20825796.071    20825800.973   -41177272.030 7  30181684.523 7
 88  4  1  6 15 29.0800000  0  4G 6G13G11G 9
  23862913.330    23862918.069     8020732.307 7   4637819.336 7
  20698677.952    20698682.202   -58004642.457 9  39840443.348 8
  22431112.136    22431119.740   -11684035.333 8 -10510589.206 8
  20839215.056    20839218.968   -41106757.018 7  30236631.264 8
 88  4  1  6 15 59.0800000  0  4G 6G13G11G 9
  23886047.570    23886053.554     8142299.576 8   4732547.051 7
  20699949.157    20699956.204   -57997952.218 8  39845656.521 8
  22443783.607    22443788.789   -11617454.673 8 -10458708.159 9
  20852740.156    20852743.869   -41035677.257 8  30292018.074 8
 88  4  1  6 16 29.0800000  0  4G 6G13G11G 9
  23909215.174    23909219.916     8264043.342 7   4827412.324 8
  20701283.382    20701288.071   -57990946.165 8  39851115.791 8
  22456465.695    22456470.099   -11550808.146 8 -10406775.811 9
  20866372.885    20866376.432   -40964035.034 8  30347843.166 7
 88  4  1  6 16 59.0800000  0  4G 6G13G11G 9
  23932414.696    23932421.327     8385960.974 7   4922413.035 6
  20702675.895    20702681.399   -57983625.983 8  39856819.829 7
  22469159.969    22469165.704   -11484097.041 7 -10354793.134 7
  20880112.992    20880117.676   -40891832.271 8  30404105.037 8
 88  4  1  6 17 29.0800000  0  4G 6G13G11G 9
  23955647.559    23955652.196     8508049.002 8   5017546.533 7
  20704127.650    20704133.349   -57975993.632 8  39862767.121 8
  22481866.200    22481873.374   -11417323.633 8 -10302761.958 9
  20893960.671    20893962.576   -40819071.756 8  30460801.513 8
 88  4  1  6 17 59.0800000  0  4G 6G13G11G 9
  23978913.103    23978916.367     8630304.457 7   5112810.465 8
  20705640.200    20705645.490   -57968050.589 8  39868956.508 8
  22494585.303    22494590.540   -11350489.022 9 -10250683.020 9
  20907911.339    20907915.678   -40745755.618 8  30517930.968 9
 88  4  1  6 18 29.0800000  0  4G 6G13G11G 9
  24002206.949    24002212.239     8752724.680 7   5208202.818 9
  20707209.684    20707215.349   -57959798.881 8  39875386.398 8
  22507316.117    22507319.636   -11283594.416 8 -10198557.320 8
  20921967.808    20921972.574   -40671885.677 8  30575491.928 7
 88  4  1  6 18 59.0800000  0  4G 6G13G11G 9
  24025532.852    24025538.931     8875306.331 7   5303720.960 8
  20708840.460    20708842.405   -57951239.526 8  39882056.026 8
  22520054.978    22520060.026   -11216641.395 8 -10146386.161 8
  20936130.975    20936133.564   -40597464.496 8  30633482.446 8
 88  4  1  6 19 29.0800000  0  4G 6G13G11G 9
  24048890.090    24048895.807     8998046.726 6   5399362.764 8
  20710527.192    20710530.581   -57942374.459 9  39888963.883 8
  22532807.468    22532811.231   -11149631.268 7 -10094170.482 9
  20950396.949    20950400.041   -40522494.182 8  30691900.860 8
 88  4  1  6 19 59.0800000  0  4G 6G13G11G 9
  24072276.966    24072281.456     9120942.548 7   5495125.702 9
  20712270.697    20712275.955   -57933205.421 9  39896108.589 8
  22545568.921    22545573.485   -11082565.524 8 -10041911.468 7
  20964767.462    20964769.949   -40446977.475 9  30750745.049 8
 88  4  1  6 20 29.0800000  0  4G 6G13G11G 9
  24095692.512    24095698.219     9243991.200 8   5591007.699 9
  20714073.224    20714078.144   -57923734.027 8  39903488.879 8
  22558341.643    22558346.771   -11015445.579 8  -9989610.213 8
  20979241.198    20979245.394   -40370916.444 8  30810013.366 8
 88  4  1  6 20 59.0800000  0  4G 6G13G11G 9
  24119137.369    24119142.351     9367189.242 8   5687006.148 9
  20715933.056    20715937.423   -57913962.032 8  39911103.429 8
  22571124.629    22571127.725   -10948273.005 7  -9937267.954 8
  20993818.869    20993821.378   -40294313.646 9  30869703.840 8
 88  4  1  6 21 29.0800000  0  4G 6G13G11G 9
  24142608.723    24142612.669     9490534.044 8   5783118.948 8
  20717848.918    20717852.928   -57903890.728 8  39918951.218 8
  22583915.558    22583920.000   -10881049.308 7  -9884885.810 9
  21008497.966    21008500.504   -40217171.394 8  30929814.652 8
 88  4  1  6 21 59.0800000  0  4G 6G13G11G 9
  24166108.333    24166111.894     9614022.340 9   5879343.597 8
  20719821.991    20719827.141   -57893522.382 9  39927030.452 8
  22596718.307    22596722.740   -10813775.886 8  -9832464.991 9
  21023280.275    21023282.639   -40139492.004 8  30990344.036 8
 88  4  1  6 22 29.0800000  0  4G 3G13G11G 9
                  23069128.873   -98718971.015 8
  20721852.955    20721856.749   -57882858.009 8  39935340.357 8
  22609529.474    22609533.849   -10746453.504 8  -9780006.006 8
  21038162.861    21038166.909   -40061277.775 8  31051290.159 8
 88  4  1  6 22 59.0800000  0  4G 3G13G11G 9
  23057351.969    23057355.576   -98781027.074 8 125268421.619 8
  20723936.886    20723941.876   -57871899.795 9  39943879.223 7
  22622349.984    22622353.338   -10679084.022 8  -9727510.309 7
  21053147.731    21053152.840   -39982531.354 9  31112651.000 8
 88  4  1  6 23 29.0800000  0  4G 3G13G11G 9
  23045588.898    23045594.356   -98842845.878 8 125220251.190 9
  20726079.166    20726080.479   -57860649.131 9  39952646.006 8
  22635179.119    22635182.374   -10611668.935 8  -9674979.051 9
  21068233.578    21068237.339   -39903255.382 8  31174424.479 8
 88  4  1  6 23 59.0800000  0  4G 3G13G11G 9
  23033868.335    23033873.076   -98904428.517 8 125172264.744 8
  20728274.705    20728277.860   -57849108.383 9  39961638.806 8
  22648014.642    22648020.264   -10544209.285 8  -9622413.076 9
  21083419.996    21083423.659   -39823452.209 8  31236608.746 8
 88  4  1  6 24 29.0800000  0  4G 3G13G11G 9
  23022195.996    23022199.828   -98965775.305 8 125124462.065 7
  20730525.280    20730528.814   -57837279.109 9  39970856.426 8
  22660859.197    22660864.684   -10476706.647 8  -9569813.623 8
  21098704.578    21098709.399   -39743124.691 8  31299201.609 8
 88  4  1  6 24 59.0800000  0  4G 3G13G11G 9
  23010566.199    23010571.502   -99026885.794 8 125076843.565 8
  20732831.022    20732834.753   -57825161.958 9  39980298.354 7
  22673711.198    22673718.505   -10409162.020 8  -9517181.452 8
  21114091.686    21114094.661   -39662274.656 8  31362201.613 7
 88  4  1  6 25 29.0800000  0  4G 3G13G11G 9
  22998982.554    22998987.144   -99087760.466 8 125029408.744 9
  20735192.775    20735196.129   -57812759.215 8  39989962.832 8
  22686574.761    22686579.843   -10341576.727 9  -9464517.602 9
  21129573.166    21129580.081   -39580905.015 8  31425606.529 8
 88  4  1  6 25 59.0800000  0  4G 3G13G11G 9
  22987442.321    22987447.514   -99148399.835 7 124982157.353 8
  20737606.069    20737609.301   -57800072.720 9  39999848.432 9
  22699443.350    22699448.577   -10273952.353 7  -9411823.263 9
  21145157.000    21145161.338   -39499018.414 8  31489414.237 7
 88  4  1  6 26 29.0800000  0  4G 3G13G11G 9
  22975947.794    22975952.913   -99208804.265 8 124935088.996 8
  20740072.828    20740077.256   -57787104.392 9  40009953.621 8
  22712318.383    22712323.851   -10206290.186 8  -9359099.514 9
  21160836.903    21160841.682   -39416617.680 8  31553622.585 7
 88  4  1  6 26 59.0800000  0  4G 3G13G11G 9
  22964497.918    22964503.298   -99268973.874 7 124888203.605 8
  20742594.507    20742598.409   -57773855.540 9  40020277.411 8
  22725201.544    22725206.339   -10138591.498 7  -9306347.286 8
  21176614.658    21176618.662   -39333705.243 7  31618229.668 8
 88  4  1  6 27 29.0800000  0  4G 3G13G11G 9
  22953093.526    22953097.469   -99328909.231 9 124841500.727 7
  20745169.529    20745173.802   -57760327.824 8  40030818.501 8
  22738090.292    22738095.727   -10070857.905 8  -9253567.856 8
  21192491.088    21192493.117   -39250283.865 9  31683233.329 7
 88  4  1  6 27 59.0800000  0  4G 3G13G11G 9
  22941731.603    22941737.528   -99388609.749 8 124794980.864 9
  20747796.689    20747799.121   -57746522.986 8  40041575.537 9
  22750985.627    22750991.192   -10003090.035 8  -9200761.717 9
  21208462.211    21208465.027   -39166355.750 9  31748631.839 8
 88  4  1  6 28 29.0800000  0  4G 3G13G11G 9
  22930416.221    22930421.029   -99448076.460 8 124748643.193 9
  20750475.134    20750479.393   -57732442.997 9  40052546.955 8
  22763888.220    22763893.221    -9935289.360 9  -9147930.036 9
  21224527.720    21224532.101   -39081923.762 9  31814422.974 8
 88  4  1  6 28 59.0800000  0  4G 3G13G11G 9
  22919144.025    22919149.105   -99507309.278 8 124702487.763 7
  20753206.649    20753210.363   -57718089.186 9  40063731.770 9
  22776796.640    22776801.571    -9867456.937 8  -9095073.595 9
  21240691.041    21240693.987   -38996990.757 8  31880604.544 7
 88  4  1  6 29 29.0800000  0  4G 3G13G11G 9
  22907915.989    22907921.416   -99566308.600 8 124656514.269 7
  20755990.884    20755993.730   -57703463.247 9  40075128.620 8
  22789710.170    22789715.950    -9799594.162 8  -9042193.521 9
  21256947.436    21256951.913   -38911559.471 9  31947174.353 8
 88  4  1  6 29 59.0800000  0  4G 3G13G11G 9
  22896735.126    22896738.643   -99625074.859 8 124610722.420 8
  20758824.166    20758828.524   -57688566.891 9  40086736.169 8
  22802631.142    22802633.587    -9731702.365 7  -8989290.828 9
  21273298.668    21273301.455   -38825632.303 9  32014130.598 8
 88  4  1  6 30 29.0800000  0  4G 3G13G11G 9
  22885595.949    22885600.586   -99683608.129 9 124565112.090 8
  20761710.624    20761714.933   -57673401.903 8  40098553.063 9
  22815555.411    22815558.428    -9663782.615 8  -8936366.348 8
  21289744.412    21289747.432   -38739212.245 8  32081470.874 8
 88  4  1  6 30 59.0800000  0  4G 3G13G11G 9
  22874501.758    22874505.897   -99741908.769 8 124519683.035 8
  20764647.396    20764650.407   -57657970.116 9  40110577.846 8
  22828485.569    22828488.638    -9595835.934 8  -8883420.864 9
  21306282.714    21306287.576   -38652301.487 8  32149193.529 8
 88  4  1  6 31 29.0800000  0  4G 3G13G11G 9
  22863451.552    22863456.903   -99799977.371 8 124474434.792 7
  20767633.779    20767638.751   -57642273.375 8  40122809.079 8
  22841419.521    22841424.454    -9527863.709 8  -8830455.476 9
  21322913.984    21322917.318   -38564903.154 8  32217296.097 8
 88  4  1  6 31 59.0800000  0  4G 3G13G11G 9
  22852445.709    22852450.530   -99857814.080 8 124429367.224 8
  20770670.075    20770674.748   -57626312.979 9  40135245.739 7
  22854358.065    22854363.354    -9459867.139 8  -8777471.155 8
  21339637.316    21339642.065   -38477020.109 8  32285776.372 8
 88  4  1  6 32 29.0800000  0  4G 3G13G11G 9
  22841483.632    22841487.295   -99915419.317 8 124384480.058 7
  20773757.993    20773762.365   -57610090.855 9  40147886.376 7
  22867302.423    22867307.590    -9391847.485 8  -8724468.863 9
  21356451.852    21356457.715   -38388655.185 8  32354632.129 8
 88  4  1  6 32 59.0800000  0  4G 3G13G11G 9
  22830565.391    22830568.792   -99972793.410 9 124339772.978 7
  20776894.656    20776897.485   -57593608.449 8  40160729.807 9
  22880250.977    22880255.472    -9323805.581 9  -8671449.165 9
  21373359.173    21373362.034   -38299811.210 8  32423861.185 7
 88  4  1  6 33 29.0800000  0  4G 3G13G11G 9
  22819692.894    22819695.758  -100029936.649 8 124295245.803 7
  20780079.266    20780084.228   -57576867.050 8  40173775.076 8
  22893201.472    22893207.794    -9255742.329 8  -8618412.826 8
  21390355.123    21390360.957   -38210490.514 7  32493461.696 8
 88  4  1  6 33 59.0800000  0  4G 3G13G11G 9
  22808863.137    22808866.957  -100086849.385 8 124250898.243 7
  20783315.807    20783318.763   -57559868.922 9  40187020.381 9
  22906158.348    22906163.581    -9187659.517 7  -8565361.277 8
  21407443.252    21407448.307   -38120696.586 8  32563430.966 7
 88  4  1  6 34 29.0800000  0  4G 3G13G11G 9
  22798075.528    22798078.799  -100143532.049 8 124206729.965 7
  20786599.098    20786602.289   -57542616.122 9  40200464.115 8
  22919117.307    22919122.145    -9119557.950 7  -8512295.131 9
  21424620.871    21424624.416   -38030431.888 9  32633767.069 8
 88  4  1  6 34 59.0800000  0  4G 3G13G11G 9
  22787332.575    22787335.467  -100199984.839 9 124162740.778 8
  20789929.728    20789933.523   -57525109.704 9  40214105.485 7
  22932079.221    22932085.200    -9051438.854 8  -8459215.347 8
  21441885.981    21441890.630   -37939699.413 9  32704467.685 8
 88  4  1  6 35 29.0800000  0  4G 3G13G11G 9
  22776634.101    22776636.999  -100256208.468 9 124118930.186 8
  20793308.470    20793312.618   -57507351.558 9  40227943.008 8
  22945046.016    22945050.299    -8983303.191 8  -8406122.606 9
  21459241.032    21459243.813   -37848502.134 9  32775530.483 9
 88  4  1  6 35 59.0800000  0  4G 3G13G11G 9
  22765978.183    22765982.863  -100312203.011 8 124075298.085 9
  20796736.206    20796740.393   -57489343.011 8  40241975.654 8
  22958014.671    22958020.082    -8915151.631 8  -8353017.492 8
  21476682.303    21476686.633   -37756842.297 8  32846953.728 8
 88  4  1  6 36 29.0800000  0  4G 3G13G11G 9
  22755365.823    22755369.516  -100367969.177 8 124031843.944 9
  20800209.464    20800213.937   -57471085.892 9  40256201.992 8
  22970984.941    22970990.414    -8846985.629 7  -8299901.113 8
  21494213.657    21494217.319   -37664723.331 9  32918734.722 8
 88  4  1  6 36 59.0800000  0  4G 3G13G11G 9
  22744797.147    22744802.723  -100423507.259 7 123988567.535 7
  20803730.840    20803735.212   -57452582.039 8  40270620.596 8
  22983959.429    22983964.140    -8778806.422 7  -8246774.469 9
  21511829.220    21511832.812   -37572148.479 8  32990870.966 7
 88  4  1  6 37 29.0800000  0  4G 3G13G11G 9
  22734272.167    22734278.389  -100478817.553 8 123945468.625 8
  20807298.686    20807302.535   -57433833.339 9  40285229.982 8
  22996935.949    22996941.396    -8710614.886 8  -8193638.238 9
  21529531.300    21529536.514   -37479120.117 9  33063360.583 6
 88  4  1  6 37 59.0800000  0  4G 3G13G11G 9
  22723790.238    22723795.941  -100533900.642 7 123902546.767 8
  20810912.781    20810916.873   -57414841.504 9  40300028.819 8
  23009914.547    23009919.416    -8642412.213 9  -8140493.306 9
  21547321.264    21547324.693   -37385641.639 9  33136200.924 7
 88  4  1  6 38 29.0800000  0  4G 3G13G11G 9
  22713350.372    22713356.175  -100588756.840 7 123859801.702 8
  20814572.929    20814577.038   -57395607.475 9  40315016.370 8
  23022896.161    23022901.765    -8574199.511 9  -8087340.535 9
  21565194.655    21565196.702   -37291715.706 8  33209389.950 8
 88  4  1  6 38 59.0800000  0  4G 3G13G11G 9
  22702956.409    22702960.739  -100643386.376 8 123817233.250 8
  20818278.832    20818281.483   -57376133.078 9  40330191.242 8
  23035878.696    23035882.830    -8505977.462 8  -8034180.487 9
  21583152.229    21583155.800   -37197345.560 8  33282925.115 8
 88  4  1  6 39 29.0800000  0  4G 3G13G11G 9
  22692601.456    22692607.859  -100697790.168 8 123774840.705 8
  20822030.614    20822034.122   -57356420.343 9  40345551.826 8
  23048860.128    23048866.550    -8437747.234 7  -7981014.094 8
  21601192.897    21601197.278   -37102533.888 8  33356804.315 8
 88  4  1  6 39 59.0800000  0  4G 3G13G11G 9
  22682293.101    22682297.494  -100751968.540 7 123732623.873 9
  20825827.088    20825830.494   -57336471.254 9  40361096.579 8
  23061847.161    23061851.979    -8369509.776 7  -7927842.116 9
  21619319.450    21619322.496   -37007284.097 7  33431024.920 8
 88  4  1  6 40 29.0800000  0  4G 3G13G11G 9
  22672024.788    22672031.402  -100805922.085 8 123690582.188 8
  20829666.698    20829670.697   -57316287.463 9  40376824.227 7
  23074833.125    23074838.879    -8301266.291 8  -7874665.337 8
  21637526.579    21637531.883   -36911598.689 7  33505584.953 8
 88  4  1  6 40 59.0800000  0  4G 3G13G11G 9
  22661801.489    22661806.303  -100859650.972 8 123648715.585 8
  20833551.801    20833557.118   -57295870.045 9  40392733.903 8
  23087820.583    23087824.471    -8233017.606 9  -7821484.537 9
  21655817.285    21655823.191   -36815481.102 8  33580481.745 8
 88  4  1  6 41 29.0800000  0  4G 3G13G11G 9
  22651620.098    22651624.301  -100913155.724 8 123607023.584 9
  20837482.614    20837484.636   -57275220.648 8  40408824.347 8
  23100808.550    23100812.461    -8164764.435 9  -7768300.257 9
  21674191.527    21674194.224   -36718934.055 9  33655713.184 8
 88  4  1  6 41 59.0800000  0  4G 3G13G11G 9
  22641483.029    22641485.781  -100966436.972 8 123565505.777 8
  20841455.551    20841459.688   -57254340.944 9  40425094.275 8
  23113797.176    23113801.925    -8096507.822 9  -7715113.284 9
  21692644.496    21692646.872   -36621960.864 8  33731276.715 8
 88  4  1  6 42 29.0800000  0  4G 3G13G11G 9
  22631384.581    22631388.989  -101019494.889 7 123524161.962 8
  20845470.853    20845476.025   -57233233.008 9  40441542.022 8
  23126786.511    23126791.976    -8028248.932 8  -7661924.525 9
  21711178.253    21711182.011   -36524564.447 8  33807170.002 8
 88  4  1  6 42 59.0800000  0  4G 3G13G11G 9
  22621330.914    22621335.121  -101072330.300 8 123482991.579 8
  20849531.759    20849535.285   -57211898.240 9  40458166.527 8
  23139776.607    23139781.213    -7959988.481 8  -7608734.613 9
  21729791.480    21729796.517   -36426748.041 9  33883390.534 8
 88  4  1  6 43 29.0800000  0  4G 3G13G11G 9
  22611318.283    22611322.226  -101124943.824 8 123441994.075 9
  20853634.493    20853638.867   -57190338.098 9  40474966.630 8
  23152765.479    23152770.783    -7891727.661 8  -7555544.371 8
  21748485.417    21748488.249   -36328514.576 8  33959936.086 8
 88  4  1  6 43 59.0800000  0  4G 3G13G11G 9
  22601348.237    22601352.546  -101177335.739 9 123401169.232 9
  20857778.553    20857783.962   -57168554.376 9  40491940.984 8
  23165753.646    23165760.321    -7823467.181 8  -7502354.383 9
  21767256.307    21767261.186   -36229867.110 8  34036804.231 8
 88  4  1  6 44 29.0800000  0  4G 3G13G11G 9
  22591421.806    22591425.458  -101229506.380 9 123360516.836 8
  20861967.037    20861971.821   -57146548.429 9  40509088.470 8
  23178744.167    23178748.059    -7755207.617 8  -7449165.122 8
  21786107.007    21786112.323   -36130808.666 8  34113992.604 7
 88  4  1  6 44 59.0800000  0  4G 3G13G11G 9
  22581534.472    22581539.018  -101281456.508 8 123320036.249 9
  20866198.173    20866200.220   -57124322.373 9  40526407.492 8
  23191732.958    23191738.394    -7686949.971 8  -7395977.310 8
  21805035.188    21805038.929   -36031342.307 9  34191498.831 8
 88  4  1  6 45 29.0800000  0  4G 3G13G11G 9
  22571690.811    22571696.661  -101333186.333 8 123279727.326 9
  20870468.664    20870470.578   -57101877.338 9  40543897.156 8
  23204721.727    23204727.116    -7618695.462 7  -7342791.978 9
  21824041.182    21824044.646   -35931471.245 8  34269320.444 7
 88  4  1  6 45 59.0800000  0  4G 3G13G11G 9
  22561888.311    22561894.377  -101384696.650 8 123239589.468 7
  20874780.565    20874783.102   -57079215.298 9  40561555.893 8
  23217708.630    23217714.451    -7550444.734 7  -7289609.592 8
  21843121.004    21843124.726   -35831198.978 8  34347454.662 8
 88  4  1  6 46 29.0800000  0  4G 3G13G11G 9
  22552128.288    22552134.002  -101435988.170 8 123199622.117 8
  20879132.385    20879136.465   -57056337.813 9  40579382.506 8
  23230696.024    23230701.811    -7482198.778 8  -7236430.961 8
  21862278.073    21862281.809   -35730528.130 8  34425899.450 8
 88  4  1  6 46 59.0800000  0  4G 3G13G11G 9
  22542409.099    22542413.720  -101487060.579 8 123159825.476 8
  20883528.875    20883531.206   -57033246.013 9  40597376.143 8
  23243681.496    23243686.499    -7413957.969 8  -7183256.285 8
  21881509.212    21881514.973   -35629461.817 8  34504652.396 8
 88  4  1  6 47 29.0800000  0  4G 3G13G11G 9
  22532731.599    22532736.358  -101537915.045 7 123120198.680 8
  20887962.322    20887967.014   -57009941.942 8  40615535.167 8
  23256666.641    23256670.907    -7345723.645 9  -7130086.700 8
  21900817.108    21900821.606   -35528003.294 7  34583710.998 8
 88  4  1  6 47 59.0800000  0  4G 3G13G11G 9
  22523096.312    22523101.234  -101588552.120 9 123080741.242 8
  20892437.438    20892441.896   -56986427.023 8  40633858.475 9
  23269651.461    23269654.467    -7277496.774 9  -7076922.878 9
  21920196.335    21920202.678   -35426156.298 8  34663072.245 9
 88  4  1  6 48 29.0800000  0  4G 3G13G11G 9
  22513502.339    22513505.014  -101638972.258 9 123041452.872 7
  20896951.250    20896955.317   -56962703.345 9  40652344.457 8
  23282631.741    23282637.866    -7209277.761 8  -7023765.208 9
  21939652.298    21939656.724   -35323923.531 8  34742734.131 8
 88  4  1  6 48 59.0800000  0  4G 3G13G11G 9
  22503948.331    22503952.864  -101689176.421 9 123002332.789 8
  20901504.236    20901509.770   -56938772.680 9  40670991.732 8
  23295609.914    23295615.728    -7141067.917 9  -6970614.671 9
  21959178.969    21959183.624   -35221308.443 9  34822693.938 8
 88  4  1  6 49 29.0800000  0  4G 3G13G11G 9
  22494435.088    22494440.039  -101739164.802 8 122963380.832 8
  20906097.683    20906102.061   -56914636.218 8  40689799.367 8
  23308588.540    23308593.250    -7072867.606 7  -6917471.580 8
  21978779.046    21978782.406   -35118314.030 8  34902949.308 7
 88  4  1  6 49 59.0800000  0  4G 3G13G11G 9
  22484964.564    22484968.402  -101788937.874 8 122924596.647 8
  20910729.285    20910733.453   -56890295.491 8  40708766.174 8
  23321566.687    23321569.294    -7004677.653 8  -6864336.586 8
  21998448.268    21998453.947   -35014943.337 8  34983497.868 9
 88  4  1  6 50 29.0800000  0  4G 3G13G11G 9
  22475533.271    22475537.111  -101838496.383 9 122885979.665 7
  20915400.902    20915403.433   -56865752.397 9  40727890.684 8
  23334538.822    23334544.902    -6936499.062 8  -6811210.383 9
  22018190.396    22018194.774   -34911200.009 8  35064336.810 9
 88  4  1  6 50 59.0800000  0  4G 3G13G11G 9
  22466143.346    22466147.743  -101887840.936 8 122847529.390 8
  20920110.376    20920112.925   -56841008.236 9  40747171.890 8
  23347512.131    23347516.124    -6868332.212 9  -6758093.369 9
  22038001.911    22038006.476   -34807086.646 9  35145464.081 8
 88  4  1  6 51 29.0800000  0  4G 3G13G11G 9
  22456791.692    22456799.199  -101936971.868 8 122809245.592 8
  20924856.360    20924858.759   -56816064.544 9  40766608.523 8
  23360481.073    23360485.896    -6800177.837 9  -6704986.088 8
  22057885.502    22057888.787   -34702607.141 7  35226876.680 8
 88  4  1  6 51 59.0800000  0  4G 3G13G11G 9
  22447485.147    22447489.990  -101985890.048 8 122771127.590 7
  20929638.921    20929644.249   -56790922.921 9  40786199.398 7
  23373448.223    23373452.402    -6732037.071 8  -6651889.376 9
  22077835.555    22077840.748   -34597764.563 8  35308572.178 9
 88  4  1  6 52 29.0800000  0  4G 3G13G12G 9
  22438216.702    22438221.512  -102034595.653 8 122733175.209 8
  20934461.187    20934465.684   -56765584.740 9  40805943.434 8
                  20688917.658  -109451732.909 9
  22097855.631    22097859.928   -34492561.979 8  35390548.191 8
 88  4  1  6 52 59.0800000  0  4G 3G13G12G 9
  22428986.965    22428990.811  -102083089.559 8 122695387.826 8
  20939318.957    20939324.389   -56740051.351 8  40825839.564 8
  20692127.316    20692131.986  -109434964.084 8 138976787.433 9
  22117943.015    22117946.330   -34387002.511 8  35472802.309 8
 88  4  1  6 53 29.0800000  0  4G 3G13G12G 9
  22419801.392    22419804.028  -102131372.221 7 122657765.000 7
  20944215.591    20944219.170   -56714324.718 9  40845886.318 9
  20695440.187    20695444.912  -109417550.602 7 138990356.370 8
  22138097.439    22138100.444   -34281089.659 8  35555331.803 7
 88  4  1  6 53 59.0800000  0  4G 3G13G12G 9
  22410652.937    22410657.170  -102179444.471 8 122620306.142 8
  20949149.268    20949152.561   -56688406.653 9  40866082.217 8
  20698877.143    20698882.953  -109399492.468 8 139004427.640 8
  22158318.500    22158322.926   -34174826.636 8  35638134.122 7
 88  4  1  6 54 29.0800000  0  4G 3G13G12G 9
  22401544.454    22401550.209  -102227306.986 8 122583010.705 7
  20954116.106    20954120.884   -56662298.283 8  40886426.420 8
  20702436.770    20702441.954  -109380789.783 8 139019001.150 8
  22178606.645    22178609.543   -34068216.980 9  35721206.562 8
 88  4  1  6 54 59.0800000  0  4G 3G13G12G 9
  22392476.735    22392481.636  -102274959.792 8 122545878.716 8
  20959120.884    20959123.492   -56636001.251 8  40906917.598 7
  20706117.085    20706124.154  -109361442.873 8 139034076.667 8
  22198958.275    22198962.505   -33961263.320 8  35804547.041 8
 88  4  1  6 55 29.0800000  0  4G 3G13G12G 9
  22383448.686    22383452.616  -102322403.857 8 122508909.333 8
  20964159.252    20964163.994   -56609517.051 9  40927554.657 7
  20709923.982    20709928.290  -109341452.478 8 139049653.577 8
  22219375.518    22219379.620   -33853969.682 7  35888152.503 8
 88  4  1  6 55 59.0800000  0  4G 3G13G12G 9
  22374459.246    22374464.311  -102369639.894 9 122472102.062 8
  20969235.183    20969240.477   -56582847.212 9  40948336.349 7
  20713848.257    20713853.832  -109320818.905 8 139065731.676 7
  22239857.907    22239861.472   -33746338.688 7  35972020.786 7
 88  4  1  6 56 29.0800000  0  4G 3G13G12G 9
  22365509.289    22365515.801  -102416668.830 8 122435456.157 7
  20974346.191    20974349.971   -56555993.177 8  40969261.572 8
  20717897.029    20717902.257  -109299543.478 8 139082309.924 7
  22260401.671    22260406.174   -33638373.880 8  36056149.182 9
 88  4  1  6 56 59.0800000  0  4G 3G13G12G 9
  22356601.358    22356604.710  -102463491.161 8 122398971.262 8
  20979489.881    20979494.949   -56528956.021 9  40990329.484 8
  20722067.949    20722072.558  -109277626.169 8 139099388.326 8
  22281007.154    22281015.074   -33530078.785 7  36140534.930 9
 88  4  1  6 57 29.0800000  0  4G 3G13G12G 9
  22347728.412    22347734.313  -102510107.312 8 122362647.021 8
  20984669.714    20984673.862   -56501738.238 8  41011538.168 7
  20726360.654    20726364.718  -109255067.677 8 139116966.370 8
  22301680.918    22301684.681   -33421456.499 8  36225175.650 8
 88  4  1  6 57 59.0800000  0  4G 3G13G12G 9
  22338897.438    22338903.109  -102556517.322 8 122326483.406 8
  20989881.968    20989886.698   -56474340.549 9  41032887.013 8
  20730776.093    20730780.520  -109231868.394 7 139135043.726 8
  22322411.618    22322415.665   -33312510.300 8  36310068.783 9
 88  4  1  6 58 29.0800000  0  4G 3G13G12G 9
  22330104.496    22330109.853  -102602722.677 8 122290479.272 8
  20995132.056    20995135.743   -56446764.681 8  41054374.718 7
  20735312.948    20735315.967  -109208028.893 7 139153619.947 8
  22343205.332    22343208.578   -33203243.474 9  36395211.771 8
 88  4  1  6 58 59.0800000  0  4G 3G13G12G 9
  22321352.121    22321356.113  -102648723.989 7 122254634.132 8
  21000411.292    21000414.310   -56419011.878 7  41076000.264 8
  20739970.189    20739974.645  -109183549.970 7 139172694.420 8
  22364057.065    22364062.729   -33093659.423 7  36480601.901 8
 88  4  1  6 59 29.0800000  0  4G 3G13G12G 9
  22312635.317    22312641.100  -102694521.201 8 122218948.049 8
  21005726.553    21005730.619   -56391084.080 8  41097762.199 7
  20744750.172    20744756.216  -109158433.060 8 139192266.036 7
  22384971.816    22384973.911   -32983761.402 8  36566236.703 8
 88  4  1  6 59 59.0800000  0  4G 3G13G12G 9
  22303962.190    22303964.961  -102740115.428 7 122183420.116 8
  21011072.881    21011078.154   -56362983.056 8  41119659.094 8
  20749651.070    20749654.771  -109132678.731 9 139212334.339 7
  22405943.008    22405946.190   -32873553.133 7  36652113.255 9
 88  4  1  7  0 29.0800000  0  4G 3G13G12G 9
  22295322.657    22295326.864  -102785507.494 8 122148049.705 8
  21016455.130    21016456.839   -56334709.696 8  41141690.301 7
  20754672.740    20754677.137  -109106287.060 8 139232899.260 8
  22426972.897    22426978.697   -32763037.484 9  36738229.333 9
 88  4  1  7  0 59.0800000  0  4G 3G13G12G 9
  22286723.482    22286728.105  -102830697.873 8 122112836.440 8
  21021867.555    21021871.623   -56306265.539 8  41163854.575 8
  20759817.166    20759820.604  -109079259.121 9 139253959.993 8
  22448060.740    22448066.210   -32652217.942 8  36824582.212 8
 88  4  1  7  1 29.0800000  0  4G 3G13G12G 9
  22278162.715    22278166.099  -102875687.472 8 122077779.626 8
  21027311.646    21027317.880   -56277652.135 9  41186150.715 8
  20765081.827    20765085.185  -109051595.915 8 139275515.727 8
  22469206.035    22469212.333   -32541098.080 8  36911169.090 9
 88  4  1  7  1 59.0800000  0  4G 3G13G12G 9
  22269639.507    22269643.807  -102920476.734 9 122042878.925 8
  21032789.652    21032794.851   -56248870.625 8  41208577.860 8
  20770465.427    20770469.074  -109023298.509 9 139297565.639 8
  22490407.305    22490412.747   -32429680.894 8  36997987.639 8
 88  4  1  7  2 29.0800000  0  4G 3G13G12G 9
  22261152.247    22261157.485  -102965066.253 7 122008133.881 8
  21038297.982    21038300.156   -56219922.636 7  41231134.766 8
  20775970.140    20775975.453  -108994367.778 8 139320109.049 8
  22511666.571    22511672.655   -32317970.021 7  37085035.059 9
 88  4  1  7  2 59.0800000  0  4G 3G13G12G 9
  22252705.616    22252711.725  -103009456.933 8 121973543.761 8
  21043837.306    21043840.732   -56190809.890 8  41253820.029 8
  20781596.949    20781600.779  -108964804.867 8 139343145.083 9
  22532979.067    22532983.165   -32205968.820 8  37172308.719 8
 88  4  1  7  3 29.0800000  0  4G 3G13G12G 9
  22244296.553    22244301.048  -103053649.071 8 121939108.337 8
  21049408.020    21049412.706   -56161533.426 9  41276632.865 7
  20787342.399    20787347.412  -108934609.659 8 139366673.808 9
  22554346.326    22554351.109   -32093680.210 8  37259806.319 8
 88  4  1  7  3 59.0800000  0  4G 3G13G12G 9
  22235925.004    22235928.760  -103097644.031 9 121904826.576 8
  21055010.416    21055013.852   -56132094.653 9  41299572.172 7
  20793207.472    20793212.902  -108903783.642 9 139390694.069 8
  22575768.673    22575773.400   -31981107.897 8  37347525.006 8
 88  4  1  7  4 29.0800000  0  4G 3G13G12G 9
  22227589.398    22227594.944  -103141441.787 9 121870698.440 8
  21060643.100    21060647.649   -56102495.369 9  41322636.541 7
  20799193.949    20799197.201  -108872328.424 8 139415204.615 8
  22597244.895    22597249.636   -31868255.646 8  37435461.790 9
 88  4  1  7  4 59.0800000  0  4G 3G13G12G 9
  22219293.736    22219299.153  -103185043.207 8 121836723.339 8
  21066307.043    21066309.131   -56072736.376 8  41345825.374 8
  20805298.920    20805303.169  -108840244.652 8 139440204.938 8
  22618772.273    22618776.727   -31755126.086 7  37523614.677 8
 88  4  1  7  5 29.0800000  0  4G 3G13G12G 9
  22211034.507    22211036.209  -103228448.941 8 121802900.736 9
  21071999.052    21072002.147   -56042819.496 8  41369137.228 7
  20811525.281    20811527.622  -108807533.565 9 139465694.085 7
  22640351.220    22640356.052   -31641723.419 8  37611980.382 8
 88  4  1  7  5 59.0800000  0  4G 3G13G12G 9
  22202811.228    22202813.623  -103271659.332 8 121769230.318 7
  21077722.430    21077727.139   -56012745.955 8  41392571.166 7
  20817868.659    20817871.223  -108774195.679 9 139491671.656 8
  22661982.913    22661987.372   -31528049.994 8  37700557.079 9
 88  4  1  7  6 29.0800000  0  4G 3G13G12G 9
  22194624.965    22194628.623  -103314675.388 8 121735711.324 8
  21083474.122    21083477.317   -55982517.158 8  41416126.077 8
  20824332.532    20824335.604  -108740232.566 8 139518136.414 8
  22683665.280    22683670.203   -31414109.761 8  37789341.663 8
 88  4  1  7  6 59.0800000  0  4G 3G13G12G 9
  22186475.430    22186479.545  -103357498.204 8 121702342.885 8
  21089257.367    21089258.718   -55952134.996 9  41439800.504 8
  20830913.163    20830917.094  -108705645.609 8 139545087.263 7
  22705397.563    22705402.595   -31299906.235 8  37878331.399 9
 88  4  1  7  7 29.0800000  0  4G 3G13G12G 9
  22178363.184    22178368.436  -103400128.350 8 121669124.635 8
  21095066.356    21095071.938   -55921599.955 8  41463594.038 8
  20837613.770    20837616.713  -108670436.059 9 139572523.273 7
  22727178.822    22727185.602   -31185442.526 7  37967523.855 9
 88  4  1  7  7 59.0800000  0  4G 3G13G12G 9
  22170289.371    22170291.676  -103442566.533 8 121636055.926 8
  21100907.126    21100909.602   -55890913.933 8  41487505.231 9
  20844431.533    20844436.338  -108634605.023 8 139600443.544 7
  22749010.513    22749015.617   -31070722.107 8  38056916.368 8
 88  4  1  7  8 29.0800000  0  4G 3G13G12G 9
  22162248.298    22162253.916  -103484812.966 8 121603136.649 8
  21106773.979    21106777.974   -55860078.088 8  41511533.169 7
  20851368.859    20851372.438  -108598153.781 9 139628847.105 8
  22770887.689    22770892.076   -30955748.419 8  38146506.262 7
 88  4  1  7  8 59.0800000  0  4G 3G13G12G 9
                  22152472.095  -115551964.651 1
  21112670.065    21112673.632   -55829093.324 8  41535677.166 7
  20858421.630    20858427.601  -108561082.841 8 139657733.517 6
  22792815.500    22792819.705   -30840524.211 8  38236291.348 9
 88  4  1  7  9 29.0800000  0  4G 3G13G12G 9
                  22144188.154  -115725625.252 1
  21118594.131    21118597.018   -55797961.200 9  41559935.965 7
  20865593.678    20865597.465  -108523394.545 8 139687101.030 7
  22814787.283    22814792.958   -30725053.705 7  38326268.323 7
 88  4  1  7  9 59.0800000  0  4G 3G13G12G 9
                  22138313.616  -115788440.198 9
  21124545.747    21124548.864   -55766684.014 9  41584307.816 8
  20872882.809    20872887.659  -108485089.869 8 139716948.798 8
  22836809.044    22836812.340   -30609340.284 9  38416434.617 8
 88  4  1  7 10 29.0800000  0  4G 3G13G12G 9
  22130453.863    22130457.581  -115829927.541 8 146882871.974 8
  21130525.188    21130529.362   -55735262.249 9  41608792.312 8
  20880289.386    20880293.438  -108446170.143 8 139747275.859 8
  22858872.490    22858877.615   -30493387.003 7  38506787.824 7
 88  4  1  7 10 59.0800000  0  4G 3G13G12G 9
  22122595.358    22122599.100  -115871227.095 9 146850690.531 8
  21136531.974    21136535.866   -55703697.387 9  41633388.306 8
  20887811.666    20887816.403  -108406636.904 8 139778080.963 7
  22880983.019    22880989.015   -30377197.816 7  38597324.853 8
 88  4  1  7 11 29.0800000  0  4G 3G13G12G 9
  22114769.785    22114776.350  -115912339.434 8 146818654.961 9
  21142565.385    21142569.663   -55671990.378 8  41658095.067 7
  20895451.341    20895457.018  -108366491.437 7 139809363.116 8
  22903137.392    22903142.386   -30260775.292 6  38688043.659 8
 88  4  1  7 11 59.0800000  0  4G 3G13G12G 9
  22106983.455    22106987.071  -115953265.086 9 146786764.870 8
  21148627.988    21148629.307   -55640142.791 9  41682911.374 7
  20903205.792    20903211.227  -108325735.116 8 139841121.295 7
  22925335.162    22925339.932   -30144123.127 7  38778941.448 8
 88  4  1  7 12 29.0800000  0  4G 3G13G12G 9
  22099229.920    22099234.380  -115994005.247 8 146755019.342 8
  21154714.249    21154715.619   -55608156.418 9  41707835.842 8
  20911079.016    20911083.396  -108284369.390 8 139873354.309 9
  22947577.674    22947582.273   -30027245.081 8  38870015.233 8
 88  4  1  7 12 59.0800000  0  4G 3G13G12G 9
  22091512.915    22091516.740  -116034560.053 8 146723418.205 7
  21160826.250    21160830.051   -55576031.942 9  41732867.926 8
  20919066.791    20919070.841  -108242395.865 8 139906060.931 8
  22969861.075    22969864.057   -29910144.178 7  38961262.690 7
 88  4  1  7 13 29.0800000  0  4G 3G13G12G 9
  22083830.307    22083835.081  -116074930.694 8 146691960.592 8
  21166965.192    21166969.051   -55543770.407 9  41758006.773 7
  20927168.052    20927171.646  -108199816.531 8 139939239.632 8
  22992186.002    22992190.077   -29792824.031 7  39052680.975 8
 88  4  1  7 13 59.0800000  0  4G 3G13G12G 9
  22076184.073    22076188.075  -116115117.664 8 146660646.096 9
  21173130.336    21173132.694   -55511373.888 9  41783250.833 8
  20935387.514    20935390.551  -108156632.517 8 139972889.498 8
  23014551.350    23014557.926   -29675287.785 7  39144267.640 8
 88  4  1  7 14 29.0800000  0  4G 3G13G12G 9
  22068571.745    22068575.098  -116155121.142 8 146629474.595 8
  21179319.279    21179325.340   -55478842.463 9  41808599.994 8
  20943716.628    20943725.220  -108112845.523 8 140007009.227 8
  23036959.196    23036964.029   -29557538.692 8  39236020.161 8
 88  4  1  7 14 59.0800000  0  4G 3G13G12G 9
  22060992.859    22060998.041  -116194942.376 8 146598445.080 8
  21185537.639    21185541.196   -55446178.126 9  41834052.719 9
  20952167.012    20952171.100  -108068457.062 8 140041597.613 8
  23059404.658    23059409.468   -29439580.798 8  39327935.409 8
 88  4  1  7 15 29.0800000  0  4G 3G13G12G 9
  22053450.586    22053453.614  -116234582.554 8 146567556.644 9
  21191779.907    21191781.795   -55413382.052 9  41859608.121 8
  20960726.139    20960731.630  -108023469.012 8 140076653.220 8
  23081892.062    23081896.601   -29321417.035 8  39420011.027 8
 88  4  1  7 15 59.0800000  0  4G 3G13G12G 9
  22045941.351    22045946.374  -116274041.862 8 146536809.160 8
  21198043.242    21198046.501   -55380455.256 9  41885265.378 9
  20969401.529    20969406.577  -107977883.003 9 140112174.775 8
  23104415.601    23104420.537   -29203050.860 8  39512244.388 8
 88  4  1  7 16 29.0800000  0  4G 3G13G12G 9
  22038467.060    22038469.483  -116313321.268 8 146506201.860 8
  21204331.951    21204337.898   -55347399.569 8  41911023.053 8
  20978190.587    20978194.963  -107931700.797 8 140148160.886 8
  23126979.182    23126981.557   -29084485.859 9  39604632.678 8
 88  4  1  7 16 59.0800000  0  4G 3G13G12G 9
  22031027.327    22031030.710  -116352421.141 9 146475734.442 8
  21210647.296    21210651.304   -55314215.792 8  41936880.544 9
  20987091.660    20987095.827  -107884923.601 8 140184610.620 8
  23149577.426    23149582.626   -28965725.176 7  39697173.467 8
 88  4  1  7 17 29.0800000  0  4G 3G13G12G 9
  22023619.026    22023622.899  -116391342.354 9 146445406.228 8
  21216985.417    21216989.646   -55280904.909 7  41962837.083 8
  20996104.772    20996110.492  -107837553.607 9 140221522.316 8
  23172213.126    23172218.766   -28846772.718 7  39789863.666 7
 88  4  1  7 17 59.0800000  0  4G 3G13G12G 9
  22016247.076    22016251.388  -116430086.025 9 146415216.375 8
  21223349.234    21223352.753   -55247468.780 8  41988891.216 8
  21005230.899    21005237.723  -107789593.196 8 140258894.051 8
  23194885.812    23194890.201   -28727631.683 7  39882700.826 7
 88  4  1  7 18 29.0800000  0  4G 3G13G12G 9
  22008909.012    22008913.628  -116468652.247 8 146385164.799 8
  21229734.459    21229740.359   -55213908.560 8  42015042.054 9
  21014471.869    21014475.767  -107741043.577 8 140296724.909 8
  23217592.010    23217596.262   -28608305.289 8  39975682.422 8
 88  4  1  7 18 59.0800000  0  4G 3G13G12G 9
  22001602.801    22001606.601  -116507041.921 9 146355250.790 8
  21236145.494    21236151.134   -55180225.006 9  42041288.974 9
  21023820.991    21023824.898  -107691906.059 8 140335013.865 9
  23240335.000    23240339.424   -28488796.762 7  40068805.949 8
 88  4  1  7 19 29.0800000  0  4G 3G13G12G 9
  21994332.215    21994335.331  -116545255.721 8 146325473.831 8
  21242580.292    21242583.365   -55146419.041 9  42067631.306 8
  21033282.785    21033288.710  -107642182.847 8 140373759.211 8
  23263110.512    23263114.561   -28369109.563 8  40162068.689 8
 88  4  1  7 19 59.0800000  0  4G 3G13G12G 9
  21987091.994    21987095.461  -116583294.507 9 146295833.223 8
  21249034.749    21249039.922   -55112491.614 8  42094068.271 9
  21042855.988    21042861.388  -107591875.648 8 140412959.601 9
  23285918.889    23285923.768   -28249246.900 8  40255468.149 8
 88  4  1  7 20 29.0800000  0  4G 3G13G12G 9
  21979888.042    21979891.855  -116621159.230 8 146266328.235 9
  21255511.529    21255518.356   -55078443.990 8  42120598.855 9
  21052539.249    21052545.154  -107540986.646 8 140452613.350 7
  23308759.857    23308765.157   -28129212.692 7  40349001.280 8
 88  4  1  7 20 59.0800000  0  4G 3G13G12G 9
  21972713.996    21972719.544  -116658850.066 9 146236958.787 9
  21262012.527    21262018.814   -55044277.519 8  42147222.075 9
  21062334.295    21062340.049  -107489517.388 9 140492719.258 8
  23331635.613    23331639.722   -28009009.901 8  40442665.772 8
 88  4  1  7 21 29.0800000  0  4G 3G13G12G 9
  21965574.758    21965580.218  -116696367.833 9 146207724.158 8
  21268539.353    21268542.439   -55009993.165 8  42173937.141 8
  21072236.173    21072243.121  -107437470.362 7 140533275.371 8
  23354540.280    23354543.691   -27888642.001 8  40536458.914 8
 88  4  1  7 21 59.0800000  0  4G 3G13G12G 9
  21958468.909    21958472.906  -116733713.379 9 146178623.761 8
  21275084.712    21275088.511   -54975592.454 8  42200742.933 8
  21082252.745    21082257.209  -107384847.660 8 140574280.057 8
  23377476.415    23377481.014   -27768112.455 8  40630378.044 8
 88  4  1  7 22 29.0800000  0  4G 3G13G12G 9
  21951393.885    21951398.976  -116770887.480 8 146149656.944 8
  21281654.330    21281657.994   -54941076.489 9  42227638.500 8
  21092374.712    21092378.958  -107331650.853 8 140615732.093 7
  23400440.763    23400446.343   -27647424.580 8  40724420.511 8
 88  4  1  7 22 59.0800000  0  4G 3G13G12G 9
  21944352.732    21944356.236  -116807891.068 9 146120822.999 8
  21288245.001    21288248.423   -54906446.103 9  42254623.231 8
  21102607.116    21102612.139  -107277881.810 7 140657630.032 8
  23423437.095    23423441.499   -27526581.828 8  40818583.673 8
 88  4  1  7 23 29.0800000  0  4G 3G13G12G 9
  21937344.614    21937347.238  -116844724.126 9 146092121.904 9
  21294855.174    21294860.082   -54871702.542 8  42281696.139 8
  21112949.452    21112952.486  -107223542.875 6 140699972.055 6
  23446464.241    23446465.995   -27405587.363 8  40912865.098 8
 88  4  1  7 23 59.0800000  0  4G 3G13G12G 9
  21930365.503    21930371.192  -116881388.131 9 146063552.590 8
  21301484.914    21301491.471   -54836846.705 8  42308856.512 8
  21123396.573    21123398.901  -107168636.410 7 140742756.290 6
  23469515.078    23469520.194   -27284444.831 8  41007261.840 9
 88  4  1  7 24 29.0800000  0  4G 3G13G12G 9
  21923422.596    21923426.022  -116917883.156 9 146035114.914 8
  21308138.827    21308146.777   -54801879.374 9  42336103.763 8
  21133950.720    21133955.336  -107113164.006 9 140785981.509 8
  23492596.756    23492599.798   -27163157.489 7  41101771.428 8
 88  4  1  7 24 59.0800000  0  4G 3G13G12G 9
  21916508.951    21916513.331  -116954210.227 9 146006808.131 8
  21314818.347    21314822.667   -54766802.068 1  42363436.724 8
  21144616.470    21144617.283  -107057127.885 5 140829646.027 2
                  23143024.342  -121308457.612 1
 88  4  1  7 25 29.0800000  0  4G 3G13G12G 9
  21909628.404    21909632.565  -116990369.826 8 145978631.826 8
  21321513.302    21321516.416   -54731615.788 8  42390854.607 7
  21155385.788    21155390.892  -107000530.503 8 140873747.851 8
                  17920241.025  -121460111.077 1
 88  4  1  7 25 59.0800000  0  4G 3G13G12G 9
  21902778.859    21902783.046  -117026362.962 9 145950585.247 8
  21328229.091    21328232.179   -54696321.451 8  42418356.710 8
  21166263.385    21166267.112  -106943373.729 9 140918285.584 8
                  23561964.189  -121384582.519 8
 88  4  1  7 26 29.0800000  0  4G 3G13G12G 9
  21895960.071    21895964.878  -117062190.954 8 145922667.343 9
  21334966.852    21334969.296   -54660920.438 8  42445941.936 9
  21177245.280    21177249.517  -106885659.741 9 140963257.519 8
  23585179.904    23585183.089  -121262750.405 7 154265619.697 8
 88  4  1  7 26 59.0800000  0  4G 3G13G12G 9
  21889176.093    21889177.647  -117097853.741 8 145894878.199 8
  21341723.072    21341725.988   -54625413.455 8  42473609.732 7
  21188333.329    21188337.952  -106827390.879 8 141008661.817 9
  23608387.069    23608392.577  -121140789.442 7 154360654.197 8
 88  4  1  7 27 29.0800000  0  4G 3G13G12G 9
  21882419.339    21882423.250  -117133352.496 9 145867216.853 8
  21348497.965    21348502.432   -54589801.719 8  42501359.133 8
  21199527.380    21199532.383  -106768569.808 9 141054496.401 8
  23631618.652    23631623.436  -121018703.991 7 154455785.683 8
 88  4  1  7 27 59.0800000  0  4G 3G13G12G 9
  21875696.664    21875698.359  -117168687.421 9 145839683.161 8
  21355295.598    21355300.569   -54554085.959 9  42529189.598 9
  21210825.169    21210830.116  -106709198.018 8 141100760.122 8
  23654871.717    23654880.737  -120896496.798 7 154551012.033 7
 88  4  1  7 28 29.0800000  0  4G 3G13G12G 9
  21869002.322    21869006.389  -117203859.085 9 145812276.694 9
  21362111.404    21362116.621   -54518267.189 9  42557100.304 8
  21222227.987    21222231.835  -106649277.980 9 141147451.044 8
  23678152.047    23678157.998  -120774171.845 8 154646330.143 7
 88  4  1  7 28 59.0800000  0  4G 3G13G12G 9
  21862341.414    21862344.503  -117238868.079 9 145784996.986 8
  21368947.317    21368950.817   -54482346.445 9  42585090.489 8
  21233733.463    21233738.102  -106588812.133 9 141194567.248 8
  23701451.525    23701455.379  -120651732.139 8 154741737.715 7
 88  4  1  7 29 29.0800000  0  4G 3G13G12G 9
  21855708.908    21855714.657  -117273715.809 8 145757842.919 9
  21375802.877    21375804.960   -54446325.283 8  42613158.941 8
  21245342.822    21245347.441  -106527802.893 8 141242106.906 7
  23724772.366    23724775.384  -120529181.304 8 154837231.883 7
 88  4  1  7 29 59.0800000  0  4G 3G13G12G 9
  21849109.058    21849111.505  -117308402.924 9 145730814.043 9
  21382674.798    21382680.064   -54410203.865 9  42641305.501 8
  21257054.319    21257061.083  -106466252.765 9 141290068.020 8
  23748113.654    23748117.928  -120406522.529 8 154932810.142 8
 88  4  1  7 30 29.0800000  0  4G 3G13G12G 9
  21842537.309    21842542.324  -117342929.510 9 145703910.206 9
  21389567.713    21389572.927   -54373982.985 8  42669529.565 8
  21268870.363    21268875.993  -106404163.363 8 141338449.340 8
  23771474.211    23771478.522  -120283758.851 7 155028470.158 8
 88  4  1  7 30 59.0800000  0  4G 3G13G12G 9
  21835999.210    21836003.286  -117377296.222 8 145677131.001 8
  21396478.989    21396482.113   -54337663.605 8  42697830.386 8
  21280787.968    21280793.225  -106341537.263 8 141387248.881 9
  23794854.425    23794860.172  -120160893.771 7 155124209.143 8
 88  4  1  7 31 29.0800000  0  4G 3G13G12G 9
  21829489.276    21829492.943  -117411504.458 8 145650475.222 9
  21403409.267    21403412.265   -54301247.181 9  42726206.834 8
  21292806.076    21292811.398  -106278377.847 8 141436464.003 8
  23818254.505    23818258.610  -120037930.995 7 155220024.230 9
 88  4  1  7 31 59.0800000  0  4G 3G13G12G 9
  21823009.787    21823012.830  -117445554.462 8 145623942.785 7
  21410358.604    21410361.062   -54264734.436 9  42754658.332 9
  21304926.496    21304931.790  -106214686.992 8 141486093.232 8
  23841671.445    23841675.394  -119914873.742 8 155315912.994 9
 88  4  1  7 32 29.0800000  0  4G 3G13G12G 9
  21816559.702    21816563.516  -117479447.084 9 145597532.955 8
  21417324.009    21417329.015   -54228126.803 9  42783183.764 8
  21317146.720    21317152.525  -106150466.923 8 141536134.814 8
  23865105.900    23865110.121  -119791725.498 7 155411872.654 9
 88  4  1  7 32 59.0800000  0  4G 3G13G12G 9
  21810139.888    21810143.522  -117513182.757 9 145571245.440 9
  21424308.407    21424313.103   -54191424.377 9  42811783.024 8
  21329469.040    21329473.689  -106085720.372 9 141586586.670 8
  23888555.685    23888561.341  -119668489.069 6 155507900.991 9
 88  4  1  7 33 29.0800000  0  4G 3G13G12G 9
  21803750.031    21803754.040  -117546762.509 8 145545079.431 8
  21431310.641    21431316.010   -54154628.327 9  42840455.266 8
  21341887.817    21341894.130  -106020449.842 9 141637446.806 8
  23912023.500    23912027.644  -119545167.762 8 155603995.490 8
 88  4  1  7 33 59.0800000  0  4G 3G13G12G 9
  21797388.989    21797394.468  -117580187.002 8 145519034.396 8
  21438329.670    21438334.304   -54117739.779 8  42869199.597 9
  21354409.502    21354413.832  -105954657.619 9 141688713.451 8
  23935506.911    23935511.852  -119421764.961 7 155700153.486 9
 88  4  1  7 34 29.0800000  0  4G 3G13G12G 9
  21791059.400    21791062.890  -117613457.149 9 145493109.622 8
  21445365.643    21445369.671   -54080759.748 9  42898015.206 8
  21367027.193    21367031.941  -105888346.664 8 141740384.312 7
  23959004.517    23959010.388  -119298284.357 7 155796372.101 8
 88  4  1  7 34 59.0800000  0  4G 3G13G12G 9
  21784754.704    21784759.959  -117646573.283 8 145467304.840 8
  21452419.874    21452422.937   -54043688.265 8  42926902.062 8
  21379745.086    21379750.160  -105821519.104 8 141792457.718 8
  23982515.431    23982520.849  -119174728.796 8 155892649.148 7
 88  4  1  7 35 29.0800000  0  4G 3G13G12G 9
  21778483.408    21778487.030  -117679536.274 9 145441619.411 9
  21459492.683    21459496.435   -54006526.972 8  42955858.905 7
  21392560.220    21392563.971  -105754177.663 9 141844931.559 9
  24006041.689    24006046.411  -119051101.761 8 155988981.874 9
 88  4  1  7 35 59.0800000  0  4G 3G13G12G 9
  21772240.241    21772243.750  -117712346.423 8 145416053.078 8
  21466582.786    21466584.148   -53969275.764 9  42984885.843 8
  21405471.373    21405475.919  -105686324.768 8 141897803.940 9
  24029581.989    24029584.287  -118927406.127 8 156085368.069 7
 88  4  1  7 36 29.0800000  0  4G 3G13G12G 9
  21766025.464    21766029.636  -117745004.367 8 145390605.333 8
  21473688.416    21473691.779   -53931936.276 9  43013981.568 9
  21418479.821    21418484.183  -105617963.482 8 141951072.451 8
  24053131.538    24053134.194  -118803645.693 8 156181804.801 8
 88  4  1  7 36 59.0800000  0  4G 3G13G12G 9
  21759840.016    21759843.582  -117777511.416 9 145365275.193 8
  21480810.802    21480814.268   -53894509.158 9  43043145.554 8
  21431585.407    21431589.927  -105549095.978 9 142004735.432 8
  24076695.386    24076696.272  -118679823.839 8 156278289.330 8
 88  4  1  7 37 29.0800000  0  4G 3G13G12G 9
  21753682.175    21753686.906  -117809868.006 8 145340062.274 8
  21487948.176    21487952.731   -53856995.564 2  43072376.915 2
  21444785.456    21444790.597  -105479725.459 9 142058790.359 7
  24100268.072    24100271.557  -118555943.771 8 156374819.254 7
 88  4  1  7 37 59.0800000  0  4G 3G13G12G 9
  21747554.458    21747558.369  -117842074.508 8 145314966.327 8
  21495102.260    21495107.243   -53819396.148 9  43101675.133 7
  21458082.357    21458085.259  -105409854.486 9 142113235.280 7
  24123851.573    24123856.541  -118432008.558 8 156471392.114 7
 88  4  1  7 38 29.0800000  0  4G 3G13G12G 9
  21741453.272    21741457.580  -117874131.755 8 145289986.672 7
  21502271.289    21502277.373   -53781711.289 9  43131039.929 7
  21471472.448    21471476.802  -105339485.311 8 142168068.394 8
  24147445.672    24147448.910  -118308021.665 7 156568005.267 8
 88  4  1  7 38 59.0800000  0  4G 3G13G12G 9
  21735381.768    21735385.574  -117906040.024 8 145265123.090 8
  21509459.549    21509464.039   -53743941.936 8  43160470.590 8
  21484958.140    21484963.723  -105268620.512 9 142223287.689 8
  24171048.926    24171053.487  -118183985.585 7 156664656.709 7
 88  4  1  7 39 29.0800000  0  4G 3G13G12G 9
  21729336.620    21729341.704  -117937800.561 8 145240374.615 8
  21516664.198    21516667.864   -53706089.039 9  43189966.355 8
  21498535.607    21498542.202  -105197263.446 9 142278890.599 7
  24194661.173    24194666.417  -118059904.283 8 156761343.440 8
 88  4  1  7 39 59.0800000  0  4G 3G13G12G 9
  21723322.741    21723326.846  -117969413.838 7 145215740.921 7
  21523883.447    21523885.879   -53668153.403 9  43219526.586 7
  21512207.859    21512212.656  -105125416.480 9 142334875.235 8
  24218279.828    24218285.323  -117935780.868 7 156858062.953 7
 88  4  1  7 40 29.0800000  0  4G 3G13G12G 9
  21717334.359    21717337.360  -118000880.564 9 145191221.415 8
  21531117.796    21531121.963   -53630135.576 8  43249150.880 8
  21525972.388    21525976.636  -105053082.503 8 142391239.327 7
  24241904.841    24241912.598  -117811618.758 6 156954812.590 7
 88  4  1  7 40 59.0800000  0  4G 3G13G12G 9
  21711372.276    21711376.750  -118032201.386 8 145166815.598 7
  21538367.998    21538371.217   -53592036.621 9  43278838.369 7
  21539830.765    21539834.802  -104980264.136 8 142447980.930 8
  24265541.319    24265546.438  -117687421.199 6 157051589.870 8
 88  4  1  7 41 29.0800000  0  4G 3G13G12G 9
  21705441.783    21705447.028  -118063376.782 9 145142523.096 8
  21545632.875    21545636.573   -53553856.511 9  43308589.109 7
  21553777.952    21553783.006  -104906964.341 9 142505097.631 8
  24289182.830    24289186.959  -117563191.086 8 157148392.509 8
 88  4  1  7 41 59.0800000  0  4G 3G13G12G 9
  21699536.942    21699540.509  -118094407.145 8 145118343.610 8
  21552913.078    21552919.151   -53515596.149 9  43338402.354 8
  21567817.897    21567822.204  -104833185.661 8 142562587.482 8
  24312828.696    24312832.662  -117438931.340 9 157245218.259 7
 88  4  1  7 42 29.0800000  0  4G 3G13G12G 9
  21693658.525    21693662.439  -118125294.078 8 145094275.875 8
  21560209.460    21560215.167   -53477257.304 9  43368276.772 8
  21581947.909    21581951.300  -104758931.839 8 142620447.592 8
  24336479.643    24336482.541  -117314646.215 8 157342063.824 7
 88  4  1  7 42 59.0800000  0  4G 3G13G12G 9
  21687808.724    21687811.595  -118156037.785 9 145070319.750 9
  21567520.382    21567524.594   -53438839.787 9  43398212.480 8
  21596167.652    21596172.712  -104684205.782 8 142678675.673 8
  24360133.501    24360138.385  -117190338.972 9 157438926.599 8
 88  4  1  7 43 29.0800000  0  4G 3G13G12G 9
  21681985.757    21681988.725  -118186638.723 9 145046474.893 7
  21574846.044    21574850.019   -53400344.290 8  43428208.982 8
  21610477.366    21610482.660  -104609009.535 8 142737270.126 8
  24383792.939    24383796.195  -117066011.942 9 157535804.760 7
 88  4  1  7 43 59.0800000  0  4G 3G13G12G 9
  21676189.475    21676193.005  -118217097.105 8 145022741.097 7
  21582185.071    21582188.877   -53361771.887 8  43458265.413 7
  21624875.880    21624881.325  -104533345.694 9 142796228.940 7
  24407454.438    24407460.161  -116941668.613 9 157632695.679 8
 88  4  1  7 44 29.0800000  0  4G 3G13G12G 9
  21670420.146    21670424.687  -118247413.634 9 144999117.823 7
  21589539.344    21589543.986   -53323122.862 8  43488381.523 8
  21639362.735    21639367.731  -104457217.054 9 142855549.944 7
  24431118.389    24431123.776  -116817311.925 8 157729596.966 7
 88  4  1  7 44 59.0800000  0  4G 3G13G12G 9
  21664679.386    21664682.526  -118277589.526 8 144975604.171 7
  21596909.339    21596914.496   -53284398.130 9  43518556.621 9
  21653936.467    21653942.089  -104380627.056 9 142915230.449 8
  24454783.750    24454789.402  -116692945.235 7 157826506.053 7
 88  4  1  7 45 29.0800000  0  4G 3G13G12G 9
  21658961.805    21658966.755  -118307625.126 8 144952199.802 8
  21604291.541    21604297.684   -53245598.305 9  43548790.237 8
  21668599.732    21668604.681  -104303578.970 9 142975267.899 7
  24478452.032    24478456.915  -116568571.945 7 157923420.267 7
 88  4  1  7 45 59.0800000  0  4G 3G13G12G 9
  21653273.692    21653275.441  -118337520.726 8 144928904.546 7
  21611690.171    21611694.026   -53206724.020 9  43579081.903 7
  21683346.669    21683352.903  -104226075.250 9 143035660.401 7
  24502120.534    24502123.979  -116444194.819 7 158020337.479 6
 88  4  1  7 46 29.0800000  0  4G 3G13G12G 9
  21647612.498    21647616.310  -118367277.092 8 144905717.760 9
  21619102.112    21619106.966   -53167775.991 9  43609431.012 8
  21698182.918    21698187.925  -104148119.302 9 143096405.275 7
  24525787.603    24525792.160  -116319817.381 7 158117254.938 8
 88  4  1  7 46 59.0800000  0  4G 3G13G12G 9
  21641975.395    21641979.633  -118396894.722 9 144882639.111 8
  21626527.095    21626531.811   -53128754.343 9  43639837.493 8
  21713101.273    21713107.515  -104069713.350 9 143157500.832 8
  24549457.087    24549460.293  -116195442.694 8 158214170.269 7
 88  4  1  7 47 29.0800000  0  4G 3G13G12G 9
  21636367.063    21636370.593  -118426374.320 8 144859667.979 7
  21633968.101    21633970.874   -53089660.185 9  43670300.473 7
  21728106.112    21728111.991  -103990860.817 9 143218944.349 7
  24573122.680    24573129.158  -116071073.773 7 158311081.082 8
 88  4  1  7 47 59.0800000  0  4G 3G13G12G 9
  21630782.691    21630785.751  -118455717.302 8 144836803.323 8
  21641420.766    21641424.887   -53050494.416 9  43700819.275 8
  21743195.899    21743201.578  -103911565.400 9 143280732.959 8
  24596787.852    24596792.765  -115946714.560 8 158407984.354 7
 88  4  1  7 48 29.0800000  0  4G 3G13G12G 9
  21625224.126    21625227.605  -118484923.652 9 144814045.124 8
  21648884.824    21648890.404   -53011257.156 9  43731393.752 8
  21758369.315    21758373.688  -103831829.283 9 143342864.999 8
  24620448.394    24620456.382  -115822367.602 6 158504878.038 7
 88  4  1  7 48 59.0800000  0  4G 3G13G12G 9
  21619691.937    21619695.159  -118513993.441 9 144791393.338 8
  21656366.924    21656369.533   -52971948.374 9  43762023.967 7
  21773626.377    21773631.547  -103751655.099 9 143405338.382 8
  24644109.916    24644112.906  -115698035.374 7 158601760.275 8
 88  4  1  7 49 29.0800000  0  4G 3G13G12G 9
  21614184.214    21614190.453  -118542927.570 8 144768847.281 9
  21663860.831    21663863.527   -52932569.835 9  43792708.564 7
  21788965.827    21788969.590  -103671046.613 8 143468150.154 8
  24667766.356    24667769.826  -115573721.855 7 158698627.924 7
 88  4  1  7 49 59.0800000  0  4G 3G13G12G 9
  21608705.721    21608710.141  -118571726.537 8 144746406.549 7
  21671368.031    21671370.655   -52893121.672 8  43823447.402 7
  21804386.522    21804392.254  -103590006.768 7 143531298.070 8
  24691416.696    24691421.962  -115449429.959 7 158795478.727 8
 88  4  1  7 50 29.0800000  0  4G 3G13G12G 9
  21603250.869    21603253.157  -118600392.810 8 144724069.189 6
  21678887.345    21678889.414   -52853605.852 9  43854238.965 7
  21819888.745    21819894.689  -103508540.527 8 143594778.226 8
  24715064.218    24715069.472  -115325164.276 9 158892309.064 8
 88  4  1  7 50 59.0800000  0  4G 3G13G12G 9
  21597820.903    21597823.999  -118628923.642 8 144701837.384 7
  21686417.761    21686423.010   -52814019.836 8  43885085.189 8
  21835472.580    21835478.197  -103426647.361 8 143658591.056 8
  24738707.183    24738710.799  -115200925.125 9 158989118.752 8
 88  4  1  7 51 29.0800000  0  4G 3G13G12G 9
  21592418.000    21592420.988  -118657321.287 8 144679709.348 7
  21693965.116    21693969.649   -52774365.794 9  43915984.424 8
  21851137.108    21851141.738  -103344331.997 8 143722732.866 8
  24762343.382    24762347.490  -115076716.926 9 159085904.359 8
